<?xml version="1.0" encoding="UTF-8" standalone="no" ?>
<gpx xmlns="http://www.topografix.com/GPX/1/1" xmlns:xsi="http://www.w3.org/2001/XMLSchema-instance" xsi:schemaLocation="http://www.topografix.com/GPX/1/1 http://www.topografix.com/GPX/1/1/gpx.xsd" version="1.1" creator="VisuGPX - https://www.visugpx.com">
  <metadata>
    <name>GR6 étp 63 (31)-28/07/2020 La Réole St-Pierre de Mons</name>
  </metadata>
  <trk>
    <name><![CDATA[31-28/07/2020 La Réole St-Pierre de Mons]]></name>
    <trkseg>
      <trkpt lat="44.58126" lon="-0.03525">
        <ele>50.13</ele>
        <time>2020-07-28T06:41:12Z</time>
      </trkpt>
      <trkpt lat="44.58116" lon="-0.03535">
        <ele>50.13</ele>
        <time>2020-07-28T06:41:37Z</time>
      </trkpt>
      <trkpt lat="44.58116" lon="-0.03535">
        <ele>42.44</ele>
        <time>2020-07-28T06:41:42Z</time>
      </trkpt>
      <trkpt lat="44.58117" lon="-0.03534">
        <ele>42.44</ele>
        <time>2020-07-28T06:41:44Z</time>
      </trkpt>
      <trkpt lat="44.58116" lon="-0.03533">
        <ele>42.44</ele>
        <time>2020-07-28T06:41:46Z</time>
      </trkpt>
      <trkpt lat="44.58107" lon="-0.03526">
        <ele>41.95</ele>
        <time>2020-07-28T06:41:52Z</time>
      </trkpt>
      <trkpt lat="44.5809" lon="-0.03507">
        <ele>41.47</ele>
        <time>2020-07-28T06:42:11Z</time>
      </trkpt>
      <trkpt lat="44.58074" lon="-0.03493">
        <ele>40.99</ele>
        <time>2020-07-28T06:42:27Z</time>
      </trkpt>
      <trkpt lat="44.58069" lon="-0.03486">
        <ele>40.51</ele>
        <time>2020-07-28T06:42:34Z</time>
      </trkpt>
      <trkpt lat="44.58064" lon="-0.03481">
        <ele>40.51</ele>
        <time>2020-07-28T06:42:40Z</time>
      </trkpt>
      <trkpt lat="44.58052" lon="-0.03462">
        <ele>40.03</ele>
        <time>2020-07-28T06:42:58Z</time>
      </trkpt>
      <trkpt lat="44.58039" lon="-0.03449">
        <ele>39.55</ele>
        <time>2020-07-28T06:43:11Z</time>
      </trkpt>
      <trkpt lat="44.58032" lon="-0.03447">
        <ele>39.55</ele>
        <time>2020-07-28T06:43:19Z</time>
      </trkpt>
      <trkpt lat="44.58032" lon="-0.03439">
        <ele>39.55</ele>
        <time>2020-07-28T06:43:25Z</time>
      </trkpt>
      <trkpt lat="44.58028" lon="-0.03431">
        <ele>39.07</ele>
        <time>2020-07-28T06:43:32Z</time>
      </trkpt>
      <trkpt lat="44.58007" lon="-0.03433">
        <ele>37.63</ele>
        <time>2020-07-28T06:43:51Z</time>
      </trkpt>
      <trkpt lat="44.57989" lon="-0.03447">
        <ele>35.23</ele>
        <time>2020-07-28T06:44:12Z</time>
      </trkpt>
      <trkpt lat="44.57977" lon="-0.03452">
        <ele>34.26</ele>
        <time>2020-07-28T06:44:29Z</time>
      </trkpt>
      <trkpt lat="44.57972" lon="-0.03451">
        <ele>33.78</ele>
        <time>2020-07-28T06:44:55Z</time>
      </trkpt>
      <trkpt lat="44.57973" lon="-0.03454">
        <ele>33.78</ele>
        <time>2020-07-28T06:45:15Z</time>
      </trkpt>
      <trkpt lat="44.57972" lon="-0.03449">
        <ele>33.3</ele>
        <time>2020-07-28T06:45:39Z</time>
      </trkpt>
      <trkpt lat="44.57974" lon="-0.03448">
        <ele>33.3</ele>
        <time>2020-07-28T06:45:59Z</time>
      </trkpt>
      <trkpt lat="44.57968" lon="-0.03446">
        <ele>29.94</ele>
        <time>2020-07-28T06:46:09Z</time>
      </trkpt>
      <trkpt lat="44.57967" lon="-0.0344">
        <ele>29.94</ele>
        <time>2020-07-28T06:46:13Z</time>
      </trkpt>
      <trkpt lat="44.57966" lon="-0.03435">
        <ele>29.46</ele>
        <time>2020-07-28T06:46:17Z</time>
      </trkpt>
      <trkpt lat="44.57966" lon="-0.03418">
        <ele>28.98</ele>
        <time>2020-07-28T06:46:31Z</time>
      </trkpt>
      <trkpt lat="44.57964" lon="-0.03414">
        <ele>28.98</ele>
        <time>2020-07-28T06:46:53Z</time>
      </trkpt>
      <trkpt lat="44.57959" lon="-0.03404">
        <ele>28.02</ele>
        <time>2020-07-28T06:47:06Z</time>
      </trkpt>
      <trkpt lat="44.57956" lon="-0.03405">
        <ele>28.02</ele>
        <time>2020-07-28T06:47:24Z</time>
      </trkpt>
      <trkpt lat="44.57955" lon="-0.03408">
        <ele>28.02</ele>
        <time>2020-07-28T06:47:43Z</time>
      </trkpt>
      <trkpt lat="44.5795" lon="-0.03411">
        <ele>28.02</ele>
        <time>2020-07-28T06:48:03Z</time>
      </trkpt>
      <trkpt lat="44.57949" lon="-0.03402">
        <ele>27.05</ele>
        <time>2020-07-28T06:48:19Z</time>
      </trkpt>
      <trkpt lat="44.57944" lon="-0.034">
        <ele>27.05</ele>
        <time>2020-07-28T06:48:32Z</time>
      </trkpt>
      <trkpt lat="44.57939" lon="-0.03405">
        <ele>27.05</ele>
        <time>2020-07-28T06:48:56Z</time>
      </trkpt>
      <trkpt lat="44.57929" lon="-0.03408">
        <ele>27.05</ele>
        <time>2020-07-28T06:49:21Z</time>
      </trkpt>
      <trkpt lat="44.57909" lon="-0.03407">
        <ele>28.02</ele>
        <time>2020-07-28T06:49:38Z</time>
      </trkpt>
      <trkpt lat="44.57899" lon="-0.03409">
        <ele>27.05</ele>
        <time>2020-07-28T06:49:45Z</time>
      </trkpt>
      <trkpt lat="44.57874" lon="-0.03411">
        <ele>28.02</ele>
        <time>2020-07-28T06:50:04Z</time>
      </trkpt>
      <trkpt lat="44.57857" lon="-0.03413">
        <ele>28.02</ele>
        <time>2020-07-28T06:50:19Z</time>
      </trkpt>
      <trkpt lat="44.57853" lon="-0.03418">
        <ele>28.02</ele>
        <time>2020-07-28T06:50:43Z</time>
      </trkpt>
      <trkpt lat="44.57845" lon="-0.03418">
        <ele>27.53</ele>
        <time>2020-07-28T06:51:03Z</time>
      </trkpt>
      <trkpt lat="44.57821" lon="-0.03419">
        <ele>27.53</ele>
        <time>2020-07-28T06:51:23Z</time>
      </trkpt>
      <trkpt lat="44.5781" lon="-0.0342">
        <ele>26.09</ele>
        <time>2020-07-28T06:51:32Z</time>
      </trkpt>
      <trkpt lat="44.57794" lon="-0.03421">
        <ele>26.09</ele>
        <time>2020-07-28T06:51:49Z</time>
      </trkpt>
      <trkpt lat="44.57793" lon="-0.03423">
        <ele>26.09</ele>
        <time>2020-07-28T06:52:10Z</time>
      </trkpt>
      <trkpt lat="44.57795" lon="-0.03427">
        <ele>26.09</ele>
        <time>2020-07-28T06:52:35Z</time>
      </trkpt>
      <trkpt lat="44.57793" lon="-0.03427">
        <ele>26.09</ele>
        <time>2020-07-28T06:53:04Z</time>
      </trkpt>
      <trkpt lat="44.57799" lon="-0.03427">
        <ele>26.09</ele>
        <time>2020-07-28T06:53:20Z</time>
      </trkpt>
      <trkpt lat="44.57798" lon="-0.03426">
        <ele>26.09</ele>
        <time>2020-07-28T06:53:50Z</time>
      </trkpt>
      <trkpt lat="44.57787" lon="-0.03422">
        <ele>25.61</ele>
        <time>2020-07-28T06:54:06Z</time>
      </trkpt>
      <trkpt lat="44.57788" lon="-0.03425">
        <ele>25.61</ele>
        <time>2020-07-28T06:54:29Z</time>
      </trkpt>
      <trkpt lat="44.57793" lon="-0.03428">
        <ele>22.25</ele>
        <time>2020-07-28T06:54:38Z</time>
      </trkpt>
      <trkpt lat="44.57789" lon="-0.03439">
        <ele>22.25</ele>
        <time>2020-07-28T06:54:52Z</time>
      </trkpt>
      <trkpt lat="44.57788" lon="-0.03451">
        <ele>21.77</ele>
        <time>2020-07-28T06:55:20Z</time>
      </trkpt>
      <trkpt lat="44.57785" lon="-0.03478">
        <ele>21.29</ele>
        <time>2020-07-28T06:55:38Z</time>
      </trkpt>
      <trkpt lat="44.57783" lon="-0.03494">
        <ele>21.29</ele>
        <time>2020-07-28T06:55:56Z</time>
      </trkpt>
      <trkpt lat="44.57785" lon="-0.03509">
        <ele>21.29</ele>
        <time>2020-07-28T06:56:13Z</time>
      </trkpt>
      <trkpt lat="44.57785" lon="-0.03529">
        <ele>21.29</ele>
        <time>2020-07-28T06:56:30Z</time>
      </trkpt>
      <trkpt lat="44.57784" lon="-0.03532">
        <ele>21.29</ele>
        <time>2020-07-28T06:56:32Z</time>
      </trkpt>
      <trkpt lat="44.57783" lon="-0.03558">
        <ele>21.29</ele>
        <time>2020-07-28T06:56:52Z</time>
      </trkpt>
      <trkpt lat="44.57782" lon="-0.03572">
        <ele>20.81</ele>
        <time>2020-07-28T06:57:09Z</time>
      </trkpt>
      <trkpt lat="44.5778" lon="-0.03586">
        <ele>20.81</ele>
        <time>2020-07-28T06:57:17Z</time>
      </trkpt>
      <trkpt lat="44.57781" lon="-0.03594">
        <ele>20.32</ele>
        <time>2020-07-28T06:57:22Z</time>
      </trkpt>
      <trkpt lat="44.57779" lon="-0.03624">
        <ele>21.77</ele>
        <time>2020-07-28T06:57:41Z</time>
      </trkpt>
      <trkpt lat="44.57778" lon="-0.03643">
        <ele>20.81</ele>
        <time>2020-07-28T06:57:52Z</time>
      </trkpt>
      <trkpt lat="44.57778" lon="-0.0365">
        <ele>22.25</ele>
        <time>2020-07-28T06:57:56Z</time>
      </trkpt>
      <trkpt lat="44.57777" lon="-0.0366">
        <ele>20.81</ele>
        <time>2020-07-28T06:58:01Z</time>
      </trkpt>
      <trkpt lat="44.57775" lon="-0.03703">
        <ele>20.81</ele>
        <time>2020-07-28T06:58:23Z</time>
      </trkpt>
      <trkpt lat="44.57775" lon="-0.03727">
        <ele>20.81</ele>
        <time>2020-07-28T06:58:38Z</time>
      </trkpt>
      <trkpt lat="44.57772" lon="-0.03746">
        <ele>20.32</ele>
        <time>2020-07-28T06:58:53Z</time>
      </trkpt>
      <trkpt lat="44.57772" lon="-0.03754">
        <ele>20.32</ele>
        <time>2020-07-28T06:58:57Z</time>
      </trkpt>
      <trkpt lat="44.57772" lon="-0.03763">
        <ele>21.29</ele>
        <time>2020-07-28T06:59:02Z</time>
      </trkpt>
      <trkpt lat="44.57777" lon="-0.03779">
        <ele>21.29</ele>
        <time>2020-07-28T06:59:18Z</time>
      </trkpt>
      <trkpt lat="44.57776" lon="-0.03789">
        <ele>21.29</ele>
        <time>2020-07-28T06:59:34Z</time>
      </trkpt>
      <trkpt lat="44.57776" lon="-0.03796">
        <ele>19.84</ele>
        <time>2020-07-28T06:59:38Z</time>
      </trkpt>
      <trkpt lat="44.57778" lon="-0.03821">
        <ele>19.84</ele>
        <time>2020-07-28T06:59:54Z</time>
      </trkpt>
      <trkpt lat="44.57778" lon="-0.03824">
        <ele>21.29</ele>
        <time>2020-07-28T06:59:56Z</time>
      </trkpt>
      <trkpt lat="44.5778" lon="-0.03843">
        <ele>19.84</ele>
        <time>2020-07-28T07:00:06Z</time>
      </trkpt>
      <trkpt lat="44.57782" lon="-0.03875">
        <ele>19.84</ele>
        <time>2020-07-28T07:00:23Z</time>
      </trkpt>
      <trkpt lat="44.57784" lon="-0.03898">
        <ele>20.81</ele>
        <time>2020-07-28T07:00:38Z</time>
      </trkpt>
      <trkpt lat="44.57784" lon="-0.03905">
        <ele>20.81</ele>
        <time>2020-07-28T07:00:42Z</time>
      </trkpt>
      <trkpt lat="44.57781" lon="-0.03925">
        <ele>19.36</ele>
        <time>2020-07-28T07:00:55Z</time>
      </trkpt>
      <trkpt lat="44.57779" lon="-0.03929">
        <ele>20.81</ele>
        <time>2020-07-28T07:00:58Z</time>
      </trkpt>
      <trkpt lat="44.57778" lon="-0.03944">
        <ele>20.32</ele>
        <time>2020-07-28T07:01:10Z</time>
      </trkpt>
      <trkpt lat="44.57781" lon="-0.03947">
        <ele>19.36</ele>
        <time>2020-07-28T07:01:14Z</time>
      </trkpt>
      <trkpt lat="44.57781" lon="-0.03949">
        <ele>19.36</ele>
        <time>2020-07-28T07:01:17Z</time>
      </trkpt>
      <trkpt lat="44.57781" lon="-0.03951">
        <ele>20.81</ele>
        <time>2020-07-28T07:01:19Z</time>
      </trkpt>
      <trkpt lat="44.57781" lon="-0.03966">
        <ele>20.81</ele>
        <time>2020-07-28T07:01:37Z</time>
      </trkpt>
      <trkpt lat="44.57788" lon="-0.03975">
        <ele>18.88</ele>
        <time>2020-07-28T07:01:52Z</time>
      </trkpt>
      <trkpt lat="44.57787" lon="-0.03973">
        <ele>17.92</ele>
        <time>2020-07-28T07:02:13Z</time>
      </trkpt>
      <trkpt lat="44.57787" lon="-0.03975">
        <ele>19.36</ele>
        <time>2020-07-28T07:02:36Z</time>
      </trkpt>
      <trkpt lat="44.57783" lon="-0.03978">
        <ele>19.84</ele>
        <time>2020-07-28T07:02:42Z</time>
      </trkpt>
      <trkpt lat="44.57782" lon="-0.03989">
        <ele>20.32</ele>
        <time>2020-07-28T07:02:50Z</time>
      </trkpt>
      <trkpt lat="44.57782" lon="-0.04013">
        <ele>20.81</ele>
        <time>2020-07-28T07:03:05Z</time>
      </trkpt>
      <trkpt lat="44.57783" lon="-0.0404">
        <ele>20.81</ele>
        <time>2020-07-28T07:03:22Z</time>
      </trkpt>
      <trkpt lat="44.57783" lon="-0.0407">
        <ele>20.81</ele>
        <time>2020-07-28T07:03:41Z</time>
      </trkpt>
      <trkpt lat="44.57783" lon="-0.04078">
        <ele>19.36</ele>
        <time>2020-07-28T07:03:46Z</time>
      </trkpt>
      <trkpt lat="44.57783" lon="-0.04084">
        <ele>20.32</ele>
        <time>2020-07-28T07:04:01Z</time>
      </trkpt>
      <trkpt lat="44.57785" lon="-0.04108">
        <ele>20.32</ele>
        <time>2020-07-28T07:04:16Z</time>
      </trkpt>
      <trkpt lat="44.57785" lon="-0.04136">
        <ele>20.32</ele>
        <time>2020-07-28T07:04:34Z</time>
      </trkpt>
      <trkpt lat="44.57785" lon="-0.04164">
        <ele>18.88</ele>
        <time>2020-07-28T07:04:52Z</time>
      </trkpt>
      <trkpt lat="44.57786" lon="-0.04191">
        <ele>19.84</ele>
        <time>2020-07-28T07:05:09Z</time>
      </trkpt>
      <trkpt lat="44.57786" lon="-0.04196">
        <ele>19.84</ele>
        <time>2020-07-28T07:05:13Z</time>
      </trkpt>
      <trkpt lat="44.57786" lon="-0.04228">
        <ele>19.84</ele>
        <time>2020-07-28T07:05:33Z</time>
      </trkpt>
      <trkpt lat="44.57785" lon="-0.04259">
        <ele>19.84</ele>
        <time>2020-07-28T07:05:53Z</time>
      </trkpt>
      <trkpt lat="44.57783" lon="-0.04291">
        <ele>19.84</ele>
        <time>2020-07-28T07:06:13Z</time>
      </trkpt>
      <trkpt lat="44.57784" lon="-0.04323">
        <ele>19.84</ele>
        <time>2020-07-28T07:06:32Z</time>
      </trkpt>
      <trkpt lat="44.57786" lon="-0.04354">
        <ele>19.84</ele>
        <time>2020-07-28T07:06:52Z</time>
      </trkpt>
      <trkpt lat="44.57788" lon="-0.04388">
        <ele>18.4</ele>
        <time>2020-07-28T07:07:14Z</time>
      </trkpt>
      <trkpt lat="44.57791" lon="-0.04402">
        <ele>19.84</ele>
        <time>2020-07-28T07:07:31Z</time>
      </trkpt>
      <trkpt lat="44.57792" lon="-0.0443">
        <ele>19.36</ele>
        <time>2020-07-28T07:07:50Z</time>
      </trkpt>
      <trkpt lat="44.57792" lon="-0.04443">
        <ele>18.4</ele>
        <time>2020-07-28T07:07:57Z</time>
      </trkpt>
      <trkpt lat="44.57792" lon="-0.04474">
        <ele>19.36</ele>
        <time>2020-07-28T07:08:17Z</time>
      </trkpt>
      <trkpt lat="44.57792" lon="-0.04502">
        <ele>19.36</ele>
        <time>2020-07-28T07:08:36Z</time>
      </trkpt>
      <trkpt lat="44.57794" lon="-0.04528">
        <ele>19.36</ele>
        <time>2020-07-28T07:08:53Z</time>
      </trkpt>
      <trkpt lat="44.57794" lon="-0.04532">
        <ele>19.36</ele>
        <time>2020-07-28T07:08:55Z</time>
      </trkpt>
      <trkpt lat="44.57793" lon="-0.04562">
        <ele>19.36</ele>
        <time>2020-07-28T07:09:14Z</time>
      </trkpt>
      <trkpt lat="44.57794" lon="-0.04584">
        <ele>19.36</ele>
        <time>2020-07-28T07:09:29Z</time>
      </trkpt>
      <trkpt lat="44.57794" lon="-0.04592">
        <ele>19.84</ele>
        <time>2020-07-28T07:09:43Z</time>
      </trkpt>
      <trkpt lat="44.57793" lon="-0.04599">
        <ele>19.36</ele>
        <time>2020-07-28T07:10:08Z</time>
      </trkpt>
      <trkpt lat="44.57793" lon="-0.04615">
        <ele>17.92</ele>
        <time>2020-07-28T07:10:20Z</time>
      </trkpt>
      <trkpt lat="44.57793" lon="-0.0462">
        <ele>19.36</ele>
        <time>2020-07-28T07:10:24Z</time>
      </trkpt>
      <trkpt lat="44.57794" lon="-0.04647">
        <ele>19.36</ele>
        <time>2020-07-28T07:10:43Z</time>
      </trkpt>
      <trkpt lat="44.57795" lon="-0.04683">
        <ele>19.36</ele>
        <time>2020-07-28T07:11:04Z</time>
      </trkpt>
      <trkpt lat="44.57794" lon="-0.04709">
        <ele>17.44</ele>
        <time>2020-07-28T07:11:20Z</time>
      </trkpt>
      <trkpt lat="44.57794" lon="-0.04711">
        <ele>18.88</ele>
        <time>2020-07-28T07:11:22Z</time>
      </trkpt>
      <trkpt lat="44.57794" lon="-0.04746">
        <ele>18.88</ele>
        <time>2020-07-28T07:11:42Z</time>
      </trkpt>
      <trkpt lat="44.5779" lon="-0.04781">
        <ele>18.88</ele>
        <time>2020-07-28T07:12:03Z</time>
      </trkpt>
      <trkpt lat="44.5779" lon="-0.04787">
        <ele>18.4</ele>
        <time>2020-07-28T07:12:07Z</time>
      </trkpt>
      <trkpt lat="44.57789" lon="-0.04793">
        <ele>17.44</ele>
        <time>2020-07-28T07:12:10Z</time>
      </trkpt>
      <trkpt lat="44.57785" lon="-0.04824">
        <ele>18.4</ele>
        <time>2020-07-28T07:12:29Z</time>
      </trkpt>
      <trkpt lat="44.57784" lon="-0.04844">
        <ele>18.4</ele>
        <time>2020-07-28T07:12:46Z</time>
      </trkpt>
      <trkpt lat="44.57779" lon="-0.04876">
        <ele>18.4</ele>
        <time>2020-07-28T07:13:05Z</time>
      </trkpt>
      <trkpt lat="44.57778" lon="-0.04903">
        <ele>18.4</ele>
        <time>2020-07-28T07:13:23Z</time>
      </trkpt>
      <trkpt lat="44.57775" lon="-0.04931">
        <ele>18.4</ele>
        <time>2020-07-28T07:13:42Z</time>
      </trkpt>
      <trkpt lat="44.57772" lon="-0.04957">
        <ele>18.4</ele>
        <time>2020-07-28T07:14:00Z</time>
      </trkpt>
      <trkpt lat="44.5777" lon="-0.04981">
        <ele>18.4</ele>
        <time>2020-07-28T07:14:16Z</time>
      </trkpt>
      <trkpt lat="44.57769" lon="-0.04984">
        <ele>16.96</ele>
        <time>2020-07-28T07:14:18Z</time>
      </trkpt>
      <trkpt lat="44.57769" lon="-0.04987">
        <ele>18.4</ele>
        <time>2020-07-28T07:14:21Z</time>
      </trkpt>
      <trkpt lat="44.57764" lon="-0.05024">
        <ele>18.4</ele>
        <time>2020-07-28T07:14:44Z</time>
      </trkpt>
      <trkpt lat="44.57763" lon="-0.05036">
        <ele>17.92</ele>
        <time>2020-07-28T07:15:02Z</time>
      </trkpt>
      <trkpt lat="44.57763" lon="-0.05047">
        <ele>17.92</ele>
        <time>2020-07-28T07:15:22Z</time>
      </trkpt>
      <trkpt lat="44.5776" lon="-0.05074">
        <ele>16.96</ele>
        <time>2020-07-28T07:15:42Z</time>
      </trkpt>
      <trkpt lat="44.57748" lon="-0.05118">
        <ele>16.96</ele>
        <time>2020-07-28T07:16:07Z</time>
      </trkpt>
      <trkpt lat="44.57741" lon="-0.05152">
        <ele>17.92</ele>
        <time>2020-07-28T07:16:25Z</time>
      </trkpt>
      <trkpt lat="44.57738" lon="-0.05161">
        <ele>16.48</ele>
        <time>2020-07-28T07:16:36Z</time>
      </trkpt>
      <trkpt lat="44.57737" lon="-0.05167">
        <ele>17.92</ele>
        <time>2020-07-28T07:16:40Z</time>
      </trkpt>
      <trkpt lat="44.57732" lon="-0.05195">
        <ele>16</ele>
        <time>2020-07-28T07:17:00Z</time>
      </trkpt>
      <trkpt lat="44.57732" lon="-0.05199">
        <ele>17.44</ele>
        <time>2020-07-28T07:17:03Z</time>
      </trkpt>
      <trkpt lat="44.57724" lon="-0.05228">
        <ele>17.44</ele>
        <time>2020-07-28T07:17:21Z</time>
      </trkpt>
      <trkpt lat="44.57715" lon="-0.0526">
        <ele>17.44</ele>
        <time>2020-07-28T07:17:43Z</time>
      </trkpt>
      <trkpt lat="44.57709" lon="-0.0529">
        <ele>17.44</ele>
        <time>2020-07-28T07:18:04Z</time>
      </trkpt>
      <trkpt lat="44.57698" lon="-0.05324">
        <ele>17.92</ele>
        <time>2020-07-28T07:18:25Z</time>
      </trkpt>
      <trkpt lat="44.57694" lon="-0.05347">
        <ele>16.48</ele>
        <time>2020-07-28T07:18:36Z</time>
      </trkpt>
      <trkpt lat="44.57691" lon="-0.05351">
        <ele>17.44</ele>
        <time>2020-07-28T07:18:40Z</time>
      </trkpt>
      <trkpt lat="44.5768" lon="-0.05363">
        <ele>17.44</ele>
        <time>2020-07-28T07:18:56Z</time>
      </trkpt>
      <trkpt lat="44.57678" lon="-0.05364">
        <ele>16.48</ele>
        <time>2020-07-28T07:18:58Z</time>
      </trkpt>
      <trkpt lat="44.57657" lon="-0.05365">
        <ele>17.44</ele>
        <time>2020-07-28T07:19:21Z</time>
      </trkpt>
      <trkpt lat="44.5763" lon="-0.05356">
        <ele>17.44</ele>
        <time>2020-07-28T07:19:43Z</time>
      </trkpt>
      <trkpt lat="44.5761" lon="-0.05342">
        <ele>17.44</ele>
        <time>2020-07-28T07:20:07Z</time>
      </trkpt>
      <trkpt lat="44.57585" lon="-0.05335">
        <ele>17.44</ele>
        <time>2020-07-28T07:20:29Z</time>
      </trkpt>
      <trkpt lat="44.57576" lon="-0.05345">
        <ele>17.44</ele>
        <time>2020-07-28T07:20:38Z</time>
      </trkpt>
      <trkpt lat="44.57574" lon="-0.0536">
        <ele>16</ele>
        <time>2020-07-28T07:20:48Z</time>
      </trkpt>
      <trkpt lat="44.57573" lon="-0.05387">
        <ele>15.04</ele>
        <time>2020-07-28T07:21:07Z</time>
      </trkpt>
      <trkpt lat="44.57565" lon="-0.05429">
        <ele>15.52</ele>
        <time>2020-07-28T07:21:28Z</time>
      </trkpt>
      <trkpt lat="44.57564" lon="-0.05442">
        <ele>15.52</ele>
        <time>2020-07-28T07:21:37Z</time>
      </trkpt>
      <trkpt lat="44.5756" lon="-0.05469">
        <ele>15.52</ele>
        <time>2020-07-28T07:21:54Z</time>
      </trkpt>
      <trkpt lat="44.57559" lon="-0.05483">
        <ele>14.56</ele>
        <time>2020-07-28T07:22:03Z</time>
      </trkpt>
      <trkpt lat="44.57557" lon="-0.0549">
        <ele>15.52</ele>
        <time>2020-07-28T07:22:07Z</time>
      </trkpt>
      <trkpt lat="44.57554" lon="-0.05515">
        <ele>15.52</ele>
        <time>2020-07-28T07:22:25Z</time>
      </trkpt>
      <trkpt lat="44.5755" lon="-0.05548">
        <ele>14.56</ele>
        <time>2020-07-28T07:22:48Z</time>
      </trkpt>
      <trkpt lat="44.57548" lon="-0.05586">
        <ele>15.52</ele>
        <time>2020-07-28T07:23:08Z</time>
      </trkpt>
      <trkpt lat="44.57546" lon="-0.05601">
        <ele>14.08</ele>
        <time>2020-07-28T07:23:16Z</time>
      </trkpt>
      <trkpt lat="44.57545" lon="-0.05605">
        <ele>15.52</ele>
        <time>2020-07-28T07:23:18Z</time>
      </trkpt>
      <trkpt lat="44.57544" lon="-0.05609">
        <ele>14.56</ele>
        <time>2020-07-28T07:23:20Z</time>
      </trkpt>
      <trkpt lat="44.57537" lon="-0.05651">
        <ele>15.52</ele>
        <time>2020-07-28T07:23:44Z</time>
      </trkpt>
      <trkpt lat="44.57537" lon="-0.05655">
        <ele>14.08</ele>
        <time>2020-07-28T07:23:46Z</time>
      </trkpt>
      <trkpt lat="44.57536" lon="-0.0566">
        <ele>15.52</ele>
        <time>2020-07-28T07:23:49Z</time>
      </trkpt>
      <trkpt lat="44.57531" lon="-0.05678">
        <ele>13.6</ele>
        <time>2020-07-28T07:24:00Z</time>
      </trkpt>
      <trkpt lat="44.5753" lon="-0.05686">
        <ele>15.04</ele>
        <time>2020-07-28T07:24:04Z</time>
      </trkpt>
      <trkpt lat="44.57526" lon="-0.05708">
        <ele>14.08</ele>
        <time>2020-07-28T07:24:22Z</time>
      </trkpt>
      <trkpt lat="44.57522" lon="-0.05725">
        <ele>14.08</ele>
        <time>2020-07-28T07:24:39Z</time>
      </trkpt>
      <trkpt lat="44.57519" lon="-0.05735">
        <ele>15.52</ele>
        <time>2020-07-28T07:24:46Z</time>
      </trkpt>
      <trkpt lat="44.57517" lon="-0.05747">
        <ele>15.52</ele>
        <time>2020-07-28T07:24:58Z</time>
      </trkpt>
      <trkpt lat="44.57508" lon="-0.05779">
        <ele>15.04</ele>
        <time>2020-07-28T07:25:19Z</time>
      </trkpt>
      <trkpt lat="44.57503" lon="-0.05805">
        <ele>15.04</ele>
        <time>2020-07-28T07:25:37Z</time>
      </trkpt>
      <trkpt lat="44.57494" lon="-0.05838">
        <ele>15.04</ele>
        <time>2020-07-28T07:26:00Z</time>
      </trkpt>
      <trkpt lat="44.57488" lon="-0.05863">
        <ele>14.56</ele>
        <time>2020-07-28T07:26:17Z</time>
      </trkpt>
      <trkpt lat="44.57482" lon="-0.05892">
        <ele>15.04</ele>
        <time>2020-07-28T07:26:35Z</time>
      </trkpt>
      <trkpt lat="44.57474" lon="-0.05921">
        <ele>16</ele>
        <time>2020-07-28T07:26:55Z</time>
      </trkpt>
      <trkpt lat="44.57467" lon="-0.05953">
        <ele>16.48</ele>
        <time>2020-07-28T07:27:15Z</time>
      </trkpt>
      <trkpt lat="44.57459" lon="-0.05975">
        <ele>15.04</ele>
        <time>2020-07-28T07:27:30Z</time>
      </trkpt>
      <trkpt lat="44.57459" lon="-0.05979">
        <ele>16.48</ele>
        <time>2020-07-28T07:27:32Z</time>
      </trkpt>
      <trkpt lat="44.57459" lon="-0.05983">
        <ele>15.04</ele>
        <time>2020-07-28T07:27:34Z</time>
      </trkpt>
      <trkpt lat="44.57452" lon="-0.06006">
        <ele>16</ele>
        <time>2020-07-28T07:27:49Z</time>
      </trkpt>
      <trkpt lat="44.5745" lon="-0.0602">
        <ele>14.56</ele>
        <time>2020-07-28T07:27:58Z</time>
      </trkpt>
      <trkpt lat="44.57443" lon="-0.06047">
        <ele>13.12</ele>
        <time>2020-07-28T07:28:14Z</time>
      </trkpt>
      <trkpt lat="44.57441" lon="-0.06052">
        <ele>15.04</ele>
        <time>2020-07-28T07:28:17Z</time>
      </trkpt>
      <trkpt lat="44.57439" lon="-0.0607">
        <ele>13.6</ele>
        <time>2020-07-28T07:28:27Z</time>
      </trkpt>
      <trkpt lat="44.5743" lon="-0.0611">
        <ele>13.12</ele>
        <time>2020-07-28T07:28:51Z</time>
      </trkpt>
      <trkpt lat="44.57428" lon="-0.06117">
        <ele>14.56</ele>
        <time>2020-07-28T07:28:55Z</time>
      </trkpt>
      <trkpt lat="44.57424" lon="-0.06137">
        <ele>13.12</ele>
        <time>2020-07-28T07:29:08Z</time>
      </trkpt>
      <trkpt lat="44.57422" lon="-0.06148">
        <ele>14.56</ele>
        <time>2020-07-28T07:29:14Z</time>
      </trkpt>
      <trkpt lat="44.5742" lon="-0.06162">
        <ele>13.12</ele>
        <time>2020-07-28T07:29:22Z</time>
      </trkpt>
      <trkpt lat="44.57413" lon="-0.06197">
        <ele>14.08</ele>
        <time>2020-07-28T07:29:44Z</time>
      </trkpt>
      <trkpt lat="44.57409" lon="-0.06221">
        <ele>13.12</ele>
        <time>2020-07-28T07:29:58Z</time>
      </trkpt>
      <trkpt lat="44.57401" lon="-0.0626">
        <ele>12.63</ele>
        <time>2020-07-28T07:30:21Z</time>
      </trkpt>
      <trkpt lat="44.574" lon="-0.06263">
        <ele>14.08</ele>
        <time>2020-07-28T07:30:23Z</time>
      </trkpt>
      <trkpt lat="44.57392" lon="-0.06303">
        <ele>14.08</ele>
        <time>2020-07-28T07:30:48Z</time>
      </trkpt>
      <trkpt lat="44.57391" lon="-0.06317">
        <ele>12.63</ele>
        <time>2020-07-28T07:30:56Z</time>
      </trkpt>
      <trkpt lat="44.57391" lon="-0.06322">
        <ele>14.08</ele>
        <time>2020-07-28T07:30:59Z</time>
      </trkpt>
      <trkpt lat="44.57391" lon="-0.06341">
        <ele>12.63</ele>
        <time>2020-07-28T07:31:09Z</time>
      </trkpt>
      <trkpt lat="44.5739" lon="-0.06347">
        <ele>14.08</ele>
        <time>2020-07-28T07:31:13Z</time>
      </trkpt>
      <trkpt lat="44.57389" lon="-0.0636">
        <ele>12.63</ele>
        <time>2020-07-28T07:31:21Z</time>
      </trkpt>
      <trkpt lat="44.57387" lon="-0.06367">
        <ele>13.6</ele>
        <time>2020-07-28T07:31:25Z</time>
      </trkpt>
      <trkpt lat="44.57369" lon="-0.06401">
        <ele>14.08</ele>
        <time>2020-07-28T07:31:47Z</time>
      </trkpt>
      <trkpt lat="44.57363" lon="-0.06418">
        <ele>12.63</ele>
        <time>2020-07-28T07:31:57Z</time>
      </trkpt>
      <trkpt lat="44.57355" lon="-0.06452">
        <ele>14.08</ele>
        <time>2020-07-28T07:32:18Z</time>
      </trkpt>
      <trkpt lat="44.57354" lon="-0.06482">
        <ele>13.6</ele>
        <time>2020-07-28T07:32:36Z</time>
      </trkpt>
      <trkpt lat="44.57355" lon="-0.06488">
        <ele>13.6</ele>
        <time>2020-07-28T07:32:40Z</time>
      </trkpt>
      <trkpt lat="44.57354" lon="-0.06502">
        <ele>13.6</ele>
        <time>2020-07-28T07:32:48Z</time>
      </trkpt>
      <trkpt lat="44.57351" lon="-0.06519">
        <ele>12.63</ele>
        <time>2020-07-28T07:32:59Z</time>
      </trkpt>
      <trkpt lat="44.57347" lon="-0.06553">
        <ele>13.6</ele>
        <time>2020-07-28T07:33:18Z</time>
      </trkpt>
      <trkpt lat="44.5734" lon="-0.06584">
        <ele>13.6</ele>
        <time>2020-07-28T07:33:37Z</time>
      </trkpt>
      <trkpt lat="44.5734" lon="-0.06592">
        <ele>12.15</ele>
        <time>2020-07-28T07:33:41Z</time>
      </trkpt>
      <trkpt lat="44.57339" lon="-0.06597">
        <ele>13.6</ele>
        <time>2020-07-28T07:33:44Z</time>
      </trkpt>
      <trkpt lat="44.57334" lon="-0.06626">
        <ele>14.56</ele>
        <time>2020-07-28T07:34:02Z</time>
      </trkpt>
      <trkpt lat="44.57326" lon="-0.06643">
        <ele>14.56</ele>
        <time>2020-07-28T07:34:18Z</time>
      </trkpt>
      <trkpt lat="44.57326" lon="-0.06647">
        <ele>14.56</ele>
        <time>2020-07-28T07:34:38Z</time>
      </trkpt>
      <trkpt lat="44.57324" lon="-0.0665">
        <ele>13.12</ele>
        <time>2020-07-28T07:35:05Z</time>
      </trkpt>
      <trkpt lat="44.57324" lon="-0.0665">
        <ele>13.12</ele>
        <time>2020-07-28T07:35:28Z</time>
      </trkpt>
      <trkpt lat="44.57319" lon="-0.06661">
        <ele>12.63</ele>
        <time>2020-07-28T07:35:37Z</time>
      </trkpt>
      <trkpt lat="44.57299" lon="-0.06677">
        <ele>12.15</ele>
        <time>2020-07-28T07:35:57Z</time>
      </trkpt>
      <trkpt lat="44.57295" lon="-0.06679">
        <ele>11.67</ele>
        <time>2020-07-28T07:36:00Z</time>
      </trkpt>
      <trkpt lat="44.57278" lon="-0.0669">
        <ele>11.19</ele>
        <time>2020-07-28T07:36:17Z</time>
      </trkpt>
      <trkpt lat="44.57269" lon="-0.06705">
        <ele>12.63</ele>
        <time>2020-07-28T07:36:28Z</time>
      </trkpt>
      <trkpt lat="44.57268" lon="-0.06713">
        <ele>11.19</ele>
        <time>2020-07-28T07:36:32Z</time>
      </trkpt>
      <trkpt lat="44.57269" lon="-0.06749">
        <ele>11.19</ele>
        <time>2020-07-28T07:36:54Z</time>
      </trkpt>
      <trkpt lat="44.57268" lon="-0.06761">
        <ele>11.19</ele>
        <time>2020-07-28T07:37:03Z</time>
      </trkpt>
      <trkpt lat="44.57269" lon="-0.06789">
        <ele>12.15</ele>
        <time>2020-07-28T07:37:19Z</time>
      </trkpt>
      <trkpt lat="44.57269" lon="-0.06789">
        <ele>12.15</ele>
        <time>2020-07-28T07:37:20Z</time>
      </trkpt>
      <trkpt lat="44.57268" lon="-0.06793">
        <ele>12.15</ele>
        <time>2020-07-28T07:37:38Z</time>
      </trkpt>
      <trkpt lat="44.57268" lon="-0.06792">
        <ele>12.15</ele>
        <time>2020-07-28T07:37:58Z</time>
      </trkpt>
      <trkpt lat="44.57259" lon="-0.06803">
        <ele>12.15</ele>
        <time>2020-07-28T07:38:14Z</time>
      </trkpt>
      <trkpt lat="44.57245" lon="-0.06801">
        <ele>12.15</ele>
        <time>2020-07-28T07:38:32Z</time>
      </trkpt>
      <trkpt lat="44.57239" lon="-0.06803">
        <ele>12.15</ele>
        <time>2020-07-28T07:38:48Z</time>
      </trkpt>
      <trkpt lat="44.57235" lon="-0.06804">
        <ele>12.15</ele>
        <time>2020-07-28T07:39:17Z</time>
      </trkpt>
      <trkpt lat="44.57218" lon="-0.06818">
        <ele>12.15</ele>
        <time>2020-07-28T07:39:36Z</time>
      </trkpt>
      <trkpt lat="44.57212" lon="-0.06819">
        <ele>12.15</ele>
        <time>2020-07-28T07:39:42Z</time>
      </trkpt>
      <trkpt lat="44.57205" lon="-0.06824">
        <ele>12.15</ele>
        <time>2020-07-28T07:39:49Z</time>
      </trkpt>
      <trkpt lat="44.57201" lon="-0.06824">
        <ele>12.15</ele>
        <time>2020-07-28T07:39:52Z</time>
      </trkpt>
      <trkpt lat="44.57198" lon="-0.06825">
        <ele>11.19</ele>
        <time>2020-07-28T07:39:54Z</time>
      </trkpt>
      <trkpt lat="44.57172" lon="-0.06831">
        <ele>11.19</ele>
        <time>2020-07-28T07:40:16Z</time>
      </trkpt>
      <trkpt lat="44.57164" lon="-0.06834">
        <ele>11.19</ele>
        <time>2020-07-28T07:40:32Z</time>
      </trkpt>
      <trkpt lat="44.57148" lon="-0.0684">
        <ele>11.19</ele>
        <time>2020-07-28T07:40:50Z</time>
      </trkpt>
      <trkpt lat="44.57134" lon="-0.06841">
        <ele>10.23</ele>
        <time>2020-07-28T07:41:08Z</time>
      </trkpt>
      <trkpt lat="44.57111" lon="-0.06841">
        <ele>11.67</ele>
        <time>2020-07-28T07:41:29Z</time>
      </trkpt>
      <trkpt lat="44.57084" lon="-0.06847">
        <ele>10.71</ele>
        <time>2020-07-28T07:41:51Z</time>
      </trkpt>
      <trkpt lat="44.57059" lon="-0.06862">
        <ele>11.67</ele>
        <time>2020-07-28T07:42:13Z</time>
      </trkpt>
      <trkpt lat="44.57052" lon="-0.06872">
        <ele>11.67</ele>
        <time>2020-07-28T07:42:26Z</time>
      </trkpt>
      <trkpt lat="44.57044" lon="-0.06885">
        <ele>10.23</ele>
        <time>2020-07-28T07:42:38Z</time>
      </trkpt>
      <trkpt lat="44.57044" lon="-0.06887">
        <ele>10.23</ele>
        <time>2020-07-28T07:43:04Z</time>
      </trkpt>
      <trkpt lat="44.57044" lon="-0.06887">
        <ele>10.23</ele>
        <time>2020-07-28T07:43:06Z</time>
      </trkpt>
      <trkpt lat="44.57035" lon="-0.06911">
        <ele>10.23</ele>
        <time>2020-07-28T07:43:24Z</time>
      </trkpt>
      <trkpt lat="44.5703" lon="-0.06918">
        <ele>10.71</ele>
        <time>2020-07-28T07:43:42Z</time>
      </trkpt>
      <trkpt lat="44.57023" lon="-0.06937">
        <ele>10.71</ele>
        <time>2020-07-28T07:43:57Z</time>
      </trkpt>
      <trkpt lat="44.57014" lon="-0.06952">
        <ele>10.71</ele>
        <time>2020-07-28T07:44:10Z</time>
      </trkpt>
      <trkpt lat="44.57001" lon="-0.06973">
        <ele>11.19</ele>
        <time>2020-07-28T07:44:28Z</time>
      </trkpt>
      <trkpt lat="44.56993" lon="-0.06986">
        <ele>9.75</ele>
        <time>2020-07-28T07:44:38Z</time>
      </trkpt>
      <trkpt lat="44.56991" lon="-0.06989">
        <ele>11.19</ele>
        <time>2020-07-28T07:44:41Z</time>
      </trkpt>
      <trkpt lat="44.56974" lon="-0.07015">
        <ele>11.19</ele>
        <time>2020-07-28T07:45:05Z</time>
      </trkpt>
      <trkpt lat="44.56975" lon="-0.07014">
        <ele>11.19</ele>
        <time>2020-07-28T07:45:23Z</time>
      </trkpt>
      <trkpt lat="44.56963" lon="-0.0703">
        <ele>11.19</ele>
        <time>2020-07-28T07:45:39Z</time>
      </trkpt>
      <trkpt lat="44.56943" lon="-0.07063">
        <ele>11.67</ele>
        <time>2020-07-28T07:46:03Z</time>
      </trkpt>
      <trkpt lat="44.56923" lon="-0.07092">
        <ele>11.67</ele>
        <time>2020-07-28T07:46:27Z</time>
      </trkpt>
      <trkpt lat="44.56919" lon="-0.07099">
        <ele>11.67</ele>
        <time>2020-07-28T07:46:33Z</time>
      </trkpt>
      <trkpt lat="44.56901" lon="-0.07129">
        <ele>11.67</ele>
        <time>2020-07-28T07:46:56Z</time>
      </trkpt>
      <trkpt lat="44.56888" lon="-0.07146">
        <ele>11.67</ele>
        <time>2020-07-28T07:47:14Z</time>
      </trkpt>
      <trkpt lat="44.56889" lon="-0.07148">
        <ele>11.67</ele>
        <time>2020-07-28T07:47:41Z</time>
      </trkpt>
      <trkpt lat="44.56888" lon="-0.07147">
        <ele>11.67</ele>
        <time>2020-07-28T07:48:04Z</time>
      </trkpt>
      <trkpt lat="44.56889" lon="-0.07149">
        <ele>11.67</ele>
        <time>2020-07-28T07:48:40Z</time>
      </trkpt>
      <trkpt lat="44.56885" lon="-0.07152">
        <ele>11.67</ele>
        <time>2020-07-28T07:49:07Z</time>
      </trkpt>
      <trkpt lat="44.56872" lon="-0.07169">
        <ele>11.67</ele>
        <time>2020-07-28T07:49:24Z</time>
      </trkpt>
      <trkpt lat="44.56853" lon="-0.07195">
        <ele>11.67</ele>
        <time>2020-07-28T07:49:46Z</time>
      </trkpt>
      <trkpt lat="44.56834" lon="-0.07215">
        <ele>10.23</ele>
        <time>2020-07-28T07:50:06Z</time>
      </trkpt>
      <trkpt lat="44.56818" lon="-0.07231">
        <ele>10.23</ele>
        <time>2020-07-28T07:50:23Z</time>
      </trkpt>
      <trkpt lat="44.5681" lon="-0.0724">
        <ele>11.67</ele>
        <time>2020-07-28T07:50:30Z</time>
      </trkpt>
      <trkpt lat="44.56803" lon="-0.07248">
        <ele>10.23</ele>
        <time>2020-07-28T07:50:37Z</time>
      </trkpt>
      <trkpt lat="44.56801" lon="-0.0725">
        <ele>11.67</ele>
        <time>2020-07-28T07:50:39Z</time>
      </trkpt>
      <trkpt lat="44.56777" lon="-0.07274">
        <ele>11.67</ele>
        <time>2020-07-28T07:51:03Z</time>
      </trkpt>
      <trkpt lat="44.56767" lon="-0.07283">
        <ele>10.23</ele>
        <time>2020-07-28T07:51:14Z</time>
      </trkpt>
      <trkpt lat="44.56762" lon="-0.0729">
        <ele>11.67</ele>
        <time>2020-07-28T07:51:20Z</time>
      </trkpt>
      <trkpt lat="44.56749" lon="-0.07313">
        <ele>11.67</ele>
        <time>2020-07-28T07:51:37Z</time>
      </trkpt>
      <trkpt lat="44.56747" lon="-0.07314">
        <ele>11.67</ele>
        <time>2020-07-28T07:51:42Z</time>
      </trkpt>
      <trkpt lat="44.56745" lon="-0.07318">
        <ele>11.67</ele>
        <time>2020-07-28T07:51:45Z</time>
      </trkpt>
      <trkpt lat="44.56738" lon="-0.0733">
        <ele>10.23</ele>
        <time>2020-07-28T07:51:55Z</time>
      </trkpt>
      <trkpt lat="44.56737" lon="-0.07332">
        <ele>11.67</ele>
        <time>2020-07-28T07:51:57Z</time>
      </trkpt>
      <trkpt lat="44.56729" lon="-0.07345">
        <ele>9.75</ele>
        <time>2020-07-28T07:52:07Z</time>
      </trkpt>
      <trkpt lat="44.56727" lon="-0.0735">
        <ele>11.67</ele>
        <time>2020-07-28T07:52:10Z</time>
      </trkpt>
      <trkpt lat="44.56725" lon="-0.07353">
        <ele>10.23</ele>
        <time>2020-07-28T07:52:13Z</time>
      </trkpt>
      <trkpt lat="44.56723" lon="-0.07355">
        <ele>11.67</ele>
        <time>2020-07-28T07:52:15Z</time>
      </trkpt>
      <trkpt lat="44.56709" lon="-0.07386">
        <ele>10.23</ele>
        <time>2020-07-28T07:52:35Z</time>
      </trkpt>
      <trkpt lat="44.56706" lon="-0.07393">
        <ele>11.67</ele>
        <time>2020-07-28T07:52:39Z</time>
      </trkpt>
      <trkpt lat="44.5669" lon="-0.07427">
        <ele>11.67</ele>
        <time>2020-07-28T07:52:59Z</time>
      </trkpt>
      <trkpt lat="44.56681" lon="-0.0745">
        <ele>10.23</ele>
        <time>2020-07-28T07:53:12Z</time>
      </trkpt>
      <trkpt lat="44.56676" lon="-0.07465">
        <ele>10.71</ele>
        <time>2020-07-28T07:53:21Z</time>
      </trkpt>
      <trkpt lat="44.56674" lon="-0.07473">
        <ele>10.71</ele>
        <time>2020-07-28T07:53:26Z</time>
      </trkpt>
      <trkpt lat="44.56672" lon="-0.07486">
        <ele>10.71</ele>
        <time>2020-07-28T07:53:42Z</time>
      </trkpt>
      <trkpt lat="44.56668" lon="-0.07492">
        <ele>10.23</ele>
        <time>2020-07-28T07:54:00Z</time>
      </trkpt>
      <trkpt lat="44.56668" lon="-0.07491">
        <ele>12.15</ele>
        <time>2020-07-28T07:54:08Z</time>
      </trkpt>
      <trkpt lat="44.56664" lon="-0.07507">
        <ele>12.15</ele>
        <time>2020-07-28T07:54:26Z</time>
      </trkpt>
      <trkpt lat="44.56662" lon="-0.0751">
        <ele>10.71</ele>
        <time>2020-07-28T07:54:42Z</time>
      </trkpt>
      <trkpt lat="44.56662" lon="-0.07509">
        <ele>10.71</ele>
        <time>2020-07-28T07:55:08Z</time>
      </trkpt>
      <trkpt lat="44.56663" lon="-0.0751">
        <ele>10.71</ele>
        <time>2020-07-28T07:55:33Z</time>
      </trkpt>
      <trkpt lat="44.56662" lon="-0.07509">
        <ele>10.71</ele>
        <time>2020-07-28T07:56:00Z</time>
      </trkpt>
      <trkpt lat="44.56663" lon="-0.07509">
        <ele>10.71</ele>
        <time>2020-07-28T07:56:24Z</time>
      </trkpt>
      <trkpt lat="44.56663" lon="-0.07509">
        <ele>10.71</ele>
        <time>2020-07-28T07:56:50Z</time>
      </trkpt>
      <trkpt lat="44.56663" lon="-0.0751">
        <ele>10.23</ele>
        <time>2020-07-28T07:57:13Z</time>
      </trkpt>
      <trkpt lat="44.56663" lon="-0.0751">
        <ele>10.23</ele>
        <time>2020-07-28T07:57:41Z</time>
      </trkpt>
      <trkpt lat="44.56664" lon="-0.0751">
        <ele>11.19</ele>
        <time>2020-07-28T07:58:00Z</time>
      </trkpt>
      <trkpt lat="44.56663" lon="-0.0751">
        <ele>11.19</ele>
        <time>2020-07-28T07:58:23Z</time>
      </trkpt>
      <trkpt lat="44.56661" lon="-0.07509">
        <ele>11.19</ele>
        <time>2020-07-28T07:58:52Z</time>
      </trkpt>
      <trkpt lat="44.56661" lon="-0.07511">
        <ele>11.19</ele>
        <time>2020-07-28T07:59:11Z</time>
      </trkpt>
      <trkpt lat="44.5666" lon="-0.07518">
        <ele>11.19</ele>
        <time>2020-07-28T07:59:28Z</time>
      </trkpt>
      <trkpt lat="44.56654" lon="-0.07543">
        <ele>11.19</ele>
        <time>2020-07-28T07:59:47Z</time>
      </trkpt>
      <trkpt lat="44.56651" lon="-0.07552">
        <ele>9.75</ele>
        <time>2020-07-28T07:59:53Z</time>
      </trkpt>
      <trkpt lat="44.56643" lon="-0.07583">
        <ele>11.19</ele>
        <time>2020-07-28T08:00:12Z</time>
      </trkpt>
      <trkpt lat="44.56641" lon="-0.07591">
        <ele>10.23</ele>
        <time>2020-07-28T08:00:17Z</time>
      </trkpt>
      <trkpt lat="44.56635" lon="-0.07618">
        <ele>9.75</ele>
        <time>2020-07-28T08:00:33Z</time>
      </trkpt>
      <trkpt lat="44.56629" lon="-0.07643">
        <ele>10.23</ele>
        <time>2020-07-28T08:00:50Z</time>
      </trkpt>
      <trkpt lat="44.56628" lon="-0.07649">
        <ele>9.75</ele>
        <time>2020-07-28T08:00:53Z</time>
      </trkpt>
      <trkpt lat="44.56622" lon="-0.07678">
        <ele>9.75</ele>
        <time>2020-07-28T08:01:11Z</time>
      </trkpt>
      <trkpt lat="44.5662" lon="-0.07705">
        <ele>9.75</ele>
        <time>2020-07-28T08:01:29Z</time>
      </trkpt>
      <trkpt lat="44.56616" lon="-0.07728">
        <ele>9.75</ele>
        <time>2020-07-28T08:01:45Z</time>
      </trkpt>
      <trkpt lat="44.56615" lon="-0.07744">
        <ele>10.71</ele>
        <time>2020-07-28T08:01:53Z</time>
      </trkpt>
      <trkpt lat="44.56614" lon="-0.07758">
        <ele>9.75</ele>
        <time>2020-07-28T08:02:01Z</time>
      </trkpt>
      <trkpt lat="44.56613" lon="-0.07788">
        <ele>10.71</ele>
        <time>2020-07-28T08:02:19Z</time>
      </trkpt>
      <trkpt lat="44.56612" lon="-0.0783">
        <ele>9.75</ele>
        <time>2020-07-28T08:02:41Z</time>
      </trkpt>
      <trkpt lat="44.56612" lon="-0.07863">
        <ele>10.71</ele>
        <time>2020-07-28T08:02:59Z</time>
      </trkpt>
      <trkpt lat="44.56613" lon="-0.07897">
        <ele>11.19</ele>
        <time>2020-07-28T08:03:20Z</time>
      </trkpt>
      <trkpt lat="44.56612" lon="-0.07901">
        <ele>9.75</ele>
        <time>2020-07-28T08:03:22Z</time>
      </trkpt>
      <trkpt lat="44.56614" lon="-0.07923">
        <ele>11.19</ele>
        <time>2020-07-28T08:03:34Z</time>
      </trkpt>
      <trkpt lat="44.56615" lon="-0.07933">
        <ele>9.75</ele>
        <time>2020-07-28T08:03:40Z</time>
      </trkpt>
      <trkpt lat="44.56615" lon="-0.07939">
        <ele>11.19</ele>
        <time>2020-07-28T08:03:44Z</time>
      </trkpt>
      <trkpt lat="44.56615" lon="-0.07953">
        <ele>9.75</ele>
        <time>2020-07-28T08:03:53Z</time>
      </trkpt>
      <trkpt lat="44.56615" lon="-0.07957">
        <ele>11.19</ele>
        <time>2020-07-28T08:03:55Z</time>
      </trkpt>
      <trkpt lat="44.56615" lon="-0.0797">
        <ele>9.75</ele>
        <time>2020-07-28T08:04:02Z</time>
      </trkpt>
      <trkpt lat="44.56615" lon="-0.07974">
        <ele>11.19</ele>
        <time>2020-07-28T08:04:04Z</time>
      </trkpt>
      <trkpt lat="44.56615" lon="-0.07991">
        <ele>11.19</ele>
        <time>2020-07-28T08:04:18Z</time>
      </trkpt>
      <trkpt lat="44.56614" lon="-0.08022">
        <ele>11.19</ele>
        <time>2020-07-28T08:04:36Z</time>
      </trkpt>
      <trkpt lat="44.56614" lon="-0.08026">
        <ele>10.71</ele>
        <time>2020-07-28T08:04:53Z</time>
      </trkpt>
      <trkpt lat="44.5662" lon="-0.08033">
        <ele>10.71</ele>
        <time>2020-07-28T08:05:12Z</time>
      </trkpt>
      <trkpt lat="44.56614" lon="-0.08021">
        <ele>9.75</ele>
        <time>2020-07-28T08:05:24Z</time>
      </trkpt>
      <trkpt lat="44.56615" lon="-0.08021">
        <ele>10.71</ele>
        <time>2020-07-28T08:05:36Z</time>
      </trkpt>
      <trkpt lat="44.56614" lon="-0.08032">
        <ele>11.19</ele>
        <time>2020-07-28T08:05:52Z</time>
      </trkpt>
      <trkpt lat="44.56607" lon="-0.08049">
        <ele>9.75</ele>
        <time>2020-07-28T08:06:05Z</time>
      </trkpt>
      <trkpt lat="44.56587" lon="-0.08071">
        <ele>8.79</ele>
        <time>2020-07-28T08:06:26Z</time>
      </trkpt>
      <trkpt lat="44.56575" lon="-0.08079">
        <ele>8.79</ele>
        <time>2020-07-28T08:06:44Z</time>
      </trkpt>
      <trkpt lat="44.56554" lon="-0.08089">
        <ele>8.79</ele>
        <time>2020-07-28T08:07:04Z</time>
      </trkpt>
      <trkpt lat="44.56536" lon="-0.08096">
        <ele>8.79</ele>
        <time>2020-07-28T08:07:22Z</time>
      </trkpt>
      <trkpt lat="44.56517" lon="-0.08105">
        <ele>9.75</ele>
        <time>2020-07-28T08:07:41Z</time>
      </trkpt>
      <trkpt lat="44.56507" lon="-0.08109">
        <ele>9.75</ele>
        <time>2020-07-28T08:07:58Z</time>
      </trkpt>
      <trkpt lat="44.565" lon="-0.08114">
        <ele>9.75</ele>
        <time>2020-07-28T08:08:16Z</time>
      </trkpt>
      <trkpt lat="44.56503" lon="-0.08112">
        <ele>9.75</ele>
        <time>2020-07-28T08:08:43Z</time>
      </trkpt>
      <trkpt lat="44.56501" lon="-0.08114">
        <ele>9.75</ele>
        <time>2020-07-28T08:09:12Z</time>
      </trkpt>
      <trkpt lat="44.56502" lon="-0.08108">
        <ele>9.75</ele>
        <time>2020-07-28T08:09:40Z</time>
      </trkpt>
      <trkpt lat="44.56501" lon="-0.08113">
        <ele>9.75</ele>
        <time>2020-07-28T08:10:03Z</time>
      </trkpt>
      <trkpt lat="44.56501" lon="-0.08113">
        <ele>9.75</ele>
        <time>2020-07-28T08:10:31Z</time>
      </trkpt>
      <trkpt lat="44.56482" lon="-0.08119">
        <ele>10.23</ele>
        <time>2020-07-28T08:10:49Z</time>
      </trkpt>
      <trkpt lat="44.5646" lon="-0.08126">
        <ele>8.79</ele>
        <time>2020-07-28T08:11:08Z</time>
      </trkpt>
      <trkpt lat="44.56436" lon="-0.08134">
        <ele>10.23</ele>
        <time>2020-07-28T08:11:26Z</time>
      </trkpt>
      <trkpt lat="44.56405" lon="-0.08144">
        <ele>10.23</ele>
        <time>2020-07-28T08:11:50Z</time>
      </trkpt>
      <trkpt lat="44.56373" lon="-0.08155">
        <ele>10.71</ele>
        <time>2020-07-28T08:12:14Z</time>
      </trkpt>
      <trkpt lat="44.56346" lon="-0.08163">
        <ele>10.71</ele>
        <time>2020-07-28T08:12:34Z</time>
      </trkpt>
      <trkpt lat="44.56324" lon="-0.08168">
        <ele>10.71</ele>
        <time>2020-07-28T08:12:53Z</time>
      </trkpt>
      <trkpt lat="44.563" lon="-0.08184">
        <ele>11.19</ele>
        <time>2020-07-28T08:13:11Z</time>
      </trkpt>
      <trkpt lat="44.56273" lon="-0.08201">
        <ele>11.19</ele>
        <time>2020-07-28T08:13:32Z</time>
      </trkpt>
      <trkpt lat="44.56245" lon="-0.08213">
        <ele>11.19</ele>
        <time>2020-07-28T08:13:55Z</time>
      </trkpt>
      <trkpt lat="44.56228" lon="-0.08225">
        <ele>11.67</ele>
        <time>2020-07-28T08:14:12Z</time>
      </trkpt>
      <trkpt lat="44.56217" lon="-0.08258">
        <ele>10.71</ele>
        <time>2020-07-28T08:14:30Z</time>
      </trkpt>
      <trkpt lat="44.56217" lon="-0.0827">
        <ele>10.23</ele>
        <time>2020-07-28T08:14:37Z</time>
      </trkpt>
      <trkpt lat="44.56218" lon="-0.08278">
        <ele>11.67</ele>
        <time>2020-07-28T08:14:42Z</time>
      </trkpt>
      <trkpt lat="44.56218" lon="-0.08283">
        <ele>11.67</ele>
        <time>2020-07-28T08:14:45Z</time>
      </trkpt>
      <trkpt lat="44.56224" lon="-0.08317">
        <ele>11.67</ele>
        <time>2020-07-28T08:15:05Z</time>
      </trkpt>
      <trkpt lat="44.56224" lon="-0.0832">
        <ele>10.23</ele>
        <time>2020-07-28T08:15:07Z</time>
      </trkpt>
      <trkpt lat="44.56225" lon="-0.08324">
        <ele>12.15</ele>
        <time>2020-07-28T08:15:09Z</time>
      </trkpt>
      <trkpt lat="44.56228" lon="-0.0834">
        <ele>10.71</ele>
        <time>2020-07-28T08:15:18Z</time>
      </trkpt>
      <trkpt lat="44.56231" lon="-0.08361">
        <ele>10.71</ele>
        <time>2020-07-28T08:15:29Z</time>
      </trkpt>
      <trkpt lat="44.56237" lon="-0.084">
        <ele>10.71</ele>
        <time>2020-07-28T08:15:50Z</time>
      </trkpt>
      <trkpt lat="44.5624" lon="-0.08445">
        <ele>11.67</ele>
        <time>2020-07-28T08:16:14Z</time>
      </trkpt>
      <trkpt lat="44.56242" lon="-0.08483">
        <ele>11.67</ele>
        <time>2020-07-28T08:16:33Z</time>
      </trkpt>
      <trkpt lat="44.56241" lon="-0.08508">
        <ele>11.67</ele>
        <time>2020-07-28T08:16:50Z</time>
      </trkpt>
      <trkpt lat="44.5624" lon="-0.08508">
        <ele>11.67</ele>
        <time>2020-07-28T08:16:51Z</time>
      </trkpt>
      <trkpt lat="44.56238" lon="-0.08511">
        <ele>10.23</ele>
        <time>2020-07-28T08:16:54Z</time>
      </trkpt>
      <trkpt lat="44.56236" lon="-0.08513">
        <ele>11.67</ele>
        <time>2020-07-28T08:16:56Z</time>
      </trkpt>
      <trkpt lat="44.56217" lon="-0.08544">
        <ele>10.23</ele>
        <time>2020-07-28T08:17:19Z</time>
      </trkpt>
      <trkpt lat="44.56215" lon="-0.08548">
        <ele>11.67</ele>
        <time>2020-07-28T08:17:22Z</time>
      </trkpt>
      <trkpt lat="44.56207" lon="-0.0856">
        <ele>10.23</ele>
        <time>2020-07-28T08:17:37Z</time>
      </trkpt>
      <trkpt lat="44.56196" lon="-0.08579">
        <ele>11.67</ele>
        <time>2020-07-28T08:17:54Z</time>
      </trkpt>
      <trkpt lat="44.56196" lon="-0.0858">
        <ele>11.67</ele>
        <time>2020-07-28T08:17:55Z</time>
      </trkpt>
      <trkpt lat="44.56191" lon="-0.08589">
        <ele>11.67</ele>
        <time>2020-07-28T08:18:07Z</time>
      </trkpt>
      <trkpt lat="44.56186" lon="-0.08603">
        <ele>11.67</ele>
        <time>2020-07-28T08:18:15Z</time>
      </trkpt>
      <trkpt lat="44.56184" lon="-0.08606">
        <ele>11.67</ele>
        <time>2020-07-28T08:18:18Z</time>
      </trkpt>
      <trkpt lat="44.56171" lon="-0.08628">
        <ele>11.67</ele>
        <time>2020-07-28T08:18:35Z</time>
      </trkpt>
      <trkpt lat="44.56159" lon="-0.08652">
        <ele>11.67</ele>
        <time>2020-07-28T08:18:52Z</time>
      </trkpt>
      <trkpt lat="44.56152" lon="-0.08669">
        <ele>10.23</ele>
        <time>2020-07-28T08:19:04Z</time>
      </trkpt>
      <trkpt lat="44.56149" lon="-0.08673">
        <ele>11.67</ele>
        <time>2020-07-28T08:19:07Z</time>
      </trkpt>
      <trkpt lat="44.56138" lon="-0.08698">
        <ele>10.71</ele>
        <time>2020-07-28T08:19:24Z</time>
      </trkpt>
      <trkpt lat="44.56121" lon="-0.0873">
        <ele>11.67</ele>
        <time>2020-07-28T08:19:45Z</time>
      </trkpt>
      <trkpt lat="44.56111" lon="-0.08745">
        <ele>11.67</ele>
        <time>2020-07-28T08:20:00Z</time>
      </trkpt>
      <trkpt lat="44.56107" lon="-0.08749">
        <ele>10.71</ele>
        <time>2020-07-28T08:20:04Z</time>
      </trkpt>
      <trkpt lat="44.56105" lon="-0.08751">
        <ele>12.15</ele>
        <time>2020-07-28T08:20:06Z</time>
      </trkpt>
      <trkpt lat="44.56101" lon="-0.08755">
        <ele>10.71</ele>
        <time>2020-07-28T08:20:10Z</time>
      </trkpt>
      <trkpt lat="44.56098" lon="-0.08758">
        <ele>12.15</ele>
        <time>2020-07-28T08:20:13Z</time>
      </trkpt>
      <trkpt lat="44.56092" lon="-0.08762">
        <ele>10.71</ele>
        <time>2020-07-28T08:20:19Z</time>
      </trkpt>
      <trkpt lat="44.5609" lon="-0.08764">
        <ele>12.15</ele>
        <time>2020-07-28T08:20:21Z</time>
      </trkpt>
      <trkpt lat="44.56076" lon="-0.08774">
        <ele>12.63</ele>
        <time>2020-07-28T08:20:38Z</time>
      </trkpt>
      <trkpt lat="44.5606" lon="-0.08786">
        <ele>12.63</ele>
        <time>2020-07-28T08:20:56Z</time>
      </trkpt>
      <trkpt lat="44.56057" lon="-0.08793">
        <ele>13.12</ele>
        <time>2020-07-28T08:21:01Z</time>
      </trkpt>
      <trkpt lat="44.56054" lon="-0.08816">
        <ele>13.6</ele>
        <time>2020-07-28T08:21:16Z</time>
      </trkpt>
      <trkpt lat="44.56056" lon="-0.08843">
        <ele>14.08</ele>
        <time>2020-07-28T08:21:33Z</time>
      </trkpt>
      <trkpt lat="44.56056" lon="-0.08848">
        <ele>13.12</ele>
        <time>2020-07-28T08:21:37Z</time>
      </trkpt>
      <trkpt lat="44.5605" lon="-0.08876">
        <ele>13.12</ele>
        <time>2020-07-28T08:21:58Z</time>
      </trkpt>
      <trkpt lat="44.5605" lon="-0.08878">
        <ele>13.12</ele>
        <time>2020-07-28T08:21:59Z</time>
      </trkpt>
      <trkpt lat="44.56049" lon="-0.08882">
        <ele>13.12</ele>
        <time>2020-07-28T08:22:01Z</time>
      </trkpt>
      <trkpt lat="44.56042" lon="-0.08898">
        <ele>13.12</ele>
        <time>2020-07-28T08:22:19Z</time>
      </trkpt>
      <trkpt lat="44.56041" lon="-0.08895">
        <ele>12.63</ele>
        <time>2020-07-28T08:22:56Z</time>
      </trkpt>
      <trkpt lat="44.56042" lon="-0.08897">
        <ele>12.63</ele>
        <time>2020-07-28T08:23:21Z</time>
      </trkpt>
      <trkpt lat="44.56033" lon="-0.08903">
        <ele>12.63</ele>
        <time>2020-07-28T08:23:42Z</time>
      </trkpt>
      <trkpt lat="44.56034" lon="-0.08905">
        <ele>12.63</ele>
        <time>2020-07-28T08:24:02Z</time>
      </trkpt>
      <trkpt lat="44.56035" lon="-0.08906">
        <ele>12.15</ele>
        <time>2020-07-28T08:24:36Z</time>
      </trkpt>
      <trkpt lat="44.56009" lon="-0.08926">
        <ele>11.67</ele>
        <time>2020-07-28T08:24:59Z</time>
      </trkpt>
      <trkpt lat="44.55991" lon="-0.08948">
        <ele>11.67</ele>
        <time>2020-07-28T08:25:18Z</time>
      </trkpt>
      <trkpt lat="44.55972" lon="-0.08966">
        <ele>11.67</ele>
        <time>2020-07-28T08:25:34Z</time>
      </trkpt>
      <trkpt lat="44.55966" lon="-0.08963">
        <ele>11.67</ele>
        <time>2020-07-28T08:25:52Z</time>
      </trkpt>
      <trkpt lat="44.55968" lon="-0.08969">
        <ele>13.12</ele>
        <time>2020-07-28T08:25:56Z</time>
      </trkpt>
      <trkpt lat="44.55964" lon="-0.08972">
        <ele>13.12</ele>
        <time>2020-07-28T08:26:14Z</time>
      </trkpt>
      <trkpt lat="44.55952" lon="-0.08972">
        <ele>13.12</ele>
        <time>2020-07-28T08:26:31Z</time>
      </trkpt>
      <trkpt lat="44.55951" lon="-0.08978">
        <ele>13.12</ele>
        <time>2020-07-28T08:26:48Z</time>
      </trkpt>
      <trkpt lat="44.55944" lon="-0.08975">
        <ele>13.12</ele>
        <time>2020-07-28T08:27:05Z</time>
      </trkpt>
      <trkpt lat="44.55932" lon="-0.0897">
        <ele>13.12</ele>
        <time>2020-07-28T08:27:23Z</time>
      </trkpt>
      <trkpt lat="44.55922" lon="-0.08976">
        <ele>13.12</ele>
        <time>2020-07-28T08:27:42Z</time>
      </trkpt>
      <trkpt lat="44.55915" lon="-0.08971">
        <ele>11.67</ele>
        <time>2020-07-28T08:27:59Z</time>
      </trkpt>
      <trkpt lat="44.55892" lon="-0.08972">
        <ele>11.67</ele>
        <time>2020-07-28T08:28:18Z</time>
      </trkpt>
      <trkpt lat="44.5587" lon="-0.0897">
        <ele>11.67</ele>
        <time>2020-07-28T08:28:38Z</time>
      </trkpt>
      <trkpt lat="44.55866" lon="-0.08969">
        <ele>11.67</ele>
        <time>2020-07-28T08:28:41Z</time>
      </trkpt>
      <trkpt lat="44.55842" lon="-0.08968">
        <ele>11.67</ele>
        <time>2020-07-28T08:29:02Z</time>
      </trkpt>
      <trkpt lat="44.55819" lon="-0.08964">
        <ele>11.67</ele>
        <time>2020-07-28T08:29:23Z</time>
      </trkpt>
      <trkpt lat="44.55803" lon="-0.08965">
        <ele>12.63</ele>
        <time>2020-07-28T08:29:38Z</time>
      </trkpt>
      <trkpt lat="44.55779" lon="-0.08965">
        <ele>12.63</ele>
        <time>2020-07-28T08:30:00Z</time>
      </trkpt>
      <trkpt lat="44.55761" lon="-0.08969">
        <ele>12.63</ele>
        <time>2020-07-28T08:30:20Z</time>
      </trkpt>
      <trkpt lat="44.5574" lon="-0.08973">
        <ele>12.63</ele>
        <time>2020-07-28T08:30:39Z</time>
      </trkpt>
      <trkpt lat="44.55722" lon="-0.08974">
        <ele>12.63</ele>
        <time>2020-07-28T08:30:57Z</time>
      </trkpt>
      <trkpt lat="44.55696" lon="-0.08976">
        <ele>12.63</ele>
        <time>2020-07-28T08:31:19Z</time>
      </trkpt>
      <trkpt lat="44.55678" lon="-0.08974">
        <ele>12.63</ele>
        <time>2020-07-28T08:31:36Z</time>
      </trkpt>
      <trkpt lat="44.55661" lon="-0.08974">
        <ele>12.63</ele>
        <time>2020-07-28T08:31:55Z</time>
      </trkpt>
      <trkpt lat="44.55644" lon="-0.08974">
        <ele>12.63</ele>
        <time>2020-07-28T08:32:14Z</time>
      </trkpt>
      <trkpt lat="44.55619" lon="-0.08971">
        <ele>13.12</ele>
        <time>2020-07-28T08:32:36Z</time>
      </trkpt>
      <trkpt lat="44.55599" lon="-0.08964">
        <ele>13.12</ele>
        <time>2020-07-28T08:32:54Z</time>
      </trkpt>
      <trkpt lat="44.55581" lon="-0.08954">
        <ele>13.6</ele>
        <time>2020-07-28T08:33:12Z</time>
      </trkpt>
      <trkpt lat="44.55561" lon="-0.08943">
        <ele>14.08</ele>
        <time>2020-07-28T08:33:29Z</time>
      </trkpt>
      <trkpt lat="44.55545" lon="-0.08943">
        <ele>14.08</ele>
        <time>2020-07-28T08:33:44Z</time>
      </trkpt>
      <trkpt lat="44.55524" lon="-0.08939">
        <ele>15.52</ele>
        <time>2020-07-28T08:34:04Z</time>
      </trkpt>
      <trkpt lat="44.555" lon="-0.08938">
        <ele>16.96</ele>
        <time>2020-07-28T08:34:25Z</time>
      </trkpt>
      <trkpt lat="44.55491" lon="-0.08929">
        <ele>17.92</ele>
        <time>2020-07-28T08:34:41Z</time>
      </trkpt>
      <trkpt lat="44.55486" lon="-0.08928">
        <ele>17.92</ele>
        <time>2020-07-28T08:35:06Z</time>
      </trkpt>
      <trkpt lat="44.55487" lon="-0.08928">
        <ele>17.92</ele>
        <time>2020-07-28T08:35:29Z</time>
      </trkpt>
      <trkpt lat="44.55489" lon="-0.08928">
        <ele>17.92</ele>
        <time>2020-07-28T08:36:00Z</time>
      </trkpt>
      <trkpt lat="44.55487" lon="-0.08926">
        <ele>17.92</ele>
        <time>2020-07-28T08:36:31Z</time>
      </trkpt>
      <trkpt lat="44.55487" lon="-0.08923">
        <ele>18.4</ele>
        <time>2020-07-28T08:37:12Z</time>
      </trkpt>
      <trkpt lat="44.55487" lon="-0.08926">
        <ele>18.4</ele>
        <time>2020-07-28T08:37:42Z</time>
      </trkpt>
      <trkpt lat="44.55495" lon="-0.08924">
        <ele>18.4</ele>
        <time>2020-07-28T08:38:06Z</time>
      </trkpt>
      <trkpt lat="44.55492" lon="-0.08928">
        <ele>18.4</ele>
        <time>2020-07-28T08:38:33Z</time>
      </trkpt>
      <trkpt lat="44.5548" lon="-0.08928">
        <ele>18.4</ele>
        <time>2020-07-28T08:38:58Z</time>
      </trkpt>
      <trkpt lat="44.55472" lon="-0.08933">
        <ele>16.96</ele>
        <time>2020-07-28T08:39:08Z</time>
      </trkpt>
      <trkpt lat="44.5547" lon="-0.08935">
        <ele>16.48</ele>
        <time>2020-07-28T08:39:23Z</time>
      </trkpt>
      <trkpt lat="44.5547" lon="-0.08943">
        <ele>16.48</ele>
        <time>2020-07-28T08:39:48Z</time>
      </trkpt>
      <trkpt lat="44.55472" lon="-0.08947">
        <ele>16.48</ele>
        <time>2020-07-28T08:40:06Z</time>
      </trkpt>
      <trkpt lat="44.55472" lon="-0.08934">
        <ele>16</ele>
        <time>2020-07-28T08:40:28Z</time>
      </trkpt>
      <trkpt lat="44.55486" lon="-0.0893">
        <ele>16.96</ele>
        <time>2020-07-28T08:40:43Z</time>
      </trkpt>
      <trkpt lat="44.55489" lon="-0.08931">
        <ele>16.96</ele>
        <time>2020-07-28T08:40:46Z</time>
      </trkpt>
      <trkpt lat="44.55498" lon="-0.08924">
        <ele>16</ele>
        <time>2020-07-28T08:41:02Z</time>
      </trkpt>
      <trkpt lat="44.55496" lon="-0.08903">
        <ele>15.52</ele>
        <time>2020-07-28T08:41:20Z</time>
      </trkpt>
      <trkpt lat="44.55499" lon="-0.0887">
        <ele>15.04</ele>
        <time>2020-07-28T08:41:44Z</time>
      </trkpt>
      <trkpt lat="44.55497" lon="-0.08872">
        <ele>15.04</ele>
        <time>2020-07-28T08:42:03Z</time>
      </trkpt>
      <trkpt lat="44.55503" lon="-0.08875">
        <ele>15.04</ele>
        <time>2020-07-28T08:42:27Z</time>
      </trkpt>
      <trkpt lat="44.555" lon="-0.08871">
        <ele>15.04</ele>
        <time>2020-07-28T08:42:50Z</time>
      </trkpt>
      <trkpt lat="44.55502" lon="-0.08872">
        <ele>15.04</ele>
        <time>2020-07-28T08:43:19Z</time>
      </trkpt>
      <trkpt lat="44.55505" lon="-0.08875">
        <ele>15.04</ele>
        <time>2020-07-28T08:43:45Z</time>
      </trkpt>
      <trkpt lat="44.5552" lon="-0.08874">
        <ele>15.04</ele>
        <time>2020-07-28T08:44:03Z</time>
      </trkpt>
      <trkpt lat="44.55521" lon="-0.08867">
        <ele>15.04</ele>
        <time>2020-07-28T08:44:22Z</time>
      </trkpt>
      <trkpt lat="44.55506" lon="-0.08866">
        <ele>15.04</ele>
        <time>2020-07-28T08:44:44Z</time>
      </trkpt>
      <trkpt lat="44.55509" lon="-0.08877">
        <ele>15.04</ele>
        <time>2020-07-28T08:45:07Z</time>
      </trkpt>
      <trkpt lat="44.55507" lon="-0.08872">
        <ele>15.04</ele>
        <time>2020-07-28T08:45:31Z</time>
      </trkpt>
      <trkpt lat="44.55506" lon="-0.0887">
        <ele>15.04</ele>
        <time>2020-07-28T08:45:58Z</time>
      </trkpt>
      <trkpt lat="44.55515" lon="-0.08866">
        <ele>15.04</ele>
        <time>2020-07-28T08:46:22Z</time>
      </trkpt>
      <trkpt lat="44.55507" lon="-0.08867">
        <ele>15.04</ele>
        <time>2020-07-28T08:46:44Z</time>
      </trkpt>
      <trkpt lat="44.55501" lon="-0.08864">
        <ele>15.04</ele>
        <time>2020-07-28T08:47:08Z</time>
      </trkpt>
      <trkpt lat="44.555" lon="-0.08871">
        <ele>16.48</ele>
        <time>2020-07-28T08:47:21Z</time>
      </trkpt>
      <trkpt lat="44.55498" lon="-0.08871">
        <ele>15.52</ele>
        <time>2020-07-28T08:47:40Z</time>
      </trkpt>
      <trkpt lat="44.55499" lon="-0.08885">
        <ele>15.52</ele>
        <time>2020-07-28T08:48:01Z</time>
      </trkpt>
      <trkpt lat="44.55504" lon="-0.08871">
        <ele>15.52</ele>
        <time>2020-07-28T08:48:21Z</time>
      </trkpt>
      <trkpt lat="44.55506" lon="-0.08869">
        <ele>15.52</ele>
        <time>2020-07-28T08:48:34Z</time>
      </trkpt>
      <trkpt lat="44.55513" lon="-0.08857">
        <ele>14.56</ele>
        <time>2020-07-28T08:49:00Z</time>
      </trkpt>
      <trkpt lat="44.55505" lon="-0.08862">
        <ele>14.56</ele>
        <time>2020-07-28T08:49:24Z</time>
      </trkpt>
      <trkpt lat="44.55514" lon="-0.0886">
        <ele>14.56</ele>
        <time>2020-07-28T08:49:45Z</time>
      </trkpt>
      <trkpt lat="44.55514" lon="-0.08861">
        <ele>14.56</ele>
        <time>2020-07-28T08:50:10Z</time>
      </trkpt>
      <trkpt lat="44.55515" lon="-0.08858">
        <ele>14.56</ele>
        <time>2020-07-28T08:50:30Z</time>
      </trkpt>
      <trkpt lat="44.5551" lon="-0.08865">
        <ele>14.56</ele>
        <time>2020-07-28T08:50:51Z</time>
      </trkpt>
      <trkpt lat="44.55505" lon="-0.08862">
        <ele>14.56</ele>
        <time>2020-07-28T08:51:14Z</time>
      </trkpt>
      <trkpt lat="44.55507" lon="-0.08862">
        <ele>14.56</ele>
        <time>2020-07-28T08:51:33Z</time>
      </trkpt>
      <trkpt lat="44.55505" lon="-0.08869">
        <ele>14.56</ele>
        <time>2020-07-28T08:51:58Z</time>
      </trkpt>
      <trkpt lat="44.5551" lon="-0.08868">
        <ele>14.56</ele>
        <time>2020-07-28T08:52:22Z</time>
      </trkpt>
      <trkpt lat="44.55516" lon="-0.0886">
        <ele>14.56</ele>
        <time>2020-07-28T08:52:49Z</time>
      </trkpt>
      <trkpt lat="44.55516" lon="-0.08862">
        <ele>14.56</ele>
        <time>2020-07-28T08:53:13Z</time>
      </trkpt>
      <trkpt lat="44.5551" lon="-0.08865">
        <ele>15.52</ele>
        <time>2020-07-28T08:53:38Z</time>
      </trkpt>
      <trkpt lat="44.555" lon="-0.08874">
        <ele>15.04</ele>
        <time>2020-07-28T08:54:00Z</time>
      </trkpt>
      <trkpt lat="44.55504" lon="-0.08872">
        <ele>15.04</ele>
        <time>2020-07-28T08:54:20Z</time>
      </trkpt>
      <trkpt lat="44.55502" lon="-0.08872">
        <ele>15.04</ele>
        <time>2020-07-28T08:54:41Z</time>
      </trkpt>
      <trkpt lat="44.55499" lon="-0.08872">
        <ele>15.04</ele>
        <time>2020-07-28T08:55:06Z</time>
      </trkpt>
      <trkpt lat="44.55496" lon="-0.08879">
        <ele>15.04</ele>
        <time>2020-07-28T08:55:13Z</time>
      </trkpt>
      <trkpt lat="44.55493" lon="-0.08897">
        <ele>15.04</ele>
        <time>2020-07-28T08:55:24Z</time>
      </trkpt>
      <trkpt lat="44.55499" lon="-0.08924">
        <ele>15.04</ele>
        <time>2020-07-28T08:55:44Z</time>
      </trkpt>
      <trkpt lat="44.5549" lon="-0.08935">
        <ele>16.48</ele>
        <time>2020-07-28T08:55:57Z</time>
      </trkpt>
      <trkpt lat="44.55473" lon="-0.08935">
        <ele>16.48</ele>
        <time>2020-07-28T08:56:14Z</time>
      </trkpt>
      <trkpt lat="44.55471" lon="-0.08942">
        <ele>15.52</ele>
        <time>2020-07-28T08:56:19Z</time>
      </trkpt>
      <trkpt lat="44.55471" lon="-0.08947">
        <ele>15.52</ele>
        <time>2020-07-28T08:56:22Z</time>
      </trkpt>
      <trkpt lat="44.55469" lon="-0.08956">
        <ele>14.56</ele>
        <time>2020-07-28T08:56:41Z</time>
      </trkpt>
      <trkpt lat="44.55467" lon="-0.08977">
        <ele>14.08</ele>
        <time>2020-07-28T08:57:07Z</time>
      </trkpt>
      <trkpt lat="44.55466" lon="-0.09003">
        <ele>14.56</ele>
        <time>2020-07-28T08:57:23Z</time>
      </trkpt>
      <trkpt lat="44.55464" lon="-0.09046">
        <ele>13.6</ele>
        <time>2020-07-28T08:57:45Z</time>
      </trkpt>
      <trkpt lat="44.55461" lon="-0.09074">
        <ele>15.04</ele>
        <time>2020-07-28T08:58:01Z</time>
      </trkpt>
      <trkpt lat="44.5546" lon="-0.09093">
        <ele>13.6</ele>
        <time>2020-07-28T08:58:12Z</time>
      </trkpt>
      <trkpt lat="44.55458" lon="-0.09134">
        <ele>14.56</ele>
        <time>2020-07-28T08:58:35Z</time>
      </trkpt>
      <trkpt lat="44.55455" lon="-0.09167">
        <ele>14.56</ele>
        <time>2020-07-28T08:58:53Z</time>
      </trkpt>
      <trkpt lat="44.55456" lon="-0.09169">
        <ele>14.56</ele>
        <time>2020-07-28T08:58:54Z</time>
      </trkpt>
      <trkpt lat="44.55456" lon="-0.09176">
        <ele>13.12</ele>
        <time>2020-07-28T08:58:58Z</time>
      </trkpt>
      <trkpt lat="44.55456" lon="-0.09195">
        <ele>13.12</ele>
        <time>2020-07-28T08:59:09Z</time>
      </trkpt>
      <trkpt lat="44.55454" lon="-0.09195">
        <ele>13.12</ele>
        <time>2020-07-28T08:59:26Z</time>
      </trkpt>
      <trkpt lat="44.55457" lon="-0.09187">
        <ele>13.12</ele>
        <time>2020-07-28T08:59:48Z</time>
      </trkpt>
      <trkpt lat="44.55456" lon="-0.09166">
        <ele>13.12</ele>
        <time>2020-07-28T09:00:08Z</time>
      </trkpt>
      <trkpt lat="44.55458" lon="-0.09167">
        <ele>13.12</ele>
        <time>2020-07-28T09:00:32Z</time>
      </trkpt>
      <trkpt lat="44.55455" lon="-0.09173">
        <ele>14.08</ele>
        <time>2020-07-28T09:00:58Z</time>
      </trkpt>
      <trkpt lat="44.55454" lon="-0.092">
        <ele>14.08</ele>
        <time>2020-07-28T09:01:14Z</time>
      </trkpt>
      <trkpt lat="44.55454" lon="-0.0923">
        <ele>14.08</ele>
        <time>2020-07-28T09:01:34Z</time>
      </trkpt>
      <trkpt lat="44.55454" lon="-0.09231">
        <ele>14.08</ele>
        <time>2020-07-28T09:01:35Z</time>
      </trkpt>
      <trkpt lat="44.55452" lon="-0.09265">
        <ele>14.08</ele>
        <time>2020-07-28T09:01:54Z</time>
      </trkpt>
      <trkpt lat="44.55452" lon="-0.09281">
        <ele>12.63</ele>
        <time>2020-07-28T09:02:03Z</time>
      </trkpt>
      <trkpt lat="44.55451" lon="-0.09287">
        <ele>14.08</ele>
        <time>2020-07-28T09:02:07Z</time>
      </trkpt>
      <trkpt lat="44.55449" lon="-0.09294">
        <ele>12.63</ele>
        <time>2020-07-28T09:02:12Z</time>
      </trkpt>
      <trkpt lat="44.55449" lon="-0.09298">
        <ele>14.08</ele>
        <time>2020-07-28T09:02:14Z</time>
      </trkpt>
      <trkpt lat="44.55449" lon="-0.09319">
        <ele>12.63</ele>
        <time>2020-07-28T09:02:26Z</time>
      </trkpt>
      <trkpt lat="44.5545" lon="-0.09323">
        <ele>14.08</ele>
        <time>2020-07-28T09:02:29Z</time>
      </trkpt>
      <trkpt lat="44.55448" lon="-0.09339">
        <ele>14.08</ele>
        <time>2020-07-28T09:02:45Z</time>
      </trkpt>
      <trkpt lat="44.55448" lon="-0.09347">
        <ele>14.08</ele>
        <time>2020-07-28T09:03:02Z</time>
      </trkpt>
      <trkpt lat="44.55445" lon="-0.0937">
        <ele>12.63</ele>
        <time>2020-07-28T09:03:17Z</time>
      </trkpt>
      <trkpt lat="44.55445" lon="-0.09373">
        <ele>14.08</ele>
        <time>2020-07-28T09:03:19Z</time>
      </trkpt>
      <trkpt lat="44.55445" lon="-0.09404">
        <ele>14.08</ele>
        <time>2020-07-28T09:03:36Z</time>
      </trkpt>
      <trkpt lat="44.55442" lon="-0.09426">
        <ele>12.63</ele>
        <time>2020-07-28T09:03:49Z</time>
      </trkpt>
      <trkpt lat="44.55442" lon="-0.09429">
        <ele>14.08</ele>
        <time>2020-07-28T09:03:51Z</time>
      </trkpt>
      <trkpt lat="44.5544" lon="-0.09456">
        <ele>14.08</ele>
        <time>2020-07-28T09:04:06Z</time>
      </trkpt>
      <trkpt lat="44.55438" lon="-0.0949">
        <ele>14.08</ele>
        <time>2020-07-28T09:04:27Z</time>
      </trkpt>
      <trkpt lat="44.55437" lon="-0.09495">
        <ele>12.63</ele>
        <time>2020-07-28T09:04:40Z</time>
      </trkpt>
      <trkpt lat="44.55441" lon="-0.09494">
        <ele>12.63</ele>
        <time>2020-07-28T09:05:02Z</time>
      </trkpt>
      <trkpt lat="44.55439" lon="-0.09491">
        <ele>14.08</ele>
        <time>2020-07-28T09:05:26Z</time>
      </trkpt>
      <trkpt lat="44.55438" lon="-0.09495">
        <ele>14.08</ele>
        <time>2020-07-28T09:05:47Z</time>
      </trkpt>
      <trkpt lat="44.55437" lon="-0.09499">
        <ele>14.08</ele>
        <time>2020-07-28T09:06:08Z</time>
      </trkpt>
      <trkpt lat="44.55437" lon="-0.09512">
        <ele>14.08</ele>
        <time>2020-07-28T09:06:25Z</time>
      </trkpt>
      <trkpt lat="44.55439" lon="-0.09532">
        <ele>14.56</ele>
        <time>2020-07-28T09:06:45Z</time>
      </trkpt>
      <trkpt lat="44.55437" lon="-0.09563">
        <ele>14.08</ele>
        <time>2020-07-28T09:07:03Z</time>
      </trkpt>
      <trkpt lat="44.55433" lon="-0.09599">
        <ele>14.08</ele>
        <time>2020-07-28T09:07:23Z</time>
      </trkpt>
      <trkpt lat="44.55434" lon="-0.09609">
        <ele>13.12</ele>
        <time>2020-07-28T09:07:30Z</time>
      </trkpt>
      <trkpt lat="44.55434" lon="-0.09612">
        <ele>15.04</ele>
        <time>2020-07-28T09:07:32Z</time>
      </trkpt>
      <trkpt lat="44.55435" lon="-0.09621">
        <ele>13.6</ele>
        <time>2020-07-28T09:07:38Z</time>
      </trkpt>
      <trkpt lat="44.55433" lon="-0.09665">
        <ele>14.08</ele>
        <time>2020-07-28T09:07:59Z</time>
      </trkpt>
      <trkpt lat="44.5543" lon="-0.09701">
        <ele>13.6</ele>
        <time>2020-07-28T09:08:18Z</time>
      </trkpt>
      <trkpt lat="44.5543" lon="-0.09721">
        <ele>13.6</ele>
        <time>2020-07-28T09:08:29Z</time>
      </trkpt>
      <trkpt lat="44.55431" lon="-0.09733">
        <ele>13.6</ele>
        <time>2020-07-28T09:08:37Z</time>
      </trkpt>
      <trkpt lat="44.55426" lon="-0.09768">
        <ele>13.6</ele>
        <time>2020-07-28T09:08:54Z</time>
      </trkpt>
      <trkpt lat="44.55425" lon="-0.09772">
        <ele>13.6</ele>
        <time>2020-07-28T09:09:16Z</time>
      </trkpt>
      <trkpt lat="44.5542" lon="-0.09773">
        <ele>13.12</ele>
        <time>2020-07-28T09:09:49Z</time>
      </trkpt>
      <trkpt lat="44.55422" lon="-0.09777">
        <ele>13.12</ele>
        <time>2020-07-28T09:09:52Z</time>
      </trkpt>
      <trkpt lat="44.55427" lon="-0.09805">
        <ele>12.63</ele>
        <time>2020-07-28T09:10:08Z</time>
      </trkpt>
      <trkpt lat="44.55426" lon="-0.0981">
        <ele>13.6</ele>
        <time>2020-07-28T09:10:12Z</time>
      </trkpt>
      <trkpt lat="44.55424" lon="-0.09838">
        <ele>14.08</ele>
        <time>2020-07-28T09:10:29Z</time>
      </trkpt>
      <trkpt lat="44.55424" lon="-0.09843">
        <ele>14.08</ele>
        <time>2020-07-28T09:10:32Z</time>
      </trkpt>
      <trkpt lat="44.55429" lon="-0.0988">
        <ele>13.6</ele>
        <time>2020-07-28T09:10:52Z</time>
      </trkpt>
      <trkpt lat="44.55429" lon="-0.09911">
        <ele>14.08</ele>
        <time>2020-07-28T09:11:07Z</time>
      </trkpt>
      <trkpt lat="44.5543" lon="-0.09943">
        <ele>14.08</ele>
        <time>2020-07-28T09:11:26Z</time>
      </trkpt>
      <trkpt lat="44.5543" lon="-0.09946">
        <ele>12.63</ele>
        <time>2020-07-28T09:11:28Z</time>
      </trkpt>
      <trkpt lat="44.55431" lon="-0.0995">
        <ele>14.08</ele>
        <time>2020-07-28T09:11:30Z</time>
      </trkpt>
      <trkpt lat="44.55436" lon="-0.09986">
        <ele>14.08</ele>
        <time>2020-07-28T09:11:48Z</time>
      </trkpt>
      <trkpt lat="44.55441" lon="-0.10017">
        <ele>14.56</ele>
        <time>2020-07-28T09:12:04Z</time>
      </trkpt>
      <trkpt lat="44.55446" lon="-0.10041">
        <ele>12.63</ele>
        <time>2020-07-28T09:12:15Z</time>
      </trkpt>
      <trkpt lat="44.55446" lon="-0.10044">
        <ele>14.08</ele>
        <time>2020-07-28T09:12:17Z</time>
      </trkpt>
      <trkpt lat="44.55449" lon="-0.10074">
        <ele>14.08</ele>
        <time>2020-07-28T09:12:35Z</time>
      </trkpt>
      <trkpt lat="44.55456" lon="-0.101">
        <ele>12.15</ele>
        <time>2020-07-28T09:12:47Z</time>
      </trkpt>
      <trkpt lat="44.55462" lon="-0.10121">
        <ele>14.56</ele>
        <time>2020-07-28T09:13:00Z</time>
      </trkpt>
      <trkpt lat="44.55471" lon="-0.10146">
        <ele>13.12</ele>
        <time>2020-07-28T09:13:15Z</time>
      </trkpt>
      <trkpt lat="44.55474" lon="-0.10185">
        <ele>13.12</ele>
        <time>2020-07-28T09:13:36Z</time>
      </trkpt>
      <trkpt lat="44.55475" lon="-0.10188">
        <ele>13.12</ele>
        <time>2020-07-28T09:13:37Z</time>
      </trkpt>
      <trkpt lat="44.55481" lon="-0.10221">
        <ele>16</ele>
        <time>2020-07-28T09:13:59Z</time>
      </trkpt>
      <trkpt lat="44.55496" lon="-0.10235">
        <ele>16.48</ele>
        <time>2020-07-28T09:14:11Z</time>
      </trkpt>
      <trkpt lat="44.55504" lon="-0.10231">
        <ele>16.96</ele>
        <time>2020-07-28T09:14:29Z</time>
      </trkpt>
      <trkpt lat="44.55504" lon="-0.10228">
        <ele>16.96</ele>
        <time>2020-07-28T09:14:54Z</time>
      </trkpt>
      <trkpt lat="44.55497" lon="-0.10224">
        <ele>16.96</ele>
        <time>2020-07-28T09:15:22Z</time>
      </trkpt>
      <trkpt lat="44.55502" lon="-0.10225">
        <ele>16.96</ele>
        <time>2020-07-28T09:15:43Z</time>
      </trkpt>
      <trkpt lat="44.55503" lon="-0.10229">
        <ele>17.44</ele>
        <time>2020-07-28T09:16:13Z</time>
      </trkpt>
      <trkpt lat="44.55509" lon="-0.10226">
        <ele>17.44</ele>
        <time>2020-07-28T09:16:36Z</time>
      </trkpt>
      <trkpt lat="44.5552" lon="-0.10232">
        <ele>16</ele>
        <time>2020-07-28T09:16:51Z</time>
      </trkpt>
      <trkpt lat="44.55523" lon="-0.10263">
        <ele>15.04</ele>
        <time>2020-07-28T09:17:08Z</time>
      </trkpt>
      <trkpt lat="44.55532" lon="-0.10295">
        <ele>14.56</ele>
        <time>2020-07-28T09:17:27Z</time>
      </trkpt>
      <trkpt lat="44.55547" lon="-0.10322">
        <ele>14.08</ele>
        <time>2020-07-28T09:17:48Z</time>
      </trkpt>
      <trkpt lat="44.55562" lon="-0.10336">
        <ele>14.08</ele>
        <time>2020-07-28T09:18:03Z</time>
      </trkpt>
      <trkpt lat="44.55566" lon="-0.1035">
        <ele>14.08</ele>
        <time>2020-07-28T09:18:14Z</time>
      </trkpt>
      <trkpt lat="44.55569" lon="-0.10354">
        <ele>14.08</ele>
        <time>2020-07-28T09:18:18Z</time>
      </trkpt>
      <trkpt lat="44.55585" lon="-0.10387">
        <ele>14.08</ele>
        <time>2020-07-28T09:18:37Z</time>
      </trkpt>
      <trkpt lat="44.55596" lon="-0.10404">
        <ele>14.08</ele>
        <time>2020-07-28T09:18:57Z</time>
      </trkpt>
      <trkpt lat="44.55597" lon="-0.10407">
        <ele>14.08</ele>
        <time>2020-07-28T09:19:01Z</time>
      </trkpt>
      <trkpt lat="44.55609" lon="-0.10437">
        <ele>14.08</ele>
        <time>2020-07-28T09:19:21Z</time>
      </trkpt>
      <trkpt lat="44.55619" lon="-0.10465">
        <ele>14.08</ele>
        <time>2020-07-28T09:19:39Z</time>
      </trkpt>
      <trkpt lat="44.55618" lon="-0.10478">
        <ele>15.52</ele>
        <time>2020-07-28T09:19:57Z</time>
      </trkpt>
      <trkpt lat="44.55634" lon="-0.10512">
        <ele>15.52</ele>
        <time>2020-07-28T09:20:16Z</time>
      </trkpt>
      <trkpt lat="44.55643" lon="-0.10527">
        <ele>15.52</ele>
        <time>2020-07-28T09:20:26Z</time>
      </trkpt>
      <trkpt lat="44.55665" lon="-0.10557">
        <ele>15.52</ele>
        <time>2020-07-28T09:20:47Z</time>
      </trkpt>
      <trkpt lat="44.55677" lon="-0.10577">
        <ele>14.56</ele>
        <time>2020-07-28T09:21:05Z</time>
      </trkpt>
      <trkpt lat="44.55688" lon="-0.10611">
        <ele>14.56</ele>
        <time>2020-07-28T09:21:26Z</time>
      </trkpt>
      <trkpt lat="44.55689" lon="-0.10613">
        <ele>14.56</ele>
        <time>2020-07-28T09:21:28Z</time>
      </trkpt>
      <trkpt lat="44.55691" lon="-0.10614">
        <ele>14.56</ele>
        <time>2020-07-28T09:21:31Z</time>
      </trkpt>
      <trkpt lat="44.55711" lon="-0.10641">
        <ele>14.56</ele>
        <time>2020-07-28T09:21:53Z</time>
      </trkpt>
      <trkpt lat="44.55721" lon="-0.10671">
        <ele>16</ele>
        <time>2020-07-28T09:22:08Z</time>
      </trkpt>
      <trkpt lat="44.5574" lon="-0.10702">
        <ele>16</ele>
        <time>2020-07-28T09:22:31Z</time>
      </trkpt>
      <trkpt lat="44.55762" lon="-0.10736">
        <ele>16</ele>
        <time>2020-07-28T09:22:52Z</time>
      </trkpt>
      <trkpt lat="44.5577" lon="-0.10749">
        <ele>16</ele>
        <time>2020-07-28T09:23:10Z</time>
      </trkpt>
      <trkpt lat="44.5577" lon="-0.1075">
        <ele>16</ele>
        <time>2020-07-28T09:23:11Z</time>
      </trkpt>
      <trkpt lat="44.55779" lon="-0.1079">
        <ele>16</ele>
        <time>2020-07-28T09:23:30Z</time>
      </trkpt>
      <trkpt lat="44.5578" lon="-0.10791">
        <ele>16</ele>
        <time>2020-07-28T09:23:31Z</time>
      </trkpt>
      <trkpt lat="44.55781" lon="-0.10794">
        <ele>16</ele>
        <time>2020-07-28T09:23:33Z</time>
      </trkpt>
      <trkpt lat="44.55786" lon="-0.10819">
        <ele>15.04</ele>
        <time>2020-07-28T09:23:47Z</time>
      </trkpt>
      <trkpt lat="44.55801" lon="-0.10845">
        <ele>16</ele>
        <time>2020-07-28T09:24:06Z</time>
      </trkpt>
      <trkpt lat="44.55801" lon="-0.10861">
        <ele>16</ele>
        <time>2020-07-28T09:24:25Z</time>
      </trkpt>
      <trkpt lat="44.55802" lon="-0.10868">
        <ele>16</ele>
        <time>2020-07-28T09:24:31Z</time>
      </trkpt>
      <trkpt lat="44.55802" lon="-0.10884">
        <ele>14.56</ele>
        <time>2020-07-28T09:24:36Z</time>
      </trkpt>
      <trkpt lat="44.55802" lon="-0.10906">
        <ele>15.52</ele>
        <time>2020-07-28T09:24:47Z</time>
      </trkpt>
      <trkpt lat="44.55803" lon="-0.10924">
        <ele>14.08</ele>
        <time>2020-07-28T09:25:04Z</time>
      </trkpt>
      <trkpt lat="44.55802" lon="-0.10925">
        <ele>14.08</ele>
        <time>2020-07-28T09:25:05Z</time>
      </trkpt>
      <trkpt lat="44.55801" lon="-0.10941">
        <ele>15.52</ele>
        <time>2020-07-28T09:25:26Z</time>
      </trkpt>
      <trkpt lat="44.55797" lon="-0.10959">
        <ele>15.52</ele>
        <time>2020-07-28T09:25:41Z</time>
      </trkpt>
      <trkpt lat="44.55789" lon="-0.10998">
        <ele>14.56</ele>
        <time>2020-07-28T09:25:58Z</time>
      </trkpt>
      <trkpt lat="44.55784" lon="-0.11018">
        <ele>15.52</ele>
        <time>2020-07-28T09:26:11Z</time>
      </trkpt>
      <trkpt lat="44.55783" lon="-0.11044">
        <ele>16.96</ele>
        <time>2020-07-28T09:26:27Z</time>
      </trkpt>
      <trkpt lat="44.55775" lon="-0.1107">
        <ele>17.44</ele>
        <time>2020-07-28T09:26:47Z</time>
      </trkpt>
      <trkpt lat="44.55773" lon="-0.11086">
        <ele>17.92</ele>
        <time>2020-07-28T09:27:08Z</time>
      </trkpt>
      <trkpt lat="44.55777" lon="-0.11082">
        <ele>17.92</ele>
        <time>2020-07-28T09:27:35Z</time>
      </trkpt>
      <trkpt lat="44.55773" lon="-0.11088">
        <ele>17.92</ele>
        <time>2020-07-28T09:28:03Z</time>
      </trkpt>
      <trkpt lat="44.5577" lon="-0.11088">
        <ele>17.44</ele>
        <time>2020-07-28T09:28:26Z</time>
      </trkpt>
      <trkpt lat="44.55772" lon="-0.11074">
        <ele>17.44</ele>
        <time>2020-07-28T09:28:45Z</time>
      </trkpt>
      <trkpt lat="44.5577" lon="-0.11081">
        <ele>17.44</ele>
        <time>2020-07-28T09:29:06Z</time>
      </trkpt>
      <trkpt lat="44.55769" lon="-0.11081">
        <ele>16.48</ele>
        <time>2020-07-28T09:29:08Z</time>
      </trkpt>
      <trkpt lat="44.55755" lon="-0.11104">
        <ele>15.04</ele>
        <time>2020-07-28T09:29:25Z</time>
      </trkpt>
      <trkpt lat="44.55742" lon="-0.11127">
        <ele>13.6</ele>
        <time>2020-07-28T09:29:40Z</time>
      </trkpt>
      <trkpt lat="44.55733" lon="-0.1115">
        <ele>15.04</ele>
        <time>2020-07-28T09:29:57Z</time>
      </trkpt>
      <trkpt lat="44.55723" lon="-0.11173">
        <ele>13.6</ele>
        <time>2020-07-28T09:30:13Z</time>
      </trkpt>
      <trkpt lat="44.55713" lon="-0.11203">
        <ele>13.6</ele>
        <time>2020-07-28T09:30:36Z</time>
      </trkpt>
      <trkpt lat="44.55707" lon="-0.1122">
        <ele>14.56</ele>
        <time>2020-07-28T09:30:56Z</time>
      </trkpt>
      <trkpt lat="44.55701" lon="-0.11238">
        <ele>13.12</ele>
        <time>2020-07-28T09:31:07Z</time>
      </trkpt>
      <trkpt lat="44.55694" lon="-0.1126">
        <ele>13.12</ele>
        <time>2020-07-28T09:31:24Z</time>
      </trkpt>
      <trkpt lat="44.55693" lon="-0.11261">
        <ele>13.12</ele>
        <time>2020-07-28T09:31:25Z</time>
      </trkpt>
      <trkpt lat="44.55681" lon="-0.11285">
        <ele>13.12</ele>
        <time>2020-07-28T09:31:43Z</time>
      </trkpt>
      <trkpt lat="44.5567" lon="-0.11312">
        <ele>13.12</ele>
        <time>2020-07-28T09:32:02Z</time>
      </trkpt>
      <trkpt lat="44.55666" lon="-0.11328">
        <ele>12.63</ele>
        <time>2020-07-28T09:32:13Z</time>
      </trkpt>
      <trkpt lat="44.55665" lon="-0.11331">
        <ele>14.08</ele>
        <time>2020-07-28T09:32:15Z</time>
      </trkpt>
      <trkpt lat="44.55658" lon="-0.11341">
        <ele>12.63</ele>
        <time>2020-07-28T09:32:22Z</time>
      </trkpt>
      <trkpt lat="44.55656" lon="-0.11347">
        <ele>14.08</ele>
        <time>2020-07-28T09:32:26Z</time>
      </trkpt>
      <trkpt lat="44.55646" lon="-0.11373">
        <ele>12.63</ele>
        <time>2020-07-28T09:32:47Z</time>
      </trkpt>
      <trkpt lat="44.55635" lon="-0.11398">
        <ele>12.15</ele>
        <time>2020-07-28T09:33:06Z</time>
      </trkpt>
      <trkpt lat="44.55625" lon="-0.11428">
        <ele>13.6</ele>
        <time>2020-07-28T09:33:25Z</time>
      </trkpt>
      <trkpt lat="44.55621" lon="-0.11442">
        <ele>13.6</ele>
        <time>2020-07-28T09:33:32Z</time>
      </trkpt>
      <trkpt lat="44.55618" lon="-0.11448">
        <ele>12.15</ele>
        <time>2020-07-28T09:33:35Z</time>
      </trkpt>
      <trkpt lat="44.55614" lon="-0.11454">
        <ele>12.15</ele>
        <time>2020-07-28T09:33:39Z</time>
      </trkpt>
      <trkpt lat="44.55605" lon="-0.11473">
        <ele>11.67</ele>
        <time>2020-07-28T09:33:50Z</time>
      </trkpt>
      <trkpt lat="44.55603" lon="-0.11478">
        <ele>13.12</ele>
        <time>2020-07-28T09:33:53Z</time>
      </trkpt>
      <trkpt lat="44.556" lon="-0.11502">
        <ele>12.15</ele>
        <time>2020-07-28T09:34:16Z</time>
      </trkpt>
      <trkpt lat="44.55594" lon="-0.11526">
        <ele>13.12</ele>
        <time>2020-07-28T09:34:29Z</time>
      </trkpt>
      <trkpt lat="44.55577" lon="-0.11561">
        <ele>12.63</ele>
        <time>2020-07-28T09:34:47Z</time>
      </trkpt>
      <trkpt lat="44.5557" lon="-0.1159">
        <ele>12.63</ele>
        <time>2020-07-28T09:35:06Z</time>
      </trkpt>
      <trkpt lat="44.55573" lon="-0.11589">
        <ele>12.63</ele>
        <time>2020-07-28T09:35:26Z</time>
      </trkpt>
      <trkpt lat="44.55568" lon="-0.11631">
        <ele>12.63</ele>
        <time>2020-07-28T09:35:47Z</time>
      </trkpt>
      <trkpt lat="44.55568" lon="-0.11667">
        <ele>12.15</ele>
        <time>2020-07-28T09:36:13Z</time>
      </trkpt>
      <trkpt lat="44.55563" lon="-0.11705">
        <ele>12.15</ele>
        <time>2020-07-28T09:36:32Z</time>
      </trkpt>
      <trkpt lat="44.55564" lon="-0.1173">
        <ele>12.63</ele>
        <time>2020-07-28T09:36:48Z</time>
      </trkpt>
      <trkpt lat="44.55572" lon="-0.11759">
        <ele>13.12</ele>
        <time>2020-07-28T09:37:08Z</time>
      </trkpt>
      <trkpt lat="44.55567" lon="-0.11799">
        <ele>13.12</ele>
        <time>2020-07-28T09:37:22Z</time>
      </trkpt>
      <trkpt lat="44.55566" lon="-0.11817">
        <ele>13.6</ele>
        <time>2020-07-28T09:37:35Z</time>
      </trkpt>
      <trkpt lat="44.5557" lon="-0.11811">
        <ele>13.6</ele>
        <time>2020-07-28T09:37:55Z</time>
      </trkpt>
      <trkpt lat="44.55581" lon="-0.11845">
        <ele>12.63</ele>
        <time>2020-07-28T09:38:13Z</time>
      </trkpt>
      <trkpt lat="44.55584" lon="-0.11853">
        <ele>14.08</ele>
        <time>2020-07-28T09:38:19Z</time>
      </trkpt>
      <trkpt lat="44.55585" lon="-0.11889">
        <ele>14.56</ele>
        <time>2020-07-28T09:38:38Z</time>
      </trkpt>
      <trkpt lat="44.55592" lon="-0.11926">
        <ele>14.08</ele>
        <time>2020-07-28T09:38:57Z</time>
      </trkpt>
      <trkpt lat="44.55597" lon="-0.11959">
        <ele>15.52</ele>
        <time>2020-07-28T09:39:14Z</time>
      </trkpt>
      <trkpt lat="44.55608" lon="-0.11996">
        <ele>15.04</ele>
        <time>2020-07-28T09:39:35Z</time>
      </trkpt>
      <trkpt lat="44.55612" lon="-0.1201">
        <ele>16.48</ele>
        <time>2020-07-28T09:39:45Z</time>
      </trkpt>
      <trkpt lat="44.55613" lon="-0.12015">
        <ele>15.52</ele>
        <time>2020-07-28T09:39:49Z</time>
      </trkpt>
      <trkpt lat="44.55616" lon="-0.12044">
        <ele>16</ele>
        <time>2020-07-28T09:40:08Z</time>
      </trkpt>
      <trkpt lat="44.5562" lon="-0.12063">
        <ele>17.44</ele>
        <time>2020-07-28T09:40:17Z</time>
      </trkpt>
      <trkpt lat="44.55627" lon="-0.1207">
        <ele>18.4</ele>
        <time>2020-07-28T09:40:37Z</time>
      </trkpt>
      <trkpt lat="44.55629" lon="-0.1209">
        <ele>17.92</ele>
        <time>2020-07-28T09:40:57Z</time>
      </trkpt>
      <trkpt lat="44.55635" lon="-0.1209">
        <ele>17.92</ele>
        <time>2020-07-28T09:41:03Z</time>
      </trkpt>
      <trkpt lat="44.55623" lon="-0.12114">
        <ele>18.4</ele>
        <time>2020-07-28T09:41:26Z</time>
      </trkpt>
      <trkpt lat="44.5563" lon="-0.12144">
        <ele>18.4</ele>
        <time>2020-07-28T09:41:53Z</time>
      </trkpt>
      <trkpt lat="44.55638" lon="-0.12159">
        <ele>18.4</ele>
        <time>2020-07-28T09:42:06Z</time>
      </trkpt>
      <trkpt lat="44.5564" lon="-0.12164">
        <ele>19.84</ele>
        <time>2020-07-28T09:42:08Z</time>
      </trkpt>
      <trkpt lat="44.5564" lon="-0.12173">
        <ele>19.84</ele>
        <time>2020-07-28T09:42:13Z</time>
      </trkpt>
      <trkpt lat="44.55647" lon="-0.122">
        <ele>20.32</ele>
        <time>2020-07-28T09:42:29Z</time>
      </trkpt>
      <trkpt lat="44.55652" lon="-0.12215">
        <ele>20.32</ele>
        <time>2020-07-28T09:42:40Z</time>
      </trkpt>
      <trkpt lat="44.55654" lon="-0.1225">
        <ele>20.32</ele>
        <time>2020-07-28T09:43:03Z</time>
      </trkpt>
      <trkpt lat="44.55652" lon="-0.12268">
        <ele>20.81</ele>
        <time>2020-07-28T09:43:24Z</time>
      </trkpt>
      <trkpt lat="44.55656" lon="-0.12301">
        <ele>20.81</ele>
        <time>2020-07-28T09:43:45Z</time>
      </trkpt>
      <trkpt lat="44.55664" lon="-0.12334">
        <ele>20.81</ele>
        <time>2020-07-28T09:44:04Z</time>
      </trkpt>
      <trkpt lat="44.55671" lon="-0.12366">
        <ele>19.84</ele>
        <time>2020-07-28T09:44:26Z</time>
      </trkpt>
      <trkpt lat="44.55672" lon="-0.12369">
        <ele>20.81</ele>
        <time>2020-07-28T09:44:28Z</time>
      </trkpt>
      <trkpt lat="44.55679" lon="-0.12385">
        <ele>21.29</ele>
        <time>2020-07-28T09:44:48Z</time>
      </trkpt>
      <trkpt lat="44.5568" lon="-0.12406">
        <ele>20.32</ele>
        <time>2020-07-28T09:45:06Z</time>
      </trkpt>
      <trkpt lat="44.55679" lon="-0.12414">
        <ele>21.29</ele>
        <time>2020-07-28T09:45:13Z</time>
      </trkpt>
      <trkpt lat="44.55683" lon="-0.12422">
        <ele>20.81</ele>
        <time>2020-07-28T09:45:21Z</time>
      </trkpt>
      <trkpt lat="44.55685" lon="-0.12433">
        <ele>21.77</ele>
        <time>2020-07-28T09:45:27Z</time>
      </trkpt>
      <trkpt lat="44.55689" lon="-0.12449">
        <ele>22.25</ele>
        <time>2020-07-28T09:45:36Z</time>
      </trkpt>
      <trkpt lat="44.55699" lon="-0.12483">
        <ele>20.81</ele>
        <time>2020-07-28T09:45:57Z</time>
      </trkpt>
      <trkpt lat="44.557" lon="-0.12538">
        <ele>21.77</ele>
        <time>2020-07-28T09:46:18Z</time>
      </trkpt>
      <trkpt lat="44.55707" lon="-0.1257">
        <ele>20.81</ele>
        <time>2020-07-28T09:46:32Z</time>
      </trkpt>
      <trkpt lat="44.55707" lon="-0.12576">
        <ele>22.73</ele>
        <time>2020-07-28T09:46:35Z</time>
      </trkpt>
      <trkpt lat="44.55713" lon="-0.12592">
        <ele>21.29</ele>
        <time>2020-07-28T09:46:47Z</time>
      </trkpt>
      <trkpt lat="44.55713" lon="-0.12595">
        <ele>22.25</ele>
        <time>2020-07-28T09:46:49Z</time>
      </trkpt>
      <trkpt lat="44.55716" lon="-0.12606">
        <ele>20.81</ele>
        <time>2020-07-28T09:46:55Z</time>
      </trkpt>
      <trkpt lat="44.55719" lon="-0.12616">
        <ele>22.25</ele>
        <time>2020-07-28T09:47:00Z</time>
      </trkpt>
      <trkpt lat="44.55731" lon="-0.12616">
        <ele>22.25</ele>
        <time>2020-07-28T09:47:16Z</time>
      </trkpt>
      <trkpt lat="44.55728" lon="-0.1264">
        <ele>22.25</ele>
        <time>2020-07-28T09:47:34Z</time>
      </trkpt>
      <trkpt lat="44.55737" lon="-0.12652">
        <ele>22.25</ele>
        <time>2020-07-28T09:47:55Z</time>
      </trkpt>
      <trkpt lat="44.55748" lon="-0.12689">
        <ele>21.77</ele>
        <time>2020-07-28T09:48:17Z</time>
      </trkpt>
      <trkpt lat="44.55757" lon="-0.12701">
        <ele>21.77</ele>
        <time>2020-07-28T09:48:40Z</time>
      </trkpt>
      <trkpt lat="44.5576" lon="-0.12699">
        <ele>21.77</ele>
        <time>2020-07-28T09:49:05Z</time>
      </trkpt>
      <trkpt lat="44.55758" lon="-0.12704">
        <ele>20.32</ele>
        <time>2020-07-28T09:49:15Z</time>
      </trkpt>
      <trkpt lat="44.55759" lon="-0.12706">
        <ele>21.77</ele>
        <time>2020-07-28T09:49:17Z</time>
      </trkpt>
      <trkpt lat="44.5576" lon="-0.12706">
        <ele>20.32</ele>
        <time>2020-07-28T09:49:18Z</time>
      </trkpt>
      <trkpt lat="44.55764" lon="-0.12709">
        <ele>22.25</ele>
        <time>2020-07-28T09:49:21Z</time>
      </trkpt>
      <trkpt lat="44.55775" lon="-0.12724">
        <ele>20.32</ele>
        <time>2020-07-28T09:49:33Z</time>
      </trkpt>
      <trkpt lat="44.55776" lon="-0.12728">
        <ele>21.77</ele>
        <time>2020-07-28T09:49:35Z</time>
      </trkpt>
      <trkpt lat="44.55787" lon="-0.12746">
        <ele>21.77</ele>
        <time>2020-07-28T09:49:50Z</time>
      </trkpt>
      <trkpt lat="44.55797" lon="-0.12777">
        <ele>21.29</ele>
        <time>2020-07-28T09:50:08Z</time>
      </trkpt>
      <trkpt lat="44.55806" lon="-0.12795">
        <ele>21.29</ele>
        <time>2020-07-28T09:50:25Z</time>
      </trkpt>
      <trkpt lat="44.55812" lon="-0.12799">
        <ele>21.29</ele>
        <time>2020-07-28T09:50:32Z</time>
      </trkpt>
      <trkpt lat="44.55815" lon="-0.12802">
        <ele>19.84</ele>
        <time>2020-07-28T09:50:36Z</time>
      </trkpt>
      <trkpt lat="44.55821" lon="-0.12813">
        <ele>20.81</ele>
        <time>2020-07-28T09:50:44Z</time>
      </trkpt>
      <trkpt lat="44.55833" lon="-0.12841">
        <ele>20.32</ele>
        <time>2020-07-28T09:51:04Z</time>
      </trkpt>
      <trkpt lat="44.55842" lon="-0.12863">
        <ele>19.36</ele>
        <time>2020-07-28T09:51:22Z</time>
      </trkpt>
      <trkpt lat="44.55844" lon="-0.1292">
        <ele>19.84</ele>
        <time>2020-07-28T09:51:40Z</time>
      </trkpt>
      <trkpt lat="44.55846" lon="-0.12952">
        <ele>19.84</ele>
        <time>2020-07-28T09:51:55Z</time>
      </trkpt>
      <trkpt lat="44.55848" lon="-0.12959">
        <ele>18.4</ele>
        <time>2020-07-28T09:52:00Z</time>
      </trkpt>
      <trkpt lat="44.5585" lon="-0.12959">
        <ele>19.84</ele>
        <time>2020-07-28T09:52:01Z</time>
      </trkpt>
      <trkpt lat="44.55852" lon="-0.1296">
        <ele>19.84</ele>
        <time>2020-07-28T09:52:02Z</time>
      </trkpt>
      <trkpt lat="44.55859" lon="-0.1297">
        <ele>18.4</ele>
        <time>2020-07-28T09:52:10Z</time>
      </trkpt>
      <trkpt lat="44.5587" lon="-0.12995">
        <ele>19.84</ele>
        <time>2020-07-28T09:52:29Z</time>
      </trkpt>
      <trkpt lat="44.55875" lon="-0.13002">
        <ele>18.4</ele>
        <time>2020-07-28T09:52:34Z</time>
      </trkpt>
      <trkpt lat="44.5588" lon="-0.13013">
        <ele>19.36</ele>
        <time>2020-07-28T09:52:40Z</time>
      </trkpt>
      <trkpt lat="44.55881" lon="-0.13017">
        <ele>17.92</ele>
        <time>2020-07-28T09:52:42Z</time>
      </trkpt>
      <trkpt lat="44.55881" lon="-0.13021">
        <ele>19.36</ele>
        <time>2020-07-28T09:52:44Z</time>
      </trkpt>
      <trkpt lat="44.55886" lon="-0.13042">
        <ele>17.92</ele>
        <time>2020-07-28T09:52:55Z</time>
      </trkpt>
      <trkpt lat="44.55888" lon="-0.13053">
        <ele>18.88</ele>
        <time>2020-07-28T09:53:02Z</time>
      </trkpt>
      <trkpt lat="44.55896" lon="-0.13077">
        <ele>18.88</ele>
        <time>2020-07-28T09:53:20Z</time>
      </trkpt>
      <trkpt lat="44.55902" lon="-0.13102">
        <ele>18.4</ele>
        <time>2020-07-28T09:53:35Z</time>
      </trkpt>
      <trkpt lat="44.55911" lon="-0.13127">
        <ele>19.84</ele>
        <time>2020-07-28T09:53:50Z</time>
      </trkpt>
      <trkpt lat="44.5592" lon="-0.13153">
        <ele>20.81</ele>
        <time>2020-07-28T09:54:06Z</time>
      </trkpt>
      <trkpt lat="44.55923" lon="-0.13182">
        <ele>21.77</ele>
        <time>2020-07-28T09:54:28Z</time>
      </trkpt>
      <trkpt lat="44.5593" lon="-0.13189">
        <ele>21.77</ele>
        <time>2020-07-28T09:54:46Z</time>
      </trkpt>
      <trkpt lat="44.55935" lon="-0.132">
        <ele>21.77</ele>
        <time>2020-07-28T09:55:42Z</time>
      </trkpt>
      <trkpt lat="44.55931" lon="-0.13191">
        <ele>21.77</ele>
        <time>2020-07-28T09:56:04Z</time>
      </trkpt>
      <trkpt lat="44.55934" lon="-0.13185">
        <ele>21.77</ele>
        <time>2020-07-28T09:56:27Z</time>
      </trkpt>
      <trkpt lat="44.55933" lon="-0.13186">
        <ele>20.32</ele>
        <time>2020-07-28T09:56:56Z</time>
      </trkpt>
      <trkpt lat="44.55928" lon="-0.13189">
        <ele>20.32</ele>
        <time>2020-07-28T09:57:15Z</time>
      </trkpt>
      <trkpt lat="44.55899" lon="-0.13127">
        <ele>20.32</ele>
        <time>2020-07-28T09:57:46Z</time>
      </trkpt>
      <trkpt lat="44.55927" lon="-0.13184">
        <ele>21.77</ele>
        <time>2020-07-28T09:59:41Z</time>
      </trkpt>
      <trkpt lat="44.55918" lon="-0.1321">
        <ele>20.81</ele>
        <time>2020-07-28T10:00:01Z</time>
      </trkpt>
      <trkpt lat="44.55912" lon="-0.13214">
        <ele>20.81</ele>
        <time>2020-07-28T10:00:25Z</time>
      </trkpt>
      <trkpt lat="44.55909" lon="-0.13207">
        <ele>20.81</ele>
        <time>2020-07-28T10:00:46Z</time>
      </trkpt>
      <trkpt lat="44.55912" lon="-0.13202">
        <ele>20.81</ele>
        <time>2020-07-28T10:01:10Z</time>
      </trkpt>
      <trkpt lat="44.55918" lon="-0.13203">
        <ele>20.81</ele>
        <time>2020-07-28T10:01:31Z</time>
      </trkpt>
      <trkpt lat="44.55922" lon="-0.132">
        <ele>20.81</ele>
        <time>2020-07-28T10:01:52Z</time>
      </trkpt>
      <trkpt lat="44.55924" lon="-0.13212">
        <ele>20.81</ele>
        <time>2020-07-28T10:02:16Z</time>
      </trkpt>
      <trkpt lat="44.5592" lon="-0.13211">
        <ele>20.32</ele>
        <time>2020-07-28T10:02:43Z</time>
      </trkpt>
      <trkpt lat="44.55922" lon="-0.1322">
        <ele>19.84</ele>
        <time>2020-07-28T10:03:09Z</time>
      </trkpt>
      <trkpt lat="44.55922" lon="-0.13218">
        <ele>19.84</ele>
        <time>2020-07-28T10:03:32Z</time>
      </trkpt>
      <trkpt lat="44.55926" lon="-0.13214">
        <ele>19.84</ele>
        <time>2020-07-28T10:03:57Z</time>
      </trkpt>
      <trkpt lat="44.55916" lon="-0.13206">
        <ele>19.36</ele>
        <time>2020-07-28T10:04:23Z</time>
      </trkpt>
      <trkpt lat="44.55925" lon="-0.13209">
        <ele>19.36</ele>
        <time>2020-07-28T10:04:47Z</time>
      </trkpt>
      <trkpt lat="44.55924" lon="-0.13205">
        <ele>20.81</ele>
        <time>2020-07-28T10:05:07Z</time>
      </trkpt>
      <trkpt lat="44.55924" lon="-0.13204">
        <ele>20.81</ele>
        <time>2020-07-28T10:05:08Z</time>
      </trkpt>
      <trkpt lat="44.55932" lon="-0.13202">
        <ele>20.81</ele>
        <time>2020-07-28T10:05:32Z</time>
      </trkpt>
      <trkpt lat="44.55931" lon="-0.13195">
        <ele>20.81</ele>
        <time>2020-07-28T10:05:55Z</time>
      </trkpt>
      <trkpt lat="44.55931" lon="-0.13191">
        <ele>20.32</ele>
        <time>2020-07-28T10:06:22Z</time>
      </trkpt>
      <trkpt lat="44.55933" lon="-0.13187">
        <ele>20.32</ele>
        <time>2020-07-28T10:06:50Z</time>
      </trkpt>
      <trkpt lat="44.55934" lon="-0.1319">
        <ele>20.32</ele>
        <time>2020-07-28T10:07:15Z</time>
      </trkpt>
      <trkpt lat="44.55932" lon="-0.13192">
        <ele>19.84</ele>
        <time>2020-07-28T10:07:43Z</time>
      </trkpt>
      <trkpt lat="44.55932" lon="-0.13202">
        <ele>18.4</ele>
        <time>2020-07-28T10:08:05Z</time>
      </trkpt>
      <trkpt lat="44.55933" lon="-0.13218">
        <ele>16.96</ele>
        <time>2020-07-28T10:08:25Z</time>
      </trkpt>
      <trkpt lat="44.55937" lon="-0.13245">
        <ele>16.48</ele>
        <time>2020-07-28T10:08:42Z</time>
      </trkpt>
      <trkpt lat="44.55938" lon="-0.13252">
        <ele>16.96</ele>
        <time>2020-07-28T10:08:48Z</time>
      </trkpt>
      <trkpt lat="44.55939" lon="-0.13254">
        <ele>15.52</ele>
        <time>2020-07-28T10:08:50Z</time>
      </trkpt>
      <trkpt lat="44.55939" lon="-0.13259">
        <ele>16.96</ele>
        <time>2020-07-28T10:08:53Z</time>
      </trkpt>
      <trkpt lat="44.55946" lon="-0.13298">
        <ele>16.48</ele>
        <time>2020-07-28T10:09:14Z</time>
      </trkpt>
      <trkpt lat="44.5595" lon="-0.13303">
        <ele>16</ele>
        <time>2020-07-28T10:09:19Z</time>
      </trkpt>
      <trkpt lat="44.55959" lon="-0.13322">
        <ele>16</ele>
        <time>2020-07-28T10:09:37Z</time>
      </trkpt>
      <trkpt lat="44.55963" lon="-0.1335">
        <ele>15.04</ele>
        <time>2020-07-28T10:09:52Z</time>
      </trkpt>
      <trkpt lat="44.55968" lon="-0.13376">
        <ele>15.04</ele>
        <time>2020-07-28T10:10:09Z</time>
      </trkpt>
      <trkpt lat="44.55971" lon="-0.13385">
        <ele>15.04</ele>
        <time>2020-07-28T10:10:15Z</time>
      </trkpt>
      <trkpt lat="44.55976" lon="-0.1342">
        <ele>14.56</ele>
        <time>2020-07-28T10:10:34Z</time>
      </trkpt>
      <trkpt lat="44.55978" lon="-0.13443">
        <ele>14.08</ele>
        <time>2020-07-28T10:10:49Z</time>
      </trkpt>
      <trkpt lat="44.5598" lon="-0.13448">
        <ele>16</ele>
        <time>2020-07-28T10:10:52Z</time>
      </trkpt>
      <trkpt lat="44.55981" lon="-0.13455">
        <ele>14.08</ele>
        <time>2020-07-28T10:10:57Z</time>
      </trkpt>
      <trkpt lat="44.55985" lon="-0.13481">
        <ele>15.52</ele>
        <time>2020-07-28T10:11:16Z</time>
      </trkpt>
      <trkpt lat="44.55984" lon="-0.1351">
        <ele>14.08</ele>
        <time>2020-07-28T10:11:33Z</time>
      </trkpt>
      <trkpt lat="44.55984" lon="-0.13512">
        <ele>14.08</ele>
        <time>2020-07-28T10:11:34Z</time>
      </trkpt>
      <trkpt lat="44.55985" lon="-0.13519">
        <ele>15.04</ele>
        <time>2020-07-28T10:11:39Z</time>
      </trkpt>
      <trkpt lat="44.55986" lon="-0.1352">
        <ele>15.04</ele>
        <time>2020-07-28T10:11:40Z</time>
      </trkpt>
      <trkpt lat="44.55991" lon="-0.1355">
        <ele>15.04</ele>
        <time>2020-07-28T10:12:00Z</time>
      </trkpt>
      <trkpt lat="44.55994" lon="-0.13569">
        <ele>14.56</ele>
        <time>2020-07-28T10:12:18Z</time>
      </trkpt>
      <trkpt lat="44.55998" lon="-0.13595">
        <ele>14.56</ele>
        <time>2020-07-28T10:12:35Z</time>
      </trkpt>
      <trkpt lat="44.56" lon="-0.13597">
        <ele>14.08</ele>
        <time>2020-07-28T10:12:52Z</time>
      </trkpt>
      <trkpt lat="44.56005" lon="-0.13623">
        <ele>14.08</ele>
        <time>2020-07-28T10:13:10Z</time>
      </trkpt>
      <trkpt lat="44.56008" lon="-0.1363">
        <ele>13.6</ele>
        <time>2020-07-28T10:13:29Z</time>
      </trkpt>
      <trkpt lat="44.56008" lon="-0.13658">
        <ele>13.12</ele>
        <time>2020-07-28T10:13:50Z</time>
      </trkpt>
      <trkpt lat="44.56011" lon="-0.13681">
        <ele>13.12</ele>
        <time>2020-07-28T10:14:08Z</time>
      </trkpt>
      <trkpt lat="44.56014" lon="-0.13715">
        <ele>11.19</ele>
        <time>2020-07-28T10:14:27Z</time>
      </trkpt>
      <trkpt lat="44.56018" lon="-0.13749">
        <ele>12.63</ele>
        <time>2020-07-28T10:14:46Z</time>
      </trkpt>
      <trkpt lat="44.56019" lon="-0.13752">
        <ele>11.19</ele>
        <time>2020-07-28T10:14:48Z</time>
      </trkpt>
      <trkpt lat="44.5602" lon="-0.13763">
        <ele>11.19</ele>
        <time>2020-07-28T10:14:54Z</time>
      </trkpt>
      <trkpt lat="44.5602" lon="-0.1377">
        <ele>12.63</ele>
        <time>2020-07-28T10:14:57Z</time>
      </trkpt>
      <trkpt lat="44.56021" lon="-0.13799">
        <ele>12.63</ele>
        <time>2020-07-28T10:15:13Z</time>
      </trkpt>
      <trkpt lat="44.56021" lon="-0.13826">
        <ele>11.19</ele>
        <time>2020-07-28T10:15:28Z</time>
      </trkpt>
      <trkpt lat="44.56023" lon="-0.13836">
        <ele>12.63</ele>
        <time>2020-07-28T10:15:36Z</time>
      </trkpt>
      <trkpt lat="44.56025" lon="-0.13844">
        <ele>10.71</ele>
        <time>2020-07-28T10:15:41Z</time>
      </trkpt>
      <trkpt lat="44.56025" lon="-0.13854">
        <ele>11.67</ele>
        <time>2020-07-28T10:15:48Z</time>
      </trkpt>
      <trkpt lat="44.56024" lon="-0.13865">
        <ele>11.67</ele>
        <time>2020-07-28T10:16:05Z</time>
      </trkpt>
      <trkpt lat="44.56026" lon="-0.13868">
        <ele>11.67</ele>
        <time>2020-07-28T10:16:07Z</time>
      </trkpt>
      <trkpt lat="44.56027" lon="-0.13892">
        <ele>10.23</ele>
        <time>2020-07-28T10:16:25Z</time>
      </trkpt>
      <trkpt lat="44.56026" lon="-0.13897">
        <ele>11.67</ele>
        <time>2020-07-28T10:16:27Z</time>
      </trkpt>
      <trkpt lat="44.56028" lon="-0.13919">
        <ele>11.67</ele>
        <time>2020-07-28T10:16:40Z</time>
      </trkpt>
      <trkpt lat="44.56027" lon="-0.13932">
        <ele>10.23</ele>
        <time>2020-07-28T10:16:48Z</time>
      </trkpt>
      <trkpt lat="44.56028" lon="-0.13945">
        <ele>9.75</ele>
        <time>2020-07-28T10:16:57Z</time>
      </trkpt>
      <trkpt lat="44.56028" lon="-0.13951">
        <ele>11.19</ele>
        <time>2020-07-28T10:17:00Z</time>
      </trkpt>
      <trkpt lat="44.56027" lon="-0.13966">
        <ele>10.71</ele>
        <time>2020-07-28T10:17:16Z</time>
      </trkpt>
      <trkpt lat="44.5603" lon="-0.13989">
        <ele>10.71</ele>
        <time>2020-07-28T10:17:37Z</time>
      </trkpt>
      <trkpt lat="44.5603" lon="-0.13993">
        <ele>9.27</ele>
        <time>2020-07-28T10:17:40Z</time>
      </trkpt>
      <trkpt lat="44.5603" lon="-0.13997">
        <ele>10.71</ele>
        <time>2020-07-28T10:17:42Z</time>
      </trkpt>
      <trkpt lat="44.56028" lon="-0.14025">
        <ele>10.23</ele>
        <time>2020-07-28T10:18:00Z</time>
      </trkpt>
      <trkpt lat="44.56027" lon="-0.14057">
        <ele>10.71</ele>
        <time>2020-07-28T10:18:18Z</time>
      </trkpt>
      <trkpt lat="44.56029" lon="-0.14067">
        <ele>8.79</ele>
        <time>2020-07-28T10:18:23Z</time>
      </trkpt>
      <trkpt lat="44.56029" lon="-0.14094">
        <ele>10.23</ele>
        <time>2020-07-28T10:18:39Z</time>
      </trkpt>
      <trkpt lat="44.56031" lon="-0.14105">
        <ele>8.31</ele>
        <time>2020-07-28T10:18:45Z</time>
      </trkpt>
      <trkpt lat="44.56031" lon="-0.14109">
        <ele>9.75</ele>
        <time>2020-07-28T10:18:47Z</time>
      </trkpt>
      <trkpt lat="44.56036" lon="-0.14132">
        <ele>10.71</ele>
        <time>2020-07-28T10:19:02Z</time>
      </trkpt>
      <trkpt lat="44.56036" lon="-0.14134">
        <ele>10.71</ele>
        <time>2020-07-28T10:19:03Z</time>
      </trkpt>
      <trkpt lat="44.56036" lon="-0.14151">
        <ele>10.71</ele>
        <time>2020-07-28T10:19:15Z</time>
      </trkpt>
      <trkpt lat="44.56034" lon="-0.14168">
        <ele>12.15</ele>
        <time>2020-07-28T10:19:33Z</time>
      </trkpt>
      <trkpt lat="44.56025" lon="-0.14169">
        <ele>12.63</ele>
        <time>2020-07-28T10:19:51Z</time>
      </trkpt>
      <trkpt lat="44.56026" lon="-0.14173">
        <ele>12.63</ele>
        <time>2020-07-28T10:20:15Z</time>
      </trkpt>
      <trkpt lat="44.56021" lon="-0.1417">
        <ele>12.63</ele>
        <time>2020-07-28T10:20:39Z</time>
      </trkpt>
      <trkpt lat="44.56018" lon="-0.14169">
        <ele>12.63</ele>
        <time>2020-07-28T10:20:58Z</time>
      </trkpt>
      <trkpt lat="44.56014" lon="-0.14171">
        <ele>12.15</ele>
        <time>2020-07-28T10:21:11Z</time>
      </trkpt>
      <trkpt lat="44.56003" lon="-0.14167">
        <ele>11.19</ele>
        <time>2020-07-28T10:21:26Z</time>
      </trkpt>
      <trkpt lat="44.55987" lon="-0.14178">
        <ele>10.71</ele>
        <time>2020-07-28T10:21:46Z</time>
      </trkpt>
      <trkpt lat="44.55986" lon="-0.14188">
        <ele>10.71</ele>
        <time>2020-07-28T10:21:59Z</time>
      </trkpt>
      <trkpt lat="44.55987" lon="-0.14187">
        <ele>10.71</ele>
        <time>2020-07-28T10:22:28Z</time>
      </trkpt>
      <trkpt lat="44.55982" lon="-0.14198">
        <ele>10.23</ele>
        <time>2020-07-28T10:22:45Z</time>
      </trkpt>
      <trkpt lat="44.55982" lon="-0.14203">
        <ele>10.23</ele>
        <time>2020-07-28T10:22:48Z</time>
      </trkpt>
      <trkpt lat="44.55982" lon="-0.1423">
        <ele>9.27</ele>
        <time>2020-07-28T10:23:06Z</time>
      </trkpt>
      <trkpt lat="44.55984" lon="-0.14256">
        <ele>8.79</ele>
        <time>2020-07-28T10:23:25Z</time>
      </trkpt>
      <trkpt lat="44.55988" lon="-0.14285">
        <ele>7.83</ele>
        <time>2020-07-28T10:23:43Z</time>
      </trkpt>
      <trkpt lat="44.5599" lon="-0.14313">
        <ele>7.83</ele>
        <time>2020-07-28T10:24:02Z</time>
      </trkpt>
      <trkpt lat="44.55992" lon="-0.14326">
        <ele>9.75</ele>
        <time>2020-07-28T10:24:12Z</time>
      </trkpt>
      <trkpt lat="44.55992" lon="-0.14335">
        <ele>7.83</ele>
        <time>2020-07-28T10:24:17Z</time>
      </trkpt>
      <trkpt lat="44.55986" lon="-0.14372">
        <ele>8.79</ele>
        <time>2020-07-28T10:24:36Z</time>
      </trkpt>
      <trkpt lat="44.55989" lon="-0.14388">
        <ele>9.27</ele>
        <time>2020-07-28T10:24:46Z</time>
      </trkpt>
      <trkpt lat="44.55995" lon="-0.14413">
        <ele>9.27</ele>
        <time>2020-07-28T10:25:03Z</time>
      </trkpt>
      <trkpt lat="44.56" lon="-0.14452">
        <ele>9.27</ele>
        <time>2020-07-28T10:25:25Z</time>
      </trkpt>
      <trkpt lat="44.56005" lon="-0.14474">
        <ele>7.83</ele>
        <time>2020-07-28T10:25:40Z</time>
      </trkpt>
      <trkpt lat="44.56005" lon="-0.14476">
        <ele>9.27</ele>
        <time>2020-07-28T10:25:43Z</time>
      </trkpt>
      <trkpt lat="44.56009" lon="-0.14508">
        <ele>8.31</ele>
        <time>2020-07-28T10:26:03Z</time>
      </trkpt>
      <trkpt lat="44.5601" lon="-0.1451">
        <ele>8.31</ele>
        <time>2020-07-28T10:26:04Z</time>
      </trkpt>
      <trkpt lat="44.56013" lon="-0.14532">
        <ele>8.31</ele>
        <time>2020-07-28T10:26:17Z</time>
      </trkpt>
      <trkpt lat="44.56014" lon="-0.14544">
        <ele>9.27</ele>
        <time>2020-07-28T10:26:23Z</time>
      </trkpt>
      <trkpt lat="44.56019" lon="-0.1457">
        <ele>9.27</ele>
        <time>2020-07-28T10:26:40Z</time>
      </trkpt>
      <trkpt lat="44.56027" lon="-0.14594">
        <ele>8.79</ele>
        <time>2020-07-28T10:26:56Z</time>
      </trkpt>
      <trkpt lat="44.5603" lon="-0.146">
        <ele>8.79</ele>
        <time>2020-07-28T10:27:01Z</time>
      </trkpt>
      <trkpt lat="44.56031" lon="-0.14604">
        <ele>8.79</ele>
        <time>2020-07-28T10:27:03Z</time>
      </trkpt>
      <trkpt lat="44.56033" lon="-0.1461">
        <ele>8.79</ele>
        <time>2020-07-28T10:27:07Z</time>
      </trkpt>
      <trkpt lat="44.5604" lon="-0.14642">
        <ele>8.79</ele>
        <time>2020-07-28T10:27:26Z</time>
      </trkpt>
      <trkpt lat="44.56044" lon="-0.14651">
        <ele>8.79</ele>
        <time>2020-07-28T10:27:43Z</time>
      </trkpt>
      <trkpt lat="44.56049" lon="-0.14661">
        <ele>8.31</ele>
        <time>2020-07-28T10:28:03Z</time>
      </trkpt>
      <trkpt lat="44.56061" lon="-0.1469">
        <ele>9.75</ele>
        <time>2020-07-28T10:28:21Z</time>
      </trkpt>
      <trkpt lat="44.56064" lon="-0.14694">
        <ele>8.31</ele>
        <time>2020-07-28T10:28:24Z</time>
      </trkpt>
      <trkpt lat="44.5607" lon="-0.14716">
        <ele>9.27</ele>
        <time>2020-07-28T10:28:41Z</time>
      </trkpt>
      <trkpt lat="44.5607" lon="-0.1472">
        <ele>8.31</ele>
        <time>2020-07-28T10:28:43Z</time>
      </trkpt>
      <trkpt lat="44.56076" lon="-0.14735">
        <ele>9.27</ele>
        <time>2020-07-28T10:28:51Z</time>
      </trkpt>
      <trkpt lat="44.56089" lon="-0.14756">
        <ele>9.27</ele>
        <time>2020-07-28T10:29:09Z</time>
      </trkpt>
      <trkpt lat="44.56099" lon="-0.1478">
        <ele>8.31</ele>
        <time>2020-07-28T10:29:25Z</time>
      </trkpt>
      <trkpt lat="44.56099" lon="-0.14785">
        <ele>8.31</ele>
        <time>2020-07-28T10:29:29Z</time>
      </trkpt>
      <trkpt lat="44.56102" lon="-0.14795">
        <ele>7.83</ele>
        <time>2020-07-28T10:29:35Z</time>
      </trkpt>
      <trkpt lat="44.56104" lon="-0.14798">
        <ele>9.27</ele>
        <time>2020-07-28T10:29:37Z</time>
      </trkpt>
      <trkpt lat="44.56112" lon="-0.14809">
        <ele>7.83</ele>
        <time>2020-07-28T10:29:46Z</time>
      </trkpt>
      <trkpt lat="44.56112" lon="-0.14812">
        <ele>9.27</ele>
        <time>2020-07-28T10:29:48Z</time>
      </trkpt>
      <trkpt lat="44.56114" lon="-0.14823">
        <ele>7.83</ele>
        <time>2020-07-28T10:29:55Z</time>
      </trkpt>
      <trkpt lat="44.5613" lon="-0.14842">
        <ele>9.27</ele>
        <time>2020-07-28T10:30:10Z</time>
      </trkpt>
      <trkpt lat="44.56134" lon="-0.14854">
        <ele>7.83</ele>
        <time>2020-07-28T10:30:19Z</time>
      </trkpt>
      <trkpt lat="44.56147" lon="-0.14879">
        <ele>9.27</ele>
        <time>2020-07-28T10:30:38Z</time>
      </trkpt>
      <trkpt lat="44.56162" lon="-0.14902">
        <ele>9.27</ele>
        <time>2020-07-28T10:30:55Z</time>
      </trkpt>
      <trkpt lat="44.56165" lon="-0.14907">
        <ele>7.83</ele>
        <time>2020-07-28T10:30:59Z</time>
      </trkpt>
      <trkpt lat="44.56174" lon="-0.14918">
        <ele>7.83</ele>
        <time>2020-07-28T10:31:12Z</time>
      </trkpt>
      <trkpt lat="44.56186" lon="-0.14942">
        <ele>7.83</ele>
        <time>2020-07-28T10:31:28Z</time>
      </trkpt>
      <trkpt lat="44.56197" lon="-0.14967">
        <ele>7.83</ele>
        <time>2020-07-28T10:31:48Z</time>
      </trkpt>
      <trkpt lat="44.56212" lon="-0.14987">
        <ele>7.83</ele>
        <time>2020-07-28T10:32:08Z</time>
      </trkpt>
      <trkpt lat="44.5623" lon="-0.14993">
        <ele>7.35</ele>
        <time>2020-07-28T10:32:28Z</time>
      </trkpt>
      <trkpt lat="44.56245" lon="-0.14999">
        <ele>7.35</ele>
        <time>2020-07-28T10:32:49Z</time>
      </trkpt>
      <trkpt lat="44.56252" lon="-0.15015">
        <ele>7.35</ele>
        <time>2020-07-28T10:33:04Z</time>
      </trkpt>
      <trkpt lat="44.56252" lon="-0.15045">
        <ele>5.91</ele>
        <time>2020-07-28T10:33:22Z</time>
      </trkpt>
      <trkpt lat="44.56255" lon="-0.15052">
        <ele>6.87</ele>
        <time>2020-07-28T10:33:26Z</time>
      </trkpt>
      <trkpt lat="44.56256" lon="-0.15053">
        <ele>6.87</ele>
        <time>2020-07-28T10:33:27Z</time>
      </trkpt>
      <trkpt lat="44.56259" lon="-0.15057">
        <ele>4.94</ele>
        <time>2020-07-28T10:33:29Z</time>
      </trkpt>
      <trkpt lat="44.56276" lon="-0.15087">
        <ele>4.94</ele>
        <time>2020-07-28T10:33:47Z</time>
      </trkpt>
      <trkpt lat="44.56293" lon="-0.15112">
        <ele>6.39</ele>
        <time>2020-07-28T10:34:06Z</time>
      </trkpt>
      <trkpt lat="44.56294" lon="-0.15115">
        <ele>4.94</ele>
        <time>2020-07-28T10:34:08Z</time>
      </trkpt>
      <trkpt lat="44.56299" lon="-0.15122">
        <ele>5.91</ele>
        <time>2020-07-28T10:34:23Z</time>
      </trkpt>
      <trkpt lat="44.563" lon="-0.15124">
        <ele>4.94</ele>
        <time>2020-07-28T10:34:28Z</time>
      </trkpt>
      <trkpt lat="44.56304" lon="-0.15122">
        <ele>6.39</ele>
        <time>2020-07-28T10:34:30Z</time>
      </trkpt>
      <trkpt lat="44.56309" lon="-0.15123">
        <ele>4.94</ele>
        <time>2020-07-28T10:34:32Z</time>
      </trkpt>
      <trkpt lat="44.56312" lon="-0.15124">
        <ele>4.94</ele>
        <time>2020-07-28T10:34:34Z</time>
      </trkpt>
      <trkpt lat="44.56318" lon="-0.15135">
        <ele>4.94</ele>
        <time>2020-07-28T10:34:42Z</time>
      </trkpt>
      <trkpt lat="44.56319" lon="-0.15143">
        <ele>4.94</ele>
        <time>2020-07-28T10:34:49Z</time>
      </trkpt>
      <trkpt lat="44.56322" lon="-0.15149">
        <ele>4.94</ele>
        <time>2020-07-28T10:34:53Z</time>
      </trkpt>
      <trkpt lat="44.56335" lon="-0.1518">
        <ele>4.94</ele>
        <time>2020-07-28T10:35:14Z</time>
      </trkpt>
      <trkpt lat="44.56348" lon="-0.15208">
        <ele>4.94</ele>
        <time>2020-07-28T10:35:34Z</time>
      </trkpt>
      <trkpt lat="44.56354" lon="-0.15226">
        <ele>5.91</ele>
        <time>2020-07-28T10:35:46Z</time>
      </trkpt>
      <trkpt lat="44.56364" lon="-0.15258">
        <ele>5.91</ele>
        <time>2020-07-28T10:36:07Z</time>
      </trkpt>
      <trkpt lat="44.56364" lon="-0.15265">
        <ele>6.39</ele>
        <time>2020-07-28T10:36:24Z</time>
      </trkpt>
      <trkpt lat="44.56366" lon="-0.15247">
        <ele>6.39</ele>
        <time>2020-07-28T10:36:41Z</time>
      </trkpt>
      <trkpt lat="44.56366" lon="-0.1525">
        <ele>6.39</ele>
        <time>2020-07-28T10:37:00Z</time>
      </trkpt>
      <trkpt lat="44.56361" lon="-0.15227">
        <ele>6.39</ele>
        <time>2020-07-28T10:37:16Z</time>
      </trkpt>
      <trkpt lat="44.56357" lon="-0.15222">
        <ele>6.39</ele>
        <time>2020-07-28T10:37:21Z</time>
      </trkpt>
      <trkpt lat="44.56347" lon="-0.1521">
        <ele>4.94</ele>
        <time>2020-07-28T10:37:32Z</time>
      </trkpt>
      <trkpt lat="44.56346" lon="-0.15205">
        <ele>6.39</ele>
        <time>2020-07-28T10:37:36Z</time>
      </trkpt>
      <trkpt lat="44.56347" lon="-0.15207">
        <ele>6.39</ele>
        <time>2020-07-28T10:37:58Z</time>
      </trkpt>
      <trkpt lat="44.56342" lon="-0.15202">
        <ele>6.39</ele>
        <time>2020-07-28T10:38:23Z</time>
      </trkpt>
      <trkpt lat="44.56343" lon="-0.15206">
        <ele>6.39</ele>
        <time>2020-07-28T10:38:54Z</time>
      </trkpt>
      <trkpt lat="44.56343" lon="-0.15209">
        <ele>6.39</ele>
        <time>2020-07-28T10:39:17Z</time>
      </trkpt>
      <trkpt lat="44.56355" lon="-0.15201">
        <ele>6.39</ele>
        <time>2020-07-28T10:39:44Z</time>
      </trkpt>
      <trkpt lat="44.56356" lon="-0.15202">
        <ele>6.39</ele>
        <time>2020-07-28T10:40:15Z</time>
      </trkpt>
      <trkpt lat="44.56345" lon="-0.15203">
        <ele>6.39</ele>
        <time>2020-07-28T10:40:48Z</time>
      </trkpt>
      <trkpt lat="44.5635" lon="-0.15201">
        <ele>6.39</ele>
        <time>2020-07-28T10:41:11Z</time>
      </trkpt>
      <trkpt lat="44.56346" lon="-0.15206">
        <ele>6.39</ele>
        <time>2020-07-28T10:41:37Z</time>
      </trkpt>
      <trkpt lat="44.56357" lon="-0.15208">
        <ele>6.39</ele>
        <time>2020-07-28T10:41:54Z</time>
      </trkpt>
      <trkpt lat="44.56356" lon="-0.15213">
        <ele>6.39</ele>
        <time>2020-07-28T10:42:21Z</time>
      </trkpt>
      <trkpt lat="44.56344" lon="-0.1521">
        <ele>6.39</ele>
        <time>2020-07-28T10:42:49Z</time>
      </trkpt>
      <trkpt lat="44.56344" lon="-0.15206">
        <ele>6.87</ele>
        <time>2020-07-28T10:43:11Z</time>
      </trkpt>
      <trkpt lat="44.56345" lon="-0.1521">
        <ele>6.87</ele>
        <time>2020-07-28T10:43:27Z</time>
      </trkpt>
      <trkpt lat="44.56344" lon="-0.1521">
        <ele>6.87</ele>
        <time>2020-07-28T10:43:46Z</time>
      </trkpt>
      <trkpt lat="44.56347" lon="-0.15206">
        <ele>7.35</ele>
        <time>2020-07-28T10:44:16Z</time>
      </trkpt>
      <trkpt lat="44.56347" lon="-0.15206">
        <ele>7.35</ele>
        <time>2020-07-28T10:44:37Z</time>
      </trkpt>
      <trkpt lat="44.56348" lon="-0.15205">
        <ele>7.35</ele>
        <time>2020-07-28T10:45:01Z</time>
      </trkpt>
      <trkpt lat="44.56349" lon="-0.15201">
        <ele>7.35</ele>
        <time>2020-07-28T10:45:24Z</time>
      </trkpt>
      <trkpt lat="44.56347" lon="-0.15205">
        <ele>7.35</ele>
        <time>2020-07-28T10:45:50Z</time>
      </trkpt>
      <trkpt lat="44.56347" lon="-0.152">
        <ele>7.35</ele>
        <time>2020-07-28T10:46:23Z</time>
      </trkpt>
      <trkpt lat="44.56345" lon="-0.15205">
        <ele>7.35</ele>
        <time>2020-07-28T10:46:47Z</time>
      </trkpt>
      <trkpt lat="44.56343" lon="-0.15204">
        <ele>7.83</ele>
        <time>2020-07-28T10:47:14Z</time>
      </trkpt>
      <trkpt lat="44.56347" lon="-0.15205">
        <ele>7.83</ele>
        <time>2020-07-28T10:47:42Z</time>
      </trkpt>
      <trkpt lat="44.56347" lon="-0.15205">
        <ele>7.83</ele>
        <time>2020-07-28T10:48:02Z</time>
      </trkpt>
      <trkpt lat="44.56348" lon="-0.1521">
        <ele>7.83</ele>
        <time>2020-07-28T10:48:37Z</time>
      </trkpt>
      <trkpt lat="44.5635" lon="-0.15206">
        <ele>7.83</ele>
        <time>2020-07-28T10:49:05Z</time>
      </trkpt>
      <trkpt lat="44.56347" lon="-0.15203">
        <ele>7.83</ele>
        <time>2020-07-28T10:49:28Z</time>
      </trkpt>
      <trkpt lat="44.56346" lon="-0.15203">
        <ele>8.31</ele>
        <time>2020-07-28T10:49:50Z</time>
      </trkpt>
      <trkpt lat="44.56345" lon="-0.15205">
        <ele>8.31</ele>
        <time>2020-07-28T10:50:16Z</time>
      </trkpt>
      <trkpt lat="44.56344" lon="-0.15208">
        <ele>8.31</ele>
        <time>2020-07-28T10:50:36Z</time>
      </trkpt>
      <trkpt lat="44.56344" lon="-0.15207">
        <ele>8.31</ele>
        <time>2020-07-28T10:51:01Z</time>
      </trkpt>
      <trkpt lat="44.56342" lon="-0.15207">
        <ele>8.31</ele>
        <time>2020-07-28T10:51:25Z</time>
      </trkpt>
      <trkpt lat="44.5634" lon="-0.15208">
        <ele>8.31</ele>
        <time>2020-07-28T10:51:52Z</time>
      </trkpt>
      <trkpt lat="44.56344" lon="-0.1521">
        <ele>8.31</ele>
        <time>2020-07-28T10:52:14Z</time>
      </trkpt>
      <trkpt lat="44.56343" lon="-0.15209">
        <ele>8.31</ele>
        <time>2020-07-28T10:52:42Z</time>
      </trkpt>
      <trkpt lat="44.56344" lon="-0.15208">
        <ele>8.79</ele>
        <time>2020-07-28T10:53:02Z</time>
      </trkpt>
      <trkpt lat="44.56347" lon="-0.15208">
        <ele>7.35</ele>
        <time>2020-07-28T10:53:24Z</time>
      </trkpt>
      <trkpt lat="44.56345" lon="-0.15206">
        <ele>7.35</ele>
        <time>2020-07-28T10:53:47Z</time>
      </trkpt>
      <trkpt lat="44.56347" lon="-0.15204">
        <ele>7.83</ele>
        <time>2020-07-28T10:54:06Z</time>
      </trkpt>
      <trkpt lat="44.56346" lon="-0.15204">
        <ele>7.83</ele>
        <time>2020-07-28T10:54:28Z</time>
      </trkpt>
      <trkpt lat="44.56346" lon="-0.15203">
        <ele>7.83</ele>
        <time>2020-07-28T10:54:54Z</time>
      </trkpt>
      <trkpt lat="44.56347" lon="-0.15208">
        <ele>7.83</ele>
        <time>2020-07-28T10:55:23Z</time>
      </trkpt>
      <trkpt lat="44.56348" lon="-0.15209">
        <ele>7.83</ele>
        <time>2020-07-28T10:55:47Z</time>
      </trkpt>
      <trkpt lat="44.56346" lon="-0.15209">
        <ele>7.83</ele>
        <time>2020-07-28T10:56:05Z</time>
      </trkpt>
      <trkpt lat="44.56347" lon="-0.15208">
        <ele>7.83</ele>
        <time>2020-07-28T10:56:28Z</time>
      </trkpt>
      <trkpt lat="44.56346" lon="-0.15205">
        <ele>7.83</ele>
        <time>2020-07-28T10:56:49Z</time>
      </trkpt>
      <trkpt lat="44.56343" lon="-0.15207">
        <ele>8.31</ele>
        <time>2020-07-28T10:57:17Z</time>
      </trkpt>
      <trkpt lat="44.56341" lon="-0.15206">
        <ele>8.31</ele>
        <time>2020-07-28T10:57:44Z</time>
      </trkpt>
      <trkpt lat="44.56339" lon="-0.15207">
        <ele>8.31</ele>
        <time>2020-07-28T10:58:07Z</time>
      </trkpt>
      <trkpt lat="44.56342" lon="-0.15207">
        <ele>8.31</ele>
        <time>2020-07-28T10:58:25Z</time>
      </trkpt>
      <trkpt lat="44.56343" lon="-0.15207">
        <ele>8.31</ele>
        <time>2020-07-28T10:58:43Z</time>
      </trkpt>
      <trkpt lat="44.56344" lon="-0.15207">
        <ele>8.31</ele>
        <time>2020-07-28T10:59:09Z</time>
      </trkpt>
      <trkpt lat="44.56347" lon="-0.15207">
        <ele>8.31</ele>
        <time>2020-07-28T10:59:39Z</time>
      </trkpt>
      <trkpt lat="44.56347" lon="-0.15208">
        <ele>8.79</ele>
        <time>2020-07-28T10:59:59Z</time>
      </trkpt>
      <trkpt lat="44.56346" lon="-0.15206">
        <ele>8.79</ele>
        <time>2020-07-28T11:00:22Z</time>
      </trkpt>
      <trkpt lat="44.56342" lon="-0.15204">
        <ele>8.79</ele>
        <time>2020-07-28T11:00:48Z</time>
      </trkpt>
      <trkpt lat="44.56343" lon="-0.15207">
        <ele>8.79</ele>
        <time>2020-07-28T11:01:11Z</time>
      </trkpt>
      <trkpt lat="44.56345" lon="-0.15206">
        <ele>8.79</ele>
        <time>2020-07-28T11:01:31Z</time>
      </trkpt>
      <trkpt lat="44.56346" lon="-0.15204">
        <ele>8.79</ele>
        <time>2020-07-28T11:01:49Z</time>
      </trkpt>
      <trkpt lat="44.56346" lon="-0.15206">
        <ele>8.79</ele>
        <time>2020-07-28T11:02:12Z</time>
      </trkpt>
      <trkpt lat="44.56345" lon="-0.15204">
        <ele>9.27</ele>
        <time>2020-07-28T11:02:39Z</time>
      </trkpt>
      <trkpt lat="44.56344" lon="-0.15204">
        <ele>9.27</ele>
        <time>2020-07-28T11:03:14Z</time>
      </trkpt>
      <trkpt lat="44.56343" lon="-0.15206">
        <ele>9.27</ele>
        <time>2020-07-28T11:03:37Z</time>
      </trkpt>
      <trkpt lat="44.56342" lon="-0.15206">
        <ele>9.27</ele>
        <time>2020-07-28T11:04:01Z</time>
      </trkpt>
      <trkpt lat="44.56343" lon="-0.15205">
        <ele>9.27</ele>
        <time>2020-07-28T11:04:25Z</time>
      </trkpt>
      <trkpt lat="44.56345" lon="-0.15203">
        <ele>9.27</ele>
        <time>2020-07-28T11:04:54Z</time>
      </trkpt>
      <trkpt lat="44.56344" lon="-0.15207">
        <ele>9.27</ele>
        <time>2020-07-28T11:05:21Z</time>
      </trkpt>
      <trkpt lat="44.56344" lon="-0.15207">
        <ele>9.27</ele>
        <time>2020-07-28T11:05:52Z</time>
      </trkpt>
      <trkpt lat="44.56345" lon="-0.15205">
        <ele>9.27</ele>
        <time>2020-07-28T11:06:11Z</time>
      </trkpt>
      <trkpt lat="44.56343" lon="-0.15208">
        <ele>9.27</ele>
        <time>2020-07-28T11:06:42Z</time>
      </trkpt>
      <trkpt lat="44.56345" lon="-0.1521">
        <ele>9.27</ele>
        <time>2020-07-28T11:07:05Z</time>
      </trkpt>
      <trkpt lat="44.56344" lon="-0.15206">
        <ele>9.75</ele>
        <time>2020-07-28T11:07:29Z</time>
      </trkpt>
      <trkpt lat="44.56345" lon="-0.15205">
        <ele>9.75</ele>
        <time>2020-07-28T11:07:57Z</time>
      </trkpt>
      <trkpt lat="44.56345" lon="-0.15206">
        <ele>9.75</ele>
        <time>2020-07-28T11:08:27Z</time>
      </trkpt>
      <trkpt lat="44.56345" lon="-0.15207">
        <ele>9.27</ele>
        <time>2020-07-28T11:09:06Z</time>
      </trkpt>
      <trkpt lat="44.56345" lon="-0.15208">
        <ele>9.27</ele>
        <time>2020-07-28T11:09:28Z</time>
      </trkpt>
      <trkpt lat="44.56344" lon="-0.15206">
        <ele>9.27</ele>
        <time>2020-07-28T11:09:59Z</time>
      </trkpt>
      <trkpt lat="44.56342" lon="-0.15207">
        <ele>9.27</ele>
        <time>2020-07-28T11:10:28Z</time>
      </trkpt>
      <trkpt lat="44.56343" lon="-0.15208">
        <ele>9.27</ele>
        <time>2020-07-28T11:10:49Z</time>
      </trkpt>
      <trkpt lat="44.56343" lon="-0.15208">
        <ele>9.27</ele>
        <time>2020-07-28T11:11:13Z</time>
      </trkpt>
      <trkpt lat="44.56346" lon="-0.15209">
        <ele>9.27</ele>
        <time>2020-07-28T11:11:40Z</time>
      </trkpt>
      <trkpt lat="44.56347" lon="-0.15209">
        <ele>9.27</ele>
        <time>2020-07-28T11:12:09Z</time>
      </trkpt>
      <trkpt lat="44.56346" lon="-0.15209">
        <ele>9.27</ele>
        <time>2020-07-28T11:12:25Z</time>
      </trkpt>
      <trkpt lat="44.56348" lon="-0.15209">
        <ele>9.27</ele>
        <time>2020-07-28T11:12:51Z</time>
      </trkpt>
      <trkpt lat="44.56346" lon="-0.15206">
        <ele>9.27</ele>
        <time>2020-07-28T11:13:20Z</time>
      </trkpt>
      <trkpt lat="44.56346" lon="-0.15208">
        <ele>9.27</ele>
        <time>2020-07-28T11:13:46Z</time>
      </trkpt>
      <trkpt lat="44.56345" lon="-0.15207">
        <ele>9.27</ele>
        <time>2020-07-28T11:14:04Z</time>
      </trkpt>
      <trkpt lat="44.56344" lon="-0.15206">
        <ele>9.27</ele>
        <time>2020-07-28T11:14:27Z</time>
      </trkpt>
      <trkpt lat="44.56347" lon="-0.15207">
        <ele>9.27</ele>
        <time>2020-07-28T11:14:43Z</time>
      </trkpt>
      <trkpt lat="44.56349" lon="-0.15209">
        <ele>9.27</ele>
        <time>2020-07-28T11:15:09Z</time>
      </trkpt>
      <trkpt lat="44.56345" lon="-0.15207">
        <ele>9.27</ele>
        <time>2020-07-28T11:15:37Z</time>
      </trkpt>
      <trkpt lat="44.56343" lon="-0.15201">
        <ele>9.75</ele>
        <time>2020-07-28T11:16:01Z</time>
      </trkpt>
      <trkpt lat="44.56345" lon="-0.15205">
        <ele>9.75</ele>
        <time>2020-07-28T11:16:25Z</time>
      </trkpt>
      <trkpt lat="44.56344" lon="-0.15205">
        <ele>9.75</ele>
        <time>2020-07-28T11:16:53Z</time>
      </trkpt>
      <trkpt lat="44.56348" lon="-0.15206">
        <ele>9.75</ele>
        <time>2020-07-28T11:17:17Z</time>
      </trkpt>
      <trkpt lat="44.56346" lon="-0.15209">
        <ele>9.75</ele>
        <time>2020-07-28T11:17:41Z</time>
      </trkpt>
      <trkpt lat="44.56345" lon="-0.15205">
        <ele>9.75</ele>
        <time>2020-07-28T11:18:01Z</time>
      </trkpt>
      <trkpt lat="44.56346" lon="-0.15206">
        <ele>9.75</ele>
        <time>2020-07-28T11:18:26Z</time>
      </trkpt>
      <trkpt lat="44.56347" lon="-0.15206">
        <ele>9.75</ele>
        <time>2020-07-28T11:18:43Z</time>
      </trkpt>
      <trkpt lat="44.56344" lon="-0.15208">
        <ele>9.75</ele>
        <time>2020-07-28T11:19:08Z</time>
      </trkpt>
      <trkpt lat="44.56344" lon="-0.15206">
        <ele>9.75</ele>
        <time>2020-07-28T11:19:38Z</time>
      </trkpt>
      <trkpt lat="44.56346" lon="-0.15204">
        <ele>10.23</ele>
        <time>2020-07-28T11:20:01Z</time>
      </trkpt>
      <trkpt lat="44.56348" lon="-0.15207">
        <ele>10.23</ele>
        <time>2020-07-28T11:20:24Z</time>
      </trkpt>
      <trkpt lat="44.56347" lon="-0.15206">
        <ele>10.23</ele>
        <time>2020-07-28T11:20:49Z</time>
      </trkpt>
      <trkpt lat="44.56348" lon="-0.15204">
        <ele>10.23</ele>
        <time>2020-07-28T11:21:14Z</time>
      </trkpt>
      <trkpt lat="44.5635" lon="-0.15206">
        <ele>10.23</ele>
        <time>2020-07-28T11:21:46Z</time>
      </trkpt>
      <trkpt lat="44.56349" lon="-0.15205">
        <ele>10.71</ele>
        <time>2020-07-28T11:22:08Z</time>
      </trkpt>
      <trkpt lat="44.56348" lon="-0.15205">
        <ele>10.71</ele>
        <time>2020-07-28T11:22:30Z</time>
      </trkpt>
      <trkpt lat="44.56343" lon="-0.15205">
        <ele>10.71</ele>
        <time>2020-07-28T11:23:05Z</time>
      </trkpt>
      <trkpt lat="44.56345" lon="-0.15207">
        <ele>10.71</ele>
        <time>2020-07-28T11:23:36Z</time>
      </trkpt>
      <trkpt lat="44.56344" lon="-0.15207">
        <ele>10.71</ele>
        <time>2020-07-28T11:24:04Z</time>
      </trkpt>
      <trkpt lat="44.56346" lon="-0.15203">
        <ele>10.71</ele>
        <time>2020-07-28T11:24:30Z</time>
      </trkpt>
      <trkpt lat="44.56348" lon="-0.15203">
        <ele>10.71</ele>
        <time>2020-07-28T11:25:04Z</time>
      </trkpt>
      <trkpt lat="44.56347" lon="-0.15206">
        <ele>10.71</ele>
        <time>2020-07-28T11:25:25Z</time>
      </trkpt>
      <trkpt lat="44.56349" lon="-0.15205">
        <ele>11.19</ele>
        <time>2020-07-28T11:25:52Z</time>
      </trkpt>
      <trkpt lat="44.56348" lon="-0.15201">
        <ele>11.19</ele>
        <time>2020-07-28T11:26:19Z</time>
      </trkpt>
      <trkpt lat="44.5635" lon="-0.15199">
        <ele>11.19</ele>
        <time>2020-07-28T11:26:38Z</time>
      </trkpt>
      <trkpt lat="44.56348" lon="-0.15202">
        <ele>11.19</ele>
        <time>2020-07-28T11:27:06Z</time>
      </trkpt>
      <trkpt lat="44.56346" lon="-0.15205">
        <ele>11.19</ele>
        <time>2020-07-28T11:27:25Z</time>
      </trkpt>
      <trkpt lat="44.56346" lon="-0.15205">
        <ele>11.67</ele>
        <time>2020-07-28T11:27:50Z</time>
      </trkpt>
      <trkpt lat="44.56349" lon="-0.15202">
        <ele>11.67</ele>
        <time>2020-07-28T11:28:10Z</time>
      </trkpt>
      <trkpt lat="44.56353" lon="-0.15207">
        <ele>11.67</ele>
        <time>2020-07-28T11:28:34Z</time>
      </trkpt>
      <trkpt lat="44.56353" lon="-0.15203">
        <ele>11.67</ele>
        <time>2020-07-28T11:28:59Z</time>
      </trkpt>
      <trkpt lat="44.56351" lon="-0.15203">
        <ele>12.15</ele>
        <time>2020-07-28T11:29:22Z</time>
      </trkpt>
      <trkpt lat="44.56351" lon="-0.15205">
        <ele>12.15</ele>
        <time>2020-07-28T11:29:43Z</time>
      </trkpt>
      <trkpt lat="44.56345" lon="-0.15206">
        <ele>12.15</ele>
        <time>2020-07-28T11:30:15Z</time>
      </trkpt>
      <trkpt lat="44.56347" lon="-0.15208">
        <ele>12.15</ele>
        <time>2020-07-28T11:30:44Z</time>
      </trkpt>
      <trkpt lat="44.56347" lon="-0.15206">
        <ele>12.15</ele>
        <time>2020-07-28T11:31:16Z</time>
      </trkpt>
      <trkpt lat="44.56346" lon="-0.15206">
        <ele>12.63</ele>
        <time>2020-07-28T11:31:43Z</time>
      </trkpt>
      <trkpt lat="44.56343" lon="-0.15206">
        <ele>12.63</ele>
        <time>2020-07-28T11:32:17Z</time>
      </trkpt>
      <trkpt lat="44.56345" lon="-0.15206">
        <ele>12.63</ele>
        <time>2020-07-28T11:32:49Z</time>
      </trkpt>
      <trkpt lat="44.56345" lon="-0.15204">
        <ele>12.63</ele>
        <time>2020-07-28T11:33:08Z</time>
      </trkpt>
      <trkpt lat="44.56345" lon="-0.15204">
        <ele>12.63</ele>
        <time>2020-07-28T11:33:34Z</time>
      </trkpt>
      <trkpt lat="44.56344" lon="-0.15203">
        <ele>12.63</ele>
        <time>2020-07-28T11:33:57Z</time>
      </trkpt>
      <trkpt lat="44.56344" lon="-0.15206">
        <ele>12.63</ele>
        <time>2020-07-28T11:34:18Z</time>
      </trkpt>
      <trkpt lat="44.56346" lon="-0.15206">
        <ele>13.12</ele>
        <time>2020-07-28T11:34:42Z</time>
      </trkpt>
      <trkpt lat="44.56345" lon="-0.15207">
        <ele>13.12</ele>
        <time>2020-07-28T11:35:09Z</time>
      </trkpt>
      <trkpt lat="44.56344" lon="-0.15206">
        <ele>13.12</ele>
        <time>2020-07-28T11:35:32Z</time>
      </trkpt>
      <trkpt lat="44.56341" lon="-0.15205">
        <ele>13.12</ele>
        <time>2020-07-28T11:35:55Z</time>
      </trkpt>
      <trkpt lat="44.56343" lon="-0.15206">
        <ele>13.12</ele>
        <time>2020-07-28T11:36:21Z</time>
      </trkpt>
      <trkpt lat="44.56346" lon="-0.15202">
        <ele>13.6</ele>
        <time>2020-07-28T11:36:53Z</time>
      </trkpt>
      <trkpt lat="44.56349" lon="-0.15203">
        <ele>13.6</ele>
        <time>2020-07-28T11:37:26Z</time>
      </trkpt>
      <trkpt lat="44.56348" lon="-0.15204">
        <ele>13.6</ele>
        <time>2020-07-28T11:37:50Z</time>
      </trkpt>
      <trkpt lat="44.56347" lon="-0.15206">
        <ele>14.08</ele>
        <time>2020-07-28T11:38:17Z</time>
      </trkpt>
      <trkpt lat="44.56347" lon="-0.15204">
        <ele>14.08</ele>
        <time>2020-07-28T11:38:53Z</time>
      </trkpt>
      <trkpt lat="44.56346" lon="-0.15206">
        <ele>14.08</ele>
        <time>2020-07-28T11:39:21Z</time>
      </trkpt>
      <trkpt lat="44.56349" lon="-0.15202">
        <ele>14.56</ele>
        <time>2020-07-28T11:39:49Z</time>
      </trkpt>
      <trkpt lat="44.56346" lon="-0.15206">
        <ele>14.56</ele>
        <time>2020-07-28T11:40:23Z</time>
      </trkpt>
      <trkpt lat="44.56344" lon="-0.15206">
        <ele>14.56</ele>
        <time>2020-07-28T11:40:55Z</time>
      </trkpt>
      <trkpt lat="44.56344" lon="-0.15205">
        <ele>14.56</ele>
        <time>2020-07-28T11:41:17Z</time>
      </trkpt>
      <trkpt lat="44.56342" lon="-0.15207">
        <ele>14.56</ele>
        <time>2020-07-28T11:41:48Z</time>
      </trkpt>
      <trkpt lat="44.56342" lon="-0.15206">
        <ele>14.56</ele>
        <time>2020-07-28T11:42:10Z</time>
      </trkpt>
      <trkpt lat="44.56343" lon="-0.15206">
        <ele>14.56</ele>
        <time>2020-07-28T11:42:32Z</time>
      </trkpt>
      <trkpt lat="44.56344" lon="-0.15206">
        <ele>14.56</ele>
        <time>2020-07-28T11:43:02Z</time>
      </trkpt>
      <trkpt lat="44.56343" lon="-0.15207">
        <ele>14.56</ele>
        <time>2020-07-28T11:43:32Z</time>
      </trkpt>
      <trkpt lat="44.56343" lon="-0.15208">
        <ele>14.56</ele>
        <time>2020-07-28T11:43:52Z</time>
      </trkpt>
      <trkpt lat="44.56345" lon="-0.15208">
        <ele>14.56</ele>
        <time>2020-07-28T11:44:11Z</time>
      </trkpt>
      <trkpt lat="44.56345" lon="-0.15207">
        <ele>14.56</ele>
        <time>2020-07-28T11:44:36Z</time>
      </trkpt>
      <trkpt lat="44.56343" lon="-0.15208">
        <ele>14.56</ele>
        <time>2020-07-28T11:44:55Z</time>
      </trkpt>
      <trkpt lat="44.56343" lon="-0.15209">
        <ele>14.56</ele>
        <time>2020-07-28T11:45:18Z</time>
      </trkpt>
      <trkpt lat="44.56344" lon="-0.15209">
        <ele>14.56</ele>
        <time>2020-07-28T11:45:47Z</time>
      </trkpt>
      <trkpt lat="44.56344" lon="-0.15207">
        <ele>14.56</ele>
        <time>2020-07-28T11:46:11Z</time>
      </trkpt>
      <trkpt lat="44.56341" lon="-0.15208">
        <ele>14.08</ele>
        <time>2020-07-28T11:46:39Z</time>
      </trkpt>
      <trkpt lat="44.56343" lon="-0.15206">
        <ele>14.08</ele>
        <time>2020-07-28T11:47:02Z</time>
      </trkpt>
      <trkpt lat="44.56344" lon="-0.15206">
        <ele>14.08</ele>
        <time>2020-07-28T11:47:28Z</time>
      </trkpt>
      <trkpt lat="44.56343" lon="-0.15207">
        <ele>14.08</ele>
        <time>2020-07-28T11:47:54Z</time>
      </trkpt>
      <trkpt lat="44.56344" lon="-0.15206">
        <ele>14.08</ele>
        <time>2020-07-28T11:48:16Z</time>
      </trkpt>
      <trkpt lat="44.56341" lon="-0.15207">
        <ele>14.08</ele>
        <time>2020-07-28T11:48:43Z</time>
      </trkpt>
      <trkpt lat="44.56344" lon="-0.15207">
        <ele>14.08</ele>
        <time>2020-07-28T11:49:15Z</time>
      </trkpt>
      <trkpt lat="44.56342" lon="-0.15206">
        <ele>14.08</ele>
        <time>2020-07-28T11:49:48Z</time>
      </trkpt>
      <trkpt lat="44.56341" lon="-0.15207">
        <ele>14.08</ele>
        <time>2020-07-28T11:50:13Z</time>
      </trkpt>
      <trkpt lat="44.56346" lon="-0.15204">
        <ele>14.08</ele>
        <time>2020-07-28T11:50:34Z</time>
      </trkpt>
      <trkpt lat="44.56356" lon="-0.15221">
        <ele>13.6</ele>
        <time>2020-07-28T11:50:51Z</time>
      </trkpt>
      <trkpt lat="44.5636" lon="-0.15237">
        <ele>13.6</ele>
        <time>2020-07-28T11:51:10Z</time>
      </trkpt>
      <trkpt lat="44.56362" lon="-0.15258">
        <ele>13.6</ele>
        <time>2020-07-28T11:51:26Z</time>
      </trkpt>
      <trkpt lat="44.56366" lon="-0.15293">
        <ele>13.6</ele>
        <time>2020-07-28T11:51:49Z</time>
      </trkpt>
      <trkpt lat="44.56365" lon="-0.15323">
        <ele>13.6</ele>
        <time>2020-07-28T11:52:10Z</time>
      </trkpt>
      <trkpt lat="44.5636" lon="-0.15354">
        <ele>13.6</ele>
        <time>2020-07-28T11:52:31Z</time>
      </trkpt>
      <trkpt lat="44.56359" lon="-0.1537">
        <ele>13.6</ele>
        <time>2020-07-28T11:52:46Z</time>
      </trkpt>
      <trkpt lat="44.56359" lon="-0.1539">
        <ele>13.12</ele>
        <time>2020-07-28T11:53:03Z</time>
      </trkpt>
      <trkpt lat="44.5636" lon="-0.15402">
        <ele>13.12</ele>
        <time>2020-07-28T11:53:14Z</time>
      </trkpt>
      <trkpt lat="44.56359" lon="-0.15413">
        <ele>13.12</ele>
        <time>2020-07-28T11:53:21Z</time>
      </trkpt>
      <trkpt lat="44.56359" lon="-0.15416">
        <ele>13.12</ele>
        <time>2020-07-28T11:53:23Z</time>
      </trkpt>
      <trkpt lat="44.56356" lon="-0.15442">
        <ele>13.6</ele>
        <time>2020-07-28T11:53:42Z</time>
      </trkpt>
      <trkpt lat="44.56357" lon="-0.15456">
        <ele>13.6</ele>
        <time>2020-07-28T11:53:51Z</time>
      </trkpt>
      <trkpt lat="44.56357" lon="-0.15464">
        <ele>13.6</ele>
        <time>2020-07-28T11:53:56Z</time>
      </trkpt>
      <trkpt lat="44.56356" lon="-0.1549">
        <ele>13.6</ele>
        <time>2020-07-28T11:54:14Z</time>
      </trkpt>
      <trkpt lat="44.56355" lon="-0.1551">
        <ele>14.56</ele>
        <time>2020-07-28T11:54:32Z</time>
      </trkpt>
      <trkpt lat="44.56352" lon="-0.15514">
        <ele>14.56</ele>
        <time>2020-07-28T11:54:37Z</time>
      </trkpt>
      <trkpt lat="44.56354" lon="-0.1552">
        <ele>14.56</ele>
        <time>2020-07-28T11:54:51Z</time>
      </trkpt>
      <trkpt lat="44.56357" lon="-0.15518">
        <ele>14.56</ele>
        <time>2020-07-28T11:55:04Z</time>
      </trkpt>
      <trkpt lat="44.56354" lon="-0.15518">
        <ele>14.56</ele>
        <time>2020-07-28T11:55:13Z</time>
      </trkpt>
      <trkpt lat="44.56345" lon="-0.15515">
        <ele>14.56</ele>
        <time>2020-07-28T11:55:28Z</time>
      </trkpt>
      <trkpt lat="44.56332" lon="-0.1551">
        <ele>16</ele>
        <time>2020-07-28T11:55:44Z</time>
      </trkpt>
      <trkpt lat="44.56322" lon="-0.1552">
        <ele>17.44</ele>
        <time>2020-07-28T11:55:58Z</time>
      </trkpt>
      <trkpt lat="44.56317" lon="-0.15532">
        <ele>17.44</ele>
        <time>2020-07-28T11:56:07Z</time>
      </trkpt>
      <trkpt lat="44.56318" lon="-0.15535">
        <ele>18.88</ele>
        <time>2020-07-28T11:56:09Z</time>
      </trkpt>
      <trkpt lat="44.56315" lon="-0.15564">
        <ele>19.84</ele>
        <time>2020-07-28T11:56:30Z</time>
      </trkpt>
      <trkpt lat="44.56311" lon="-0.15584">
        <ele>21.29</ele>
        <time>2020-07-28T11:56:47Z</time>
      </trkpt>
      <trkpt lat="44.56304" lon="-0.15603">
        <ele>23.69</ele>
        <time>2020-07-28T11:57:09Z</time>
      </trkpt>
      <trkpt lat="44.56295" lon="-0.15614">
        <ele>25.13</ele>
        <time>2020-07-28T11:57:26Z</time>
      </trkpt>
      <trkpt lat="44.56284" lon="-0.15617">
        <ele>25.61</ele>
        <time>2020-07-28T11:57:44Z</time>
      </trkpt>
      <trkpt lat="44.56264" lon="-0.15617">
        <ele>26.57</ele>
        <time>2020-07-28T11:58:05Z</time>
      </trkpt>
      <trkpt lat="44.5624" lon="-0.15618">
        <ele>28.02</ele>
        <time>2020-07-28T11:58:25Z</time>
      </trkpt>
      <trkpt lat="44.56224" lon="-0.15619">
        <ele>28.5</ele>
        <time>2020-07-28T11:58:45Z</time>
      </trkpt>
      <trkpt lat="44.56219" lon="-0.15621">
        <ele>29.46</ele>
        <time>2020-07-28T11:58:59Z</time>
      </trkpt>
      <trkpt lat="44.56215" lon="-0.15628">
        <ele>29.46</ele>
        <time>2020-07-28T11:59:05Z</time>
      </trkpt>
      <trkpt lat="44.562" lon="-0.15635">
        <ele>29.94</ele>
        <time>2020-07-28T11:59:21Z</time>
      </trkpt>
      <trkpt lat="44.56187" lon="-0.15643">
        <ele>30.9</ele>
        <time>2020-07-28T11:59:34Z</time>
      </trkpt>
      <trkpt lat="44.56185" lon="-0.15649">
        <ele>31.38</ele>
        <time>2020-07-28T11:59:39Z</time>
      </trkpt>
      <trkpt lat="44.5617" lon="-0.15665">
        <ele>31.38</ele>
        <time>2020-07-28T11:59:56Z</time>
      </trkpt>
      <trkpt lat="44.56161" lon="-0.15691">
        <ele>31.86</ele>
        <time>2020-07-28T12:00:13Z</time>
      </trkpt>
      <trkpt lat="44.56156" lon="-0.15695">
        <ele>32.34</ele>
        <time>2020-07-28T12:00:19Z</time>
      </trkpt>
      <trkpt lat="44.56146" lon="-0.15699">
        <ele>32.34</ele>
        <time>2020-07-28T12:00:28Z</time>
      </trkpt>
      <trkpt lat="44.56142" lon="-0.15706">
        <ele>31.86</ele>
        <time>2020-07-28T12:00:34Z</time>
      </trkpt>
      <trkpt lat="44.56133" lon="-0.15725">
        <ele>31.38</ele>
        <time>2020-07-28T12:00:50Z</time>
      </trkpt>
      <trkpt lat="44.56128" lon="-0.15734">
        <ele>30.9</ele>
        <time>2020-07-28T12:00:58Z</time>
      </trkpt>
      <trkpt lat="44.56119" lon="-0.15759">
        <ele>30.42</ele>
        <time>2020-07-28T12:01:16Z</time>
      </trkpt>
      <trkpt lat="44.56114" lon="-0.15772">
        <ele>31.86</ele>
        <time>2020-07-28T12:01:26Z</time>
      </trkpt>
      <trkpt lat="44.56105" lon="-0.15798">
        <ele>30.42</ele>
        <time>2020-07-28T12:01:43Z</time>
      </trkpt>
      <trkpt lat="44.56104" lon="-0.15801">
        <ele>32.34</ele>
        <time>2020-07-28T12:01:46Z</time>
      </trkpt>
      <trkpt lat="44.56103" lon="-0.15804">
        <ele>30.9</ele>
        <time>2020-07-28T12:01:48Z</time>
      </trkpt>
      <trkpt lat="44.56099" lon="-0.15812">
        <ele>32.34</ele>
        <time>2020-07-28T12:01:54Z</time>
      </trkpt>
      <trkpt lat="44.561" lon="-0.15814">
        <ele>30.9</ele>
        <time>2020-07-28T12:01:57Z</time>
      </trkpt>
      <trkpt lat="44.56106" lon="-0.15814">
        <ele>30.9</ele>
        <time>2020-07-28T12:02:16Z</time>
      </trkpt>
      <trkpt lat="44.56104" lon="-0.15815">
        <ele>30.9</ele>
        <time>2020-07-28T12:02:20Z</time>
      </trkpt>
      <trkpt lat="44.56098" lon="-0.15824">
        <ele>30.9</ele>
        <time>2020-07-28T12:02:29Z</time>
      </trkpt>
      <trkpt lat="44.56097" lon="-0.15828">
        <ele>31.86</ele>
        <time>2020-07-28T12:02:31Z</time>
      </trkpt>
      <trkpt lat="44.56085" lon="-0.15844">
        <ele>31.86</ele>
        <time>2020-07-28T12:02:45Z</time>
      </trkpt>
      <trkpt lat="44.56076" lon="-0.15865">
        <ele>30.9</ele>
        <time>2020-07-28T12:03:00Z</time>
      </trkpt>
      <trkpt lat="44.56076" lon="-0.15867">
        <ele>30.9</ele>
        <time>2020-07-28T12:03:01Z</time>
      </trkpt>
      <trkpt lat="44.56073" lon="-0.15891">
        <ele>30.9</ele>
        <time>2020-07-28T12:03:17Z</time>
      </trkpt>
      <trkpt lat="44.56071" lon="-0.15906">
        <ele>32.34</ele>
        <time>2020-07-28T12:03:26Z</time>
      </trkpt>
      <trkpt lat="44.56069" lon="-0.15925">
        <ele>31.38</ele>
        <time>2020-07-28T12:03:38Z</time>
      </trkpt>
      <trkpt lat="44.56068" lon="-0.15939">
        <ele>32.82</ele>
        <time>2020-07-28T12:03:48Z</time>
      </trkpt>
      <trkpt lat="44.56067" lon="-0.15953">
        <ele>30.42</ele>
        <time>2020-07-28T12:03:57Z</time>
      </trkpt>
      <trkpt lat="44.56066" lon="-0.1596">
        <ele>31.86</ele>
        <time>2020-07-28T12:04:02Z</time>
      </trkpt>
      <trkpt lat="44.56066" lon="-0.15974">
        <ele>30.9</ele>
        <time>2020-07-28T12:04:10Z</time>
      </trkpt>
      <trkpt lat="44.56064" lon="-0.15989">
        <ele>31.86</ele>
        <time>2020-07-28T12:04:23Z</time>
      </trkpt>
      <trkpt lat="44.56061" lon="-0.16012">
        <ele>30.42</ele>
        <time>2020-07-28T12:04:37Z</time>
      </trkpt>
      <trkpt lat="44.56061" lon="-0.16021">
        <ele>31.86</ele>
        <time>2020-07-28T12:04:42Z</time>
      </trkpt>
      <trkpt lat="44.56061" lon="-0.16027">
        <ele>30.42</ele>
        <time>2020-07-28T12:04:45Z</time>
      </trkpt>
      <trkpt lat="44.56061" lon="-0.16029">
        <ele>30.42</ele>
        <time>2020-07-28T12:04:46Z</time>
      </trkpt>
      <trkpt lat="44.56058" lon="-0.1606">
        <ele>31.86</ele>
        <time>2020-07-28T12:05:05Z</time>
      </trkpt>
      <trkpt lat="44.56055" lon="-0.16075">
        <ele>30.42</ele>
        <time>2020-07-28T12:05:17Z</time>
      </trkpt>
      <trkpt lat="44.56048" lon="-0.16108">
        <ele>30.42</ele>
        <time>2020-07-28T12:05:38Z</time>
      </trkpt>
      <trkpt lat="44.56044" lon="-0.16134">
        <ele>30.42</ele>
        <time>2020-07-28T12:05:55Z</time>
      </trkpt>
      <trkpt lat="44.56038" lon="-0.16163">
        <ele>29.94</ele>
        <time>2020-07-28T12:06:13Z</time>
      </trkpt>
      <trkpt lat="44.56036" lon="-0.16171">
        <ele>29.94</ele>
        <time>2020-07-28T12:06:20Z</time>
      </trkpt>
      <trkpt lat="44.56034" lon="-0.16177">
        <ele>31.86</ele>
        <time>2020-07-28T12:06:24Z</time>
      </trkpt>
      <trkpt lat="44.56034" lon="-0.16178">
        <ele>29.94</ele>
        <time>2020-07-28T12:06:26Z</time>
      </trkpt>
      <trkpt lat="44.56024" lon="-0.16198">
        <ele>29.94</ele>
        <time>2020-07-28T12:06:41Z</time>
      </trkpt>
      <trkpt lat="44.56006" lon="-0.16211">
        <ele>29.46</ele>
        <time>2020-07-28T12:06:59Z</time>
      </trkpt>
      <trkpt lat="44.55985" lon="-0.16211">
        <ele>29.46</ele>
        <time>2020-07-28T12:07:18Z</time>
      </trkpt>
      <trkpt lat="44.55969" lon="-0.16214">
        <ele>29.94</ele>
        <time>2020-07-28T12:07:33Z</time>
      </trkpt>
      <trkpt lat="44.55954" lon="-0.16216">
        <ele>29.46</ele>
        <time>2020-07-28T12:07:48Z</time>
      </trkpt>
      <trkpt lat="44.55938" lon="-0.1622">
        <ele>28.98</ele>
        <time>2020-07-28T12:08:05Z</time>
      </trkpt>
      <trkpt lat="44.5593" lon="-0.16221">
        <ele>28.98</ele>
        <time>2020-07-28T12:08:24Z</time>
      </trkpt>
      <trkpt lat="44.5593" lon="-0.16216">
        <ele>27.53</ele>
        <time>2020-07-28T12:08:49Z</time>
      </trkpt>
      <trkpt lat="44.55931" lon="-0.16224">
        <ele>27.53</ele>
        <time>2020-07-28T12:09:13Z</time>
      </trkpt>
      <trkpt lat="44.5592" lon="-0.16249">
        <ele>24.65</ele>
        <time>2020-07-28T12:09:31Z</time>
      </trkpt>
      <trkpt lat="44.55923" lon="-0.1626">
        <ele>21.77</ele>
        <time>2020-07-28T12:09:41Z</time>
      </trkpt>
      <trkpt lat="44.55931" lon="-0.16289">
        <ele>20.81</ele>
        <time>2020-07-28T12:10:00Z</time>
      </trkpt>
      <trkpt lat="44.55929" lon="-0.1629">
        <ele>19.84</ele>
        <time>2020-07-28T12:10:18Z</time>
      </trkpt>
      <trkpt lat="44.55933" lon="-0.16294">
        <ele>19.84</ele>
        <time>2020-07-28T12:10:37Z</time>
      </trkpt>
      <trkpt lat="44.5593" lon="-0.16308">
        <ele>19.36</ele>
        <time>2020-07-28T12:10:59Z</time>
      </trkpt>
      <trkpt lat="44.55933" lon="-0.1631">
        <ele>19.36</ele>
        <time>2020-07-28T12:11:20Z</time>
      </trkpt>
      <trkpt lat="44.55935" lon="-0.1632">
        <ele>17.92</ele>
        <time>2020-07-28T12:11:40Z</time>
      </trkpt>
      <trkpt lat="44.55931" lon="-0.16312">
        <ele>17.92</ele>
        <time>2020-07-28T12:12:04Z</time>
      </trkpt>
      <trkpt lat="44.55931" lon="-0.16319">
        <ele>17.92</ele>
        <time>2020-07-28T12:12:24Z</time>
      </trkpt>
      <trkpt lat="44.5593" lon="-0.16319">
        <ele>17.44</ele>
        <time>2020-07-28T12:12:46Z</time>
      </trkpt>
      <trkpt lat="44.5593" lon="-0.16321">
        <ele>17.92</ele>
        <time>2020-07-28T12:13:19Z</time>
      </trkpt>
      <trkpt lat="44.55937" lon="-0.16317">
        <ele>17.44</ele>
        <time>2020-07-28T12:13:50Z</time>
      </trkpt>
      <trkpt lat="44.55936" lon="-0.16314">
        <ele>16.96</ele>
        <time>2020-07-28T12:14:18Z</time>
      </trkpt>
      <trkpt lat="44.55932" lon="-0.16311">
        <ele>16.96</ele>
        <time>2020-07-28T12:14:31Z</time>
      </trkpt>
      <trkpt lat="44.55928" lon="-0.16308">
        <ele>16.96</ele>
        <time>2020-07-28T12:14:48Z</time>
      </trkpt>
      <trkpt lat="44.55924" lon="-0.16306">
        <ele>16.48</ele>
        <time>2020-07-28T12:15:04Z</time>
      </trkpt>
      <trkpt lat="44.55924" lon="-0.16305">
        <ele>16.48</ele>
        <time>2020-07-28T12:15:20Z</time>
      </trkpt>
      <trkpt lat="44.55919" lon="-0.163">
        <ele>15.52</ele>
        <time>2020-07-28T12:15:45Z</time>
      </trkpt>
      <trkpt lat="44.55916" lon="-0.16313">
        <ele>14.08</ele>
        <time>2020-07-28T12:16:03Z</time>
      </trkpt>
      <trkpt lat="44.55911" lon="-0.16316">
        <ele>13.6</ele>
        <time>2020-07-28T12:16:15Z</time>
      </trkpt>
      <trkpt lat="44.55918" lon="-0.16317">
        <ele>13.12</ele>
        <time>2020-07-28T12:16:33Z</time>
      </trkpt>
      <trkpt lat="44.5592" lon="-0.16311">
        <ele>13.6</ele>
        <time>2020-07-28T12:16:57Z</time>
      </trkpt>
      <trkpt lat="44.55912" lon="-0.16316">
        <ele>13.6</ele>
        <time>2020-07-28T12:17:18Z</time>
      </trkpt>
      <trkpt lat="44.55897" lon="-0.16319">
        <ele>10.23</ele>
        <time>2020-07-28T12:17:37Z</time>
      </trkpt>
      <trkpt lat="44.55887" lon="-0.1633">
        <ele>10.23</ele>
        <time>2020-07-28T12:17:56Z</time>
      </trkpt>
      <trkpt lat="44.55886" lon="-0.16334">
        <ele>10.23</ele>
        <time>2020-07-28T12:18:07Z</time>
      </trkpt>
      <trkpt lat="44.55892" lon="-0.16352">
        <ele>9.75</ele>
        <time>2020-07-28T12:18:23Z</time>
      </trkpt>
      <trkpt lat="44.5589" lon="-0.16362">
        <ele>10.23</ele>
        <time>2020-07-28T12:18:42Z</time>
      </trkpt>
      <trkpt lat="44.55892" lon="-0.16366">
        <ele>9.75</ele>
        <time>2020-07-28T12:18:58Z</time>
      </trkpt>
      <trkpt lat="44.55898" lon="-0.16383">
        <ele>9.75</ele>
        <time>2020-07-28T12:19:16Z</time>
      </trkpt>
      <trkpt lat="44.55899" lon="-0.16391">
        <ele>8.79</ele>
        <time>2020-07-28T12:19:32Z</time>
      </trkpt>
      <trkpt lat="44.55901" lon="-0.16394">
        <ele>10.23</ele>
        <time>2020-07-28T12:19:49Z</time>
      </trkpt>
      <trkpt lat="44.55901" lon="-0.16394">
        <ele>10.23</ele>
        <time>2020-07-28T12:19:50Z</time>
      </trkpt>
      <trkpt lat="44.55896" lon="-0.16393">
        <ele>8.79</ele>
        <time>2020-07-28T12:20:12Z</time>
      </trkpt>
      <trkpt lat="44.55897" lon="-0.16397">
        <ele>8.79</ele>
        <time>2020-07-28T12:20:31Z</time>
      </trkpt>
      <trkpt lat="44.55897" lon="-0.16397">
        <ele>8.79</ele>
        <time>2020-07-28T12:20:56Z</time>
      </trkpt>
      <trkpt lat="44.559" lon="-0.16408">
        <ele>8.31</ele>
        <time>2020-07-28T12:21:12Z</time>
      </trkpt>
      <trkpt lat="44.55897" lon="-0.1641">
        <ele>8.31</ele>
        <time>2020-07-28T12:21:40Z</time>
      </trkpt>
      <trkpt lat="44.55899" lon="-0.16415">
        <ele>8.31</ele>
        <time>2020-07-28T12:21:56Z</time>
      </trkpt>
      <trkpt lat="44.55902" lon="-0.16422">
        <ele>9.27</ele>
        <time>2020-07-28T12:22:10Z</time>
      </trkpt>
      <trkpt lat="44.55907" lon="-0.16434">
        <ele>7.83</ele>
        <time>2020-07-28T12:22:25Z</time>
      </trkpt>
      <trkpt lat="44.55915" lon="-0.16449">
        <ele>7.83</ele>
        <time>2020-07-28T12:22:41Z</time>
      </trkpt>
      <trkpt lat="44.5592" lon="-0.16457">
        <ele>7.83</ele>
        <time>2020-07-28T12:22:57Z</time>
      </trkpt>
      <trkpt lat="44.55922" lon="-0.16461">
        <ele>7.83</ele>
        <time>2020-07-28T12:23:02Z</time>
      </trkpt>
      <trkpt lat="44.55923" lon="-0.1647">
        <ele>9.27</ele>
        <time>2020-07-28T12:23:19Z</time>
      </trkpt>
      <trkpt lat="44.55927" lon="-0.1648">
        <ele>9.27</ele>
        <time>2020-07-28T12:23:38Z</time>
      </trkpt>
      <trkpt lat="44.55934" lon="-0.16493">
        <ele>9.27</ele>
        <time>2020-07-28T12:23:53Z</time>
      </trkpt>
      <trkpt lat="44.5594" lon="-0.16502">
        <ele>8.79</ele>
        <time>2020-07-28T12:24:14Z</time>
      </trkpt>
      <trkpt lat="44.55935" lon="-0.16511">
        <ele>9.27</ele>
        <time>2020-07-28T12:24:33Z</time>
      </trkpt>
      <trkpt lat="44.5593" lon="-0.16518">
        <ele>7.83</ele>
        <time>2020-07-28T12:24:48Z</time>
      </trkpt>
      <trkpt lat="44.55925" lon="-0.16522">
        <ele>7.83</ele>
        <time>2020-07-28T12:25:07Z</time>
      </trkpt>
      <trkpt lat="44.55926" lon="-0.16522">
        <ele>7.35</ele>
        <time>2020-07-28T12:25:30Z</time>
      </trkpt>
      <trkpt lat="44.55925" lon="-0.16523">
        <ele>7.35</ele>
        <time>2020-07-28T12:25:52Z</time>
      </trkpt>
      <trkpt lat="44.55925" lon="-0.16523">
        <ele>7.35</ele>
        <time>2020-07-28T12:26:19Z</time>
      </trkpt>
      <trkpt lat="44.55923" lon="-0.16523">
        <ele>8.79</ele>
        <time>2020-07-28T12:26:44Z</time>
      </trkpt>
      <trkpt lat="44.55924" lon="-0.16523">
        <ele>8.79</ele>
        <time>2020-07-28T12:26:59Z</time>
      </trkpt>
      <trkpt lat="44.55924" lon="-0.16523">
        <ele>8.79</ele>
        <time>2020-07-28T12:27:17Z</time>
      </trkpt>
      <trkpt lat="44.55924" lon="-0.16523">
        <ele>8.31</ele>
        <time>2020-07-28T12:27:39Z</time>
      </trkpt>
      <trkpt lat="44.55923" lon="-0.16523">
        <ele>7.35</ele>
        <time>2020-07-28T12:28:01Z</time>
      </trkpt>
      <trkpt lat="44.55925" lon="-0.16527">
        <ele>7.35</ele>
        <time>2020-07-28T12:28:27Z</time>
      </trkpt>
      <trkpt lat="44.55919" lon="-0.16523">
        <ele>7.35</ele>
        <time>2020-07-28T12:28:48Z</time>
      </trkpt>
      <trkpt lat="44.55917" lon="-0.16526">
        <ele>7.35</ele>
        <time>2020-07-28T12:28:51Z</time>
      </trkpt>
      <trkpt lat="44.55906" lon="-0.16546">
        <ele>6.87</ele>
        <time>2020-07-28T12:29:08Z</time>
      </trkpt>
      <trkpt lat="44.55901" lon="-0.16553">
        <ele>8.31</ele>
        <time>2020-07-28T12:29:15Z</time>
      </trkpt>
      <trkpt lat="44.55894" lon="-0.16561">
        <ele>7.35</ele>
        <time>2020-07-28T12:29:23Z</time>
      </trkpt>
      <trkpt lat="44.55888" lon="-0.16569">
        <ele>8.31</ele>
        <time>2020-07-28T12:29:31Z</time>
      </trkpt>
      <trkpt lat="44.55875" lon="-0.16584">
        <ele>8.79</ele>
        <time>2020-07-28T12:29:46Z</time>
      </trkpt>
      <trkpt lat="44.55862" lon="-0.16601">
        <ele>10.23</ele>
        <time>2020-07-28T12:30:05Z</time>
      </trkpt>
      <trkpt lat="44.55855" lon="-0.1661">
        <ele>10.23</ele>
        <time>2020-07-28T12:30:22Z</time>
      </trkpt>
      <trkpt lat="44.55844" lon="-0.16624">
        <ele>10.71</ele>
        <time>2020-07-28T12:30:39Z</time>
      </trkpt>
      <trkpt lat="44.55827" lon="-0.16644">
        <ele>12.15</ele>
        <time>2020-07-28T12:30:59Z</time>
      </trkpt>
      <trkpt lat="44.55811" lon="-0.16657">
        <ele>14.08</ele>
        <time>2020-07-28T12:31:16Z</time>
      </trkpt>
      <trkpt lat="44.55803" lon="-0.16667">
        <ele>15.52</ele>
        <time>2020-07-28T12:31:31Z</time>
      </trkpt>
      <trkpt lat="44.55804" lon="-0.16672">
        <ele>15.52</ele>
        <time>2020-07-28T12:31:40Z</time>
      </trkpt>
      <trkpt lat="44.55809" lon="-0.16691">
        <ele>16.48</ele>
        <time>2020-07-28T12:31:55Z</time>
      </trkpt>
      <trkpt lat="44.55816" lon="-0.16703">
        <ele>16.48</ele>
        <time>2020-07-28T12:32:04Z</time>
      </trkpt>
      <trkpt lat="44.55819" lon="-0.16709">
        <ele>16.48</ele>
        <time>2020-07-28T12:32:08Z</time>
      </trkpt>
      <trkpt lat="44.55834" lon="-0.16724">
        <ele>14.56</ele>
        <time>2020-07-28T12:32:28Z</time>
      </trkpt>
      <trkpt lat="44.55834" lon="-0.16724">
        <ele>14.56</ele>
        <time>2020-07-28T12:32:29Z</time>
      </trkpt>
      <trkpt lat="44.55836" lon="-0.16725">
        <ele>16</ele>
        <time>2020-07-28T12:32:31Z</time>
      </trkpt>
      <trkpt lat="44.55841" lon="-0.16728">
        <ele>14.08</ele>
        <time>2020-07-28T12:32:35Z</time>
      </trkpt>
      <trkpt lat="44.55845" lon="-0.1673">
        <ele>15.52</ele>
        <time>2020-07-28T12:32:39Z</time>
      </trkpt>
      <trkpt lat="44.55859" lon="-0.16743">
        <ele>16</ele>
        <time>2020-07-28T12:32:53Z</time>
      </trkpt>
      <trkpt lat="44.55864" lon="-0.16747">
        <ele>14.56</ele>
        <time>2020-07-28T12:32:58Z</time>
      </trkpt>
      <trkpt lat="44.55873" lon="-0.16753">
        <ele>14.56</ele>
        <time>2020-07-28T12:33:07Z</time>
      </trkpt>
      <trkpt lat="44.5588" lon="-0.16761">
        <ele>15.52</ele>
        <time>2020-07-28T12:33:14Z</time>
      </trkpt>
      <trkpt lat="44.55884" lon="-0.16765">
        <ele>13.6</ele>
        <time>2020-07-28T12:33:18Z</time>
      </trkpt>
      <trkpt lat="44.55885" lon="-0.16766">
        <ele>15.04</ele>
        <time>2020-07-28T12:33:20Z</time>
      </trkpt>
      <trkpt lat="44.55886" lon="-0.16766">
        <ele>15.04</ele>
        <time>2020-07-28T12:33:21Z</time>
      </trkpt>
      <trkpt lat="44.55894" lon="-0.16775">
        <ele>13.6</ele>
        <time>2020-07-28T12:33:29Z</time>
      </trkpt>
      <trkpt lat="44.55907" lon="-0.16789">
        <ele>13.6</ele>
        <time>2020-07-28T12:33:46Z</time>
      </trkpt>
      <trkpt lat="44.55909" lon="-0.16789">
        <ele>13.6</ele>
        <time>2020-07-28T12:34:00Z</time>
      </trkpt>
      <trkpt lat="44.55916" lon="-0.16793">
        <ele>13.6</ele>
        <time>2020-07-28T12:34:32Z</time>
      </trkpt>
      <trkpt lat="44.55935" lon="-0.16807">
        <ele>13.6</ele>
        <time>2020-07-28T12:34:50Z</time>
      </trkpt>
      <trkpt lat="44.55951" lon="-0.16822">
        <ele>12.15</ele>
        <time>2020-07-28T12:35:08Z</time>
      </trkpt>
      <trkpt lat="44.55971" lon="-0.16836">
        <ele>11.19</ele>
        <time>2020-07-28T12:35:29Z</time>
      </trkpt>
      <trkpt lat="44.55985" lon="-0.16847">
        <ele>10.71</ele>
        <time>2020-07-28T12:35:42Z</time>
      </trkpt>
      <trkpt lat="44.56002" lon="-0.16853">
        <ele>10.71</ele>
        <time>2020-07-28T12:35:56Z</time>
      </trkpt>
      <trkpt lat="44.56005" lon="-0.16868">
        <ele>11.19</ele>
        <time>2020-07-28T12:36:13Z</time>
      </trkpt>
      <trkpt lat="44.56014" lon="-0.16897">
        <ele>14.08</ele>
        <time>2020-07-28T12:36:35Z</time>
      </trkpt>
      <trkpt lat="44.56014" lon="-0.1692">
        <ele>16.96</ele>
        <time>2020-07-28T12:36:55Z</time>
      </trkpt>
      <trkpt lat="44.56003" lon="-0.16934">
        <ele>19.84</ele>
        <time>2020-07-28T12:37:13Z</time>
      </trkpt>
      <trkpt lat="44.56001" lon="-0.16936">
        <ele>19.84</ele>
        <time>2020-07-28T12:37:16Z</time>
      </trkpt>
      <trkpt lat="44.55991" lon="-0.16957">
        <ele>21.77</ele>
        <time>2020-07-28T12:37:36Z</time>
      </trkpt>
      <trkpt lat="44.55991" lon="-0.16958">
        <ele>21.77</ele>
        <time>2020-07-28T12:37:37Z</time>
      </trkpt>
      <trkpt lat="44.55986" lon="-0.16983">
        <ele>22.25</ele>
        <time>2020-07-28T12:37:55Z</time>
      </trkpt>
      <trkpt lat="44.55981" lon="-0.17008">
        <ele>24.65</ele>
        <time>2020-07-28T12:38:12Z</time>
      </trkpt>
      <trkpt lat="44.55979" lon="-0.17019">
        <ele>25.13</ele>
        <time>2020-07-28T12:38:27Z</time>
      </trkpt>
      <trkpt lat="44.55983" lon="-0.17009">
        <ele>25.13</ele>
        <time>2020-07-28T12:38:41Z</time>
      </trkpt>
      <trkpt lat="44.55984" lon="-0.17008">
        <ele>25.13</ele>
        <time>2020-07-28T12:39:04Z</time>
      </trkpt>
      <trkpt lat="44.55989" lon="-0.17006">
        <ele>25.61</ele>
        <time>2020-07-28T12:39:33Z</time>
      </trkpt>
      <trkpt lat="44.55992" lon="-0.17">
        <ele>24.17</ele>
        <time>2020-07-28T12:39:51Z</time>
      </trkpt>
      <trkpt lat="44.55991" lon="-0.16997">
        <ele>24.17</ele>
        <time>2020-07-28T12:40:26Z</time>
      </trkpt>
      <trkpt lat="44.55987" lon="-0.17004">
        <ele>24.17</ele>
        <time>2020-07-28T12:40:44Z</time>
      </trkpt>
      <trkpt lat="44.55983" lon="-0.1701">
        <ele>24.17</ele>
        <time>2020-07-28T12:41:04Z</time>
      </trkpt>
      <trkpt lat="44.55983" lon="-0.17007">
        <ele>24.17</ele>
        <time>2020-07-28T12:41:34Z</time>
      </trkpt>
      <trkpt lat="44.55987" lon="-0.1701">
        <ele>24.17</ele>
        <time>2020-07-28T12:41:55Z</time>
      </trkpt>
      <trkpt lat="44.55986" lon="-0.17014">
        <ele>24.17</ele>
        <time>2020-07-28T12:42:14Z</time>
      </trkpt>
      <trkpt lat="44.55985" lon="-0.17015">
        <ele>24.65</ele>
        <time>2020-07-28T12:42:15Z</time>
      </trkpt>
      <trkpt lat="44.55981" lon="-0.17021">
        <ele>24.17</ele>
        <time>2020-07-28T12:42:30Z</time>
      </trkpt>
      <trkpt lat="44.5598" lon="-0.17025">
        <ele>25.61</ele>
        <time>2020-07-28T12:42:33Z</time>
      </trkpt>
      <trkpt lat="44.55981" lon="-0.17048">
        <ele>26.09</ele>
        <time>2020-07-28T12:42:47Z</time>
      </trkpt>
      <trkpt lat="44.5598" lon="-0.17062">
        <ele>26.09</ele>
        <time>2020-07-28T12:42:57Z</time>
      </trkpt>
      <trkpt lat="44.55981" lon="-0.17064">
        <ele>26.09</ele>
        <time>2020-07-28T12:42:58Z</time>
      </trkpt>
      <trkpt lat="44.5598" lon="-0.17079">
        <ele>26.09</ele>
        <time>2020-07-28T12:43:18Z</time>
      </trkpt>
      <trkpt lat="44.55982" lon="-0.17078">
        <ele>26.09</ele>
        <time>2020-07-28T12:43:50Z</time>
      </trkpt>
      <trkpt lat="44.55981" lon="-0.17079">
        <ele>26.09</ele>
        <time>2020-07-28T12:44:17Z</time>
      </trkpt>
      <trkpt lat="44.55983" lon="-0.17079">
        <ele>26.57</ele>
        <time>2020-07-28T12:44:43Z</time>
      </trkpt>
      <trkpt lat="44.55982" lon="-0.1708">
        <ele>26.57</ele>
        <time>2020-07-28T12:45:06Z</time>
      </trkpt>
      <trkpt lat="44.55982" lon="-0.17081">
        <ele>26.57</ele>
        <time>2020-07-28T12:45:33Z</time>
      </trkpt>
      <trkpt lat="44.55981" lon="-0.17082">
        <ele>25.61</ele>
        <time>2020-07-28T12:45:49Z</time>
      </trkpt>
      <trkpt lat="44.55982" lon="-0.17082">
        <ele>25.61</ele>
        <time>2020-07-28T12:46:15Z</time>
      </trkpt>
      <trkpt lat="44.55983" lon="-0.17082">
        <ele>25.61</ele>
        <time>2020-07-28T12:46:36Z</time>
      </trkpt>
      <trkpt lat="44.55981" lon="-0.17081">
        <ele>25.61</ele>
        <time>2020-07-28T12:46:54Z</time>
      </trkpt>
      <trkpt lat="44.55977" lon="-0.17076">
        <ele>25.61</ele>
        <time>2020-07-28T12:47:21Z</time>
      </trkpt>
      <trkpt lat="44.55976" lon="-0.17077">
        <ele>25.61</ele>
        <time>2020-07-28T12:47:52Z</time>
      </trkpt>
      <trkpt lat="44.55976" lon="-0.17074">
        <ele>25.13</ele>
        <time>2020-07-28T12:48:20Z</time>
      </trkpt>
      <trkpt lat="44.55977" lon="-0.17076">
        <ele>25.13</ele>
        <time>2020-07-28T12:48:52Z</time>
      </trkpt>
      <trkpt lat="44.55981" lon="-0.17081">
        <ele>25.13</ele>
        <time>2020-07-28T12:49:10Z</time>
      </trkpt>
      <trkpt lat="44.55984" lon="-0.17079">
        <ele>25.13</ele>
        <time>2020-07-28T12:49:29Z</time>
      </trkpt>
      <trkpt lat="44.5598" lon="-0.17078">
        <ele>25.13</ele>
        <time>2020-07-28T12:50:01Z</time>
      </trkpt>
      <trkpt lat="44.55981" lon="-0.17076">
        <ele>25.13</ele>
        <time>2020-07-28T12:50:36Z</time>
      </trkpt>
      <trkpt lat="44.55979" lon="-0.17075">
        <ele>25.61</ele>
        <time>2020-07-28T12:51:10Z</time>
      </trkpt>
      <trkpt lat="44.55981" lon="-0.17078">
        <ele>25.61</ele>
        <time>2020-07-28T12:51:48Z</time>
      </trkpt>
      <trkpt lat="44.55982" lon="-0.17076">
        <ele>25.61</ele>
        <time>2020-07-28T12:52:26Z</time>
      </trkpt>
      <trkpt lat="44.55978" lon="-0.17076">
        <ele>25.61</ele>
        <time>2020-07-28T12:53:04Z</time>
      </trkpt>
      <trkpt lat="44.5598" lon="-0.17077">
        <ele>25.61</ele>
        <time>2020-07-28T12:53:38Z</time>
      </trkpt>
      <trkpt lat="44.55983" lon="-0.1708">
        <ele>25.61</ele>
        <time>2020-07-28T12:53:52Z</time>
      </trkpt>
      <trkpt lat="44.55983" lon="-0.17079">
        <ele>25.61</ele>
        <time>2020-07-28T12:54:21Z</time>
      </trkpt>
      <trkpt lat="44.55983" lon="-0.17083">
        <ele>25.61</ele>
        <time>2020-07-28T12:54:47Z</time>
      </trkpt>
      <trkpt lat="44.55983" lon="-0.17082">
        <ele>25.61</ele>
        <time>2020-07-28T12:55:09Z</time>
      </trkpt>
      <trkpt lat="44.55982" lon="-0.17081">
        <ele>25.61</ele>
        <time>2020-07-28T12:55:31Z</time>
      </trkpt>
      <trkpt lat="44.55981" lon="-0.1708">
        <ele>25.61</ele>
        <time>2020-07-28T12:55:47Z</time>
      </trkpt>
      <trkpt lat="44.5598" lon="-0.1708">
        <ele>25.61</ele>
        <time>2020-07-28T12:56:13Z</time>
      </trkpt>
      <trkpt lat="44.55982" lon="-0.17081">
        <ele>25.61</ele>
        <time>2020-07-28T12:56:35Z</time>
      </trkpt>
      <trkpt lat="44.55982" lon="-0.17077">
        <ele>25.61</ele>
        <time>2020-07-28T12:56:59Z</time>
      </trkpt>
      <trkpt lat="44.5598" lon="-0.17079">
        <ele>25.61</ele>
        <time>2020-07-28T12:57:14Z</time>
      </trkpt>
      <trkpt lat="44.55978" lon="-0.17088">
        <ele>26.57</ele>
        <time>2020-07-28T12:57:21Z</time>
      </trkpt>
      <trkpt lat="44.55975" lon="-0.171">
        <ele>26.57</ele>
        <time>2020-07-28T12:57:36Z</time>
      </trkpt>
      <trkpt lat="44.55971" lon="-0.17117">
        <ele>26.57</ele>
        <time>2020-07-28T12:57:52Z</time>
      </trkpt>
      <trkpt lat="44.55968" lon="-0.1714">
        <ele>25.61</ele>
        <time>2020-07-28T12:58:09Z</time>
      </trkpt>
      <trkpt lat="44.55965" lon="-0.17171">
        <ele>26.57</ele>
        <time>2020-07-28T12:58:28Z</time>
      </trkpt>
      <trkpt lat="44.55963" lon="-0.1718">
        <ele>25.13</ele>
        <time>2020-07-28T12:58:33Z</time>
      </trkpt>
      <trkpt lat="44.55961" lon="-0.17197">
        <ele>26.57</ele>
        <time>2020-07-28T12:58:44Z</time>
      </trkpt>
      <trkpt lat="44.5596" lon="-0.17228">
        <ele>24.65</ele>
        <time>2020-07-28T12:59:01Z</time>
      </trkpt>
      <trkpt lat="44.5596" lon="-0.17229">
        <ele>24.65</ele>
        <time>2020-07-28T12:59:02Z</time>
      </trkpt>
      <trkpt lat="44.55962" lon="-0.17262">
        <ele>24.65</ele>
        <time>2020-07-28T12:59:21Z</time>
      </trkpt>
      <trkpt lat="44.55958" lon="-0.17285">
        <ele>23.69</ele>
        <time>2020-07-28T12:59:36Z</time>
      </trkpt>
      <trkpt lat="44.55956" lon="-0.17318">
        <ele>23.69</ele>
        <time>2020-07-28T12:59:55Z</time>
      </trkpt>
      <trkpt lat="44.55954" lon="-0.17342">
        <ele>24.17</ele>
        <time>2020-07-28T13:00:10Z</time>
      </trkpt>
      <trkpt lat="44.55952" lon="-0.17366">
        <ele>22.73</ele>
        <time>2020-07-28T13:00:25Z</time>
      </trkpt>
      <trkpt lat="44.55951" lon="-0.17394">
        <ele>23.69</ele>
        <time>2020-07-28T13:00:43Z</time>
      </trkpt>
      <trkpt lat="44.5595" lon="-0.1742">
        <ele>24.17</ele>
        <time>2020-07-28T13:01:00Z</time>
      </trkpt>
      <trkpt lat="44.55945" lon="-0.1745">
        <ele>24.65</ele>
        <time>2020-07-28T13:01:17Z</time>
      </trkpt>
      <trkpt lat="44.55945" lon="-0.1747">
        <ele>24.17</ele>
        <time>2020-07-28T13:01:34Z</time>
      </trkpt>
      <trkpt lat="44.55946" lon="-0.17476">
        <ele>24.17</ele>
        <time>2020-07-28T13:01:47Z</time>
      </trkpt>
      <trkpt lat="44.55959" lon="-0.17487">
        <ele>22.25</ele>
        <time>2020-07-28T13:02:05Z</time>
      </trkpt>
      <trkpt lat="44.55978" lon="-0.17492">
        <ele>18.88</ele>
        <time>2020-07-28T13:02:22Z</time>
      </trkpt>
      <trkpt lat="44.55995" lon="-0.17513">
        <ele>15.52</ele>
        <time>2020-07-28T13:02:43Z</time>
      </trkpt>
      <trkpt lat="44.56007" lon="-0.17539">
        <ele>12.15</ele>
        <time>2020-07-28T13:03:01Z</time>
      </trkpt>
      <trkpt lat="44.56013" lon="-0.17566">
        <ele>10.23</ele>
        <time>2020-07-28T13:03:18Z</time>
      </trkpt>
      <trkpt lat="44.56014" lon="-0.17581">
        <ele>10.23</ele>
        <time>2020-07-28T13:03:28Z</time>
      </trkpt>
      <trkpt lat="44.56015" lon="-0.17593">
        <ele>8.79</ele>
        <time>2020-07-28T13:03:35Z</time>
      </trkpt>
      <trkpt lat="44.5602" lon="-0.17618">
        <ele>8.31</ele>
        <time>2020-07-28T13:03:51Z</time>
      </trkpt>
      <trkpt lat="44.56025" lon="-0.17624">
        <ele>7.83</ele>
        <time>2020-07-28T13:04:09Z</time>
      </trkpt>
      <trkpt lat="44.56036" lon="-0.17638">
        <ele>7.83</ele>
        <time>2020-07-28T13:04:21Z</time>
      </trkpt>
      <trkpt lat="44.56056" lon="-0.17649">
        <ele>8.31</ele>
        <time>2020-07-28T13:04:39Z</time>
      </trkpt>
      <trkpt lat="44.56078" lon="-0.17655">
        <ele>7.35</ele>
        <time>2020-07-28T13:04:57Z</time>
      </trkpt>
      <trkpt lat="44.56084" lon="-0.17659">
        <ele>7.35</ele>
        <time>2020-07-28T13:05:02Z</time>
      </trkpt>
      <trkpt lat="44.56091" lon="-0.17658">
        <ele>8.79</ele>
        <time>2020-07-28T13:05:07Z</time>
      </trkpt>
      <trkpt lat="44.56098" lon="-0.17659">
        <ele>8.79</ele>
        <time>2020-07-28T13:05:24Z</time>
      </trkpt>
      <trkpt lat="44.56099" lon="-0.17654">
        <ele>8.31</ele>
        <time>2020-07-28T13:05:57Z</time>
      </trkpt>
      <trkpt lat="44.56101" lon="-0.17664">
        <ele>8.31</ele>
        <time>2020-07-28T13:06:20Z</time>
      </trkpt>
      <trkpt lat="44.56125" lon="-0.17673">
        <ele>8.79</ele>
        <time>2020-07-28T13:06:39Z</time>
      </trkpt>
      <trkpt lat="44.56129" lon="-0.17675">
        <ele>7.35</ele>
        <time>2020-07-28T13:06:43Z</time>
      </trkpt>
      <trkpt lat="44.56135" lon="-0.17677">
        <ele>7.35</ele>
        <time>2020-07-28T13:06:50Z</time>
      </trkpt>
      <trkpt lat="44.56139" lon="-0.17675">
        <ele>8.79</ele>
        <time>2020-07-28T13:06:53Z</time>
      </trkpt>
      <trkpt lat="44.56143" lon="-0.17675">
        <ele>7.83</ele>
        <time>2020-07-28T13:06:56Z</time>
      </trkpt>
      <trkpt lat="44.5617" lon="-0.17683">
        <ele>8.79</ele>
        <time>2020-07-28T13:07:15Z</time>
      </trkpt>
      <trkpt lat="44.56196" lon="-0.17694">
        <ele>8.79</ele>
        <time>2020-07-28T13:07:37Z</time>
      </trkpt>
      <trkpt lat="44.56223" lon="-0.17708">
        <ele>8.79</ele>
        <time>2020-07-28T13:08:00Z</time>
      </trkpt>
      <trkpt lat="44.56252" lon="-0.17718">
        <ele>7.35</ele>
        <time>2020-07-28T13:08:22Z</time>
      </trkpt>
      <trkpt lat="44.56281" lon="-0.1773">
        <ele>8.79</ele>
        <time>2020-07-28T13:08:43Z</time>
      </trkpt>
      <trkpt lat="44.56302" lon="-0.1773">
        <ele>8.79</ele>
        <time>2020-07-28T13:09:00Z</time>
      </trkpt>
      <trkpt lat="44.56318" lon="-0.17709">
        <ele>8.79</ele>
        <time>2020-07-28T13:09:18Z</time>
      </trkpt>
      <trkpt lat="44.56334" lon="-0.17689">
        <ele>8.79</ele>
        <time>2020-07-28T13:09:35Z</time>
      </trkpt>
      <trkpt lat="44.56349" lon="-0.17677">
        <ele>8.79</ele>
        <time>2020-07-28T13:09:50Z</time>
      </trkpt>
      <trkpt lat="44.5635" lon="-0.17674">
        <ele>7.35</ele>
        <time>2020-07-28T13:09:52Z</time>
      </trkpt>
      <trkpt lat="44.56376" lon="-0.17672">
        <ele>8.31</ele>
        <time>2020-07-28T13:10:11Z</time>
      </trkpt>
      <trkpt lat="44.56393" lon="-0.17679">
        <ele>7.83</ele>
        <time>2020-07-28T13:10:27Z</time>
      </trkpt>
      <trkpt lat="44.56417" lon="-0.17686">
        <ele>7.83</ele>
        <time>2020-07-28T13:10:47Z</time>
      </trkpt>
      <trkpt lat="44.56422" lon="-0.17687">
        <ele>6.87</ele>
        <time>2020-07-28T13:10:51Z</time>
      </trkpt>
      <trkpt lat="44.56425" lon="-0.17688">
        <ele>8.79</ele>
        <time>2020-07-28T13:10:53Z</time>
      </trkpt>
      <trkpt lat="44.56432" lon="-0.1769">
        <ele>7.35</ele>
        <time>2020-07-28T13:10:58Z</time>
      </trkpt>
      <trkpt lat="44.56454" lon="-0.17696">
        <ele>8.79</ele>
        <time>2020-07-28T13:11:17Z</time>
      </trkpt>
      <trkpt lat="44.56482" lon="-0.17699">
        <ele>8.31</ele>
        <time>2020-07-28T13:11:38Z</time>
      </trkpt>
      <trkpt lat="44.56508" lon="-0.17702">
        <ele>8.79</ele>
        <time>2020-07-28T13:11:58Z</time>
      </trkpt>
      <trkpt lat="44.56528" lon="-0.17708">
        <ele>9.75</ele>
        <time>2020-07-28T13:12:16Z</time>
      </trkpt>
      <trkpt lat="44.5654" lon="-0.17708">
        <ele>8.31</ele>
        <time>2020-07-28T13:12:31Z</time>
      </trkpt>
      <trkpt lat="44.56543" lon="-0.17708">
        <ele>7.35</ele>
        <time>2020-07-28T13:12:33Z</time>
      </trkpt>
      <trkpt lat="44.56567" lon="-0.17712">
        <ele>6.87</ele>
        <time>2020-07-28T13:12:51Z</time>
      </trkpt>
      <trkpt lat="44.56593" lon="-0.17716">
        <ele>8.31</ele>
        <time>2020-07-28T13:13:12Z</time>
      </trkpt>
      <trkpt lat="44.56608" lon="-0.17732">
        <ele>8.79</ele>
        <time>2020-07-28T13:13:31Z</time>
      </trkpt>
      <trkpt lat="44.56611" lon="-0.17759">
        <ele>8.79</ele>
        <time>2020-07-28T13:13:51Z</time>
      </trkpt>
      <trkpt lat="44.56613" lon="-0.17767">
        <ele>7.35</ele>
        <time>2020-07-28T13:13:56Z</time>
      </trkpt>
      <trkpt lat="44.56614" lon="-0.1777">
        <ele>8.79</ele>
        <time>2020-07-28T13:13:58Z</time>
      </trkpt>
      <trkpt lat="44.56628" lon="-0.17791">
        <ele>8.79</ele>
        <time>2020-07-28T13:14:15Z</time>
      </trkpt>
      <trkpt lat="44.56636" lon="-0.17804">
        <ele>7.83</ele>
        <time>2020-07-28T13:14:27Z</time>
      </trkpt>
      <trkpt lat="44.56643" lon="-0.17831">
        <ele>7.83</ele>
        <time>2020-07-28T13:14:46Z</time>
      </trkpt>
      <trkpt lat="44.56653" lon="-0.17856">
        <ele>7.83</ele>
        <time>2020-07-28T13:15:03Z</time>
      </trkpt>
      <trkpt lat="44.56661" lon="-0.17879">
        <ele>8.79</ele>
        <time>2020-07-28T13:15:20Z</time>
      </trkpt>
      <trkpt lat="44.56662" lon="-0.17895">
        <ele>6.87</ele>
        <time>2020-07-28T13:15:29Z</time>
      </trkpt>
      <trkpt lat="44.56662" lon="-0.17898">
        <ele>8.31</ele>
        <time>2020-07-28T13:15:31Z</time>
      </trkpt>
      <trkpt lat="44.56669" lon="-0.17928">
        <ele>8.31</ele>
        <time>2020-07-28T13:15:51Z</time>
      </trkpt>
      <trkpt lat="44.56672" lon="-0.17932">
        <ele>6.87</ele>
        <time>2020-07-28T13:15:54Z</time>
      </trkpt>
      <trkpt lat="44.56686" lon="-0.17945">
        <ele>6.39</ele>
        <time>2020-07-28T13:16:10Z</time>
      </trkpt>
      <trkpt lat="44.56696" lon="-0.17967">
        <ele>6.39</ele>
        <time>2020-07-28T13:16:29Z</time>
      </trkpt>
      <trkpt lat="44.56697" lon="-0.17987">
        <ele>6.39</ele>
        <time>2020-07-28T13:16:45Z</time>
      </trkpt>
      <trkpt lat="44.567" lon="-0.18016">
        <ele>6.39</ele>
        <time>2020-07-28T13:17:04Z</time>
      </trkpt>
      <trkpt lat="44.56695" lon="-0.18046">
        <ele>6.39</ele>
        <time>2020-07-28T13:17:21Z</time>
      </trkpt>
      <trkpt lat="44.56693" lon="-0.18058">
        <ele>6.39</ele>
        <time>2020-07-28T13:17:30Z</time>
      </trkpt>
      <trkpt lat="44.56691" lon="-0.18075">
        <ele>5.91</ele>
        <time>2020-07-28T13:17:40Z</time>
      </trkpt>
      <trkpt lat="44.56691" lon="-0.18085">
        <ele>5.91</ele>
        <time>2020-07-28T13:17:46Z</time>
      </trkpt>
      <trkpt lat="44.56687" lon="-0.18111">
        <ele>5.91</ele>
        <time>2020-07-28T13:18:04Z</time>
      </trkpt>
      <trkpt lat="44.56683" lon="-0.18142">
        <ele>6.39</ele>
        <time>2020-07-28T13:18:23Z</time>
      </trkpt>
      <trkpt lat="44.5668" lon="-0.18174">
        <ele>4.94</ele>
        <time>2020-07-28T13:18:43Z</time>
      </trkpt>
      <trkpt lat="44.56675" lon="-0.18183">
        <ele>4.94</ele>
        <time>2020-07-28T13:18:49Z</time>
      </trkpt>
      <trkpt lat="44.56674" lon="-0.18187">
        <ele>4.94</ele>
        <time>2020-07-28T13:18:51Z</time>
      </trkpt>
      <trkpt lat="44.56672" lon="-0.18217">
        <ele>4.94</ele>
        <time>2020-07-28T13:19:08Z</time>
      </trkpt>
      <trkpt lat="44.56668" lon="-0.18242">
        <ele>5.91</ele>
        <time>2020-07-28T13:19:25Z</time>
      </trkpt>
      <trkpt lat="44.56662" lon="-0.18269">
        <ele>5.91</ele>
        <time>2020-07-28T13:19:43Z</time>
      </trkpt>
      <trkpt lat="44.56661" lon="-0.18272">
        <ele>4.46</ele>
        <time>2020-07-28T13:19:45Z</time>
      </trkpt>
      <trkpt lat="44.56655" lon="-0.18297">
        <ele>5.42</ele>
        <time>2020-07-28T13:20:01Z</time>
      </trkpt>
      <trkpt lat="44.56649" lon="-0.18321">
        <ele>4.94</ele>
        <time>2020-07-28T13:20:17Z</time>
      </trkpt>
      <trkpt lat="44.56638" lon="-0.1835">
        <ele>4.94</ele>
        <time>2020-07-28T13:20:37Z</time>
      </trkpt>
      <trkpt lat="44.56635" lon="-0.18369">
        <ele>3.98</ele>
        <time>2020-07-28T13:20:53Z</time>
      </trkpt>
      <trkpt lat="44.56627" lon="-0.184">
        <ele>3.98</ele>
        <time>2020-07-28T13:21:11Z</time>
      </trkpt>
      <trkpt lat="44.56624" lon="-0.18414">
        <ele>5.42</ele>
        <time>2020-07-28T13:21:18Z</time>
      </trkpt>
      <trkpt lat="44.56617" lon="-0.18439">
        <ele>4.94</ele>
        <time>2020-07-28T13:21:33Z</time>
      </trkpt>
      <trkpt lat="44.5661" lon="-0.1846">
        <ele>5.91</ele>
        <time>2020-07-28T13:21:52Z</time>
      </trkpt>
      <trkpt lat="44.56601" lon="-0.18484">
        <ele>6.87</ele>
        <time>2020-07-28T13:22:12Z</time>
      </trkpt>
      <trkpt lat="44.56596" lon="-0.18492">
        <ele>6.87</ele>
        <time>2020-07-28T13:22:18Z</time>
      </trkpt>
      <trkpt lat="44.56594" lon="-0.18497">
        <ele>6.87</ele>
        <time>2020-07-28T13:22:21Z</time>
      </trkpt>
      <trkpt lat="44.56588" lon="-0.18518">
        <ele>6.87</ele>
        <time>2020-07-28T13:22:34Z</time>
      </trkpt>
      <trkpt lat="44.56582" lon="-0.18545">
        <ele>6.39</ele>
        <time>2020-07-28T13:22:51Z</time>
      </trkpt>
      <trkpt lat="44.56578" lon="-0.1856">
        <ele>5.42</ele>
        <time>2020-07-28T13:23:01Z</time>
      </trkpt>
      <trkpt lat="44.56577" lon="-0.18562">
        <ele>6.39</ele>
        <time>2020-07-28T13:23:03Z</time>
      </trkpt>
      <trkpt lat="44.56571" lon="-0.18582">
        <ele>6.39</ele>
        <time>2020-07-28T13:23:17Z</time>
      </trkpt>
      <trkpt lat="44.56565" lon="-0.18614">
        <ele>6.39</ele>
        <time>2020-07-28T13:23:37Z</time>
      </trkpt>
      <trkpt lat="44.56559" lon="-0.18639">
        <ele>4.94</ele>
        <time>2020-07-28T13:23:53Z</time>
      </trkpt>
      <trkpt lat="44.56556" lon="-0.18644">
        <ele>6.39</ele>
        <time>2020-07-28T13:23:57Z</time>
      </trkpt>
      <trkpt lat="44.56547" lon="-0.18668">
        <ele>5.42</ele>
        <time>2020-07-28T13:24:14Z</time>
      </trkpt>
      <trkpt lat="44.56545" lon="-0.18678">
        <ele>4.46</ele>
        <time>2020-07-28T13:24:20Z</time>
      </trkpt>
      <trkpt lat="44.56539" lon="-0.18691">
        <ele>5.42</ele>
        <time>2020-07-28T13:24:29Z</time>
      </trkpt>
      <trkpt lat="44.56536" lon="-0.18705">
        <ele>4.46</ele>
        <time>2020-07-28T13:24:39Z</time>
      </trkpt>
      <trkpt lat="44.56532" lon="-0.18717">
        <ele>5.42</ele>
        <time>2020-07-28T13:24:46Z</time>
      </trkpt>
      <trkpt lat="44.56528" lon="-0.18733">
        <ele>3.98</ele>
        <time>2020-07-28T13:24:58Z</time>
      </trkpt>
      <trkpt lat="44.56527" lon="-0.18744">
        <ele>4.94</ele>
        <time>2020-07-28T13:25:05Z</time>
      </trkpt>
      <trkpt lat="44.56521" lon="-0.18772">
        <ele>4.94</ele>
        <time>2020-07-28T13:25:21Z</time>
      </trkpt>
      <trkpt lat="44.56519" lon="-0.18786">
        <ele>3.98</ele>
        <time>2020-07-28T13:25:31Z</time>
      </trkpt>
      <trkpt lat="44.56517" lon="-0.18799">
        <ele>4.94</ele>
        <time>2020-07-28T13:25:39Z</time>
      </trkpt>
      <trkpt lat="44.56517" lon="-0.18822">
        <ele>5.42</ele>
        <time>2020-07-28T13:25:54Z</time>
      </trkpt>
      <trkpt lat="44.56511" lon="-0.18849">
        <ele>5.42</ele>
        <time>2020-07-28T13:26:11Z</time>
      </trkpt>
      <trkpt lat="44.56509" lon="-0.18859">
        <ele>3.98</ele>
        <time>2020-07-28T13:26:17Z</time>
      </trkpt>
      <trkpt lat="44.56508" lon="-0.18864">
        <ele>5.42</ele>
        <time>2020-07-28T13:26:20Z</time>
      </trkpt>
      <trkpt lat="44.56506" lon="-0.18881">
        <ele>3.98</ele>
        <time>2020-07-28T13:26:30Z</time>
      </trkpt>
      <trkpt lat="44.56507" lon="-0.18883">
        <ele>4.94</ele>
        <time>2020-07-28T13:26:32Z</time>
      </trkpt>
      <trkpt lat="44.56502" lon="-0.18906">
        <ele>4.46</ele>
        <time>2020-07-28T13:26:51Z</time>
      </trkpt>
      <trkpt lat="44.56499" lon="-0.1892">
        <ele>5.42</ele>
        <time>2020-07-28T13:27:10Z</time>
      </trkpt>
      <trkpt lat="44.56492" lon="-0.18946">
        <ele>4.46</ele>
        <time>2020-07-28T13:27:28Z</time>
      </trkpt>
      <trkpt lat="44.56489" lon="-0.18976">
        <ele>5.42</ele>
        <time>2020-07-28T13:27:46Z</time>
      </trkpt>
      <trkpt lat="44.56487" lon="-0.1899">
        <ele>4.94</ele>
        <time>2020-07-28T13:27:56Z</time>
      </trkpt>
      <trkpt lat="44.56484" lon="-0.19022">
        <ele>4.94</ele>
        <time>2020-07-28T13:28:15Z</time>
      </trkpt>
      <trkpt lat="44.56482" lon="-0.19048">
        <ele>5.42</ele>
        <time>2020-07-28T13:28:32Z</time>
      </trkpt>
      <trkpt lat="44.56481" lon="-0.1905">
        <ele>5.42</ele>
        <time>2020-07-28T13:28:33Z</time>
      </trkpt>
      <trkpt lat="44.5648" lon="-0.19053">
        <ele>3.98</ele>
        <time>2020-07-28T13:28:35Z</time>
      </trkpt>
      <trkpt lat="44.56477" lon="-0.19071">
        <ele>5.42</ele>
        <time>2020-07-28T13:28:48Z</time>
      </trkpt>
      <trkpt lat="44.56475" lon="-0.19095">
        <ele>5.42</ele>
        <time>2020-07-28T13:29:03Z</time>
      </trkpt>
      <trkpt lat="44.56472" lon="-0.1912">
        <ele>5.42</ele>
        <time>2020-07-28T13:29:19Z</time>
      </trkpt>
      <trkpt lat="44.56477" lon="-0.19137">
        <ele>5.91</ele>
        <time>2020-07-28T13:29:38Z</time>
      </trkpt>
      <trkpt lat="44.56482" lon="-0.19139">
        <ele>5.91</ele>
        <time>2020-07-28T13:30:00Z</time>
      </trkpt>
      <trkpt lat="44.56484" lon="-0.19139">
        <ele>5.91</ele>
        <time>2020-07-28T13:30:27Z</time>
      </trkpt>
      <trkpt lat="44.56479" lon="-0.19139">
        <ele>5.91</ele>
        <time>2020-07-28T13:30:50Z</time>
      </trkpt>
      <trkpt lat="44.56477" lon="-0.19139">
        <ele>5.91</ele>
        <time>2020-07-28T13:31:17Z</time>
      </trkpt>
      <trkpt lat="44.5647" lon="-0.19142">
        <ele>5.91</ele>
        <time>2020-07-28T13:31:34Z</time>
      </trkpt>
      <trkpt lat="44.56467" lon="-0.19154">
        <ele>4.94</ele>
        <time>2020-07-28T13:31:52Z</time>
      </trkpt>
      <trkpt lat="44.56466" lon="-0.19181">
        <ele>4.94</ele>
        <time>2020-07-28T13:32:12Z</time>
      </trkpt>
      <trkpt lat="44.56466" lon="-0.19208">
        <ele>5.91</ele>
        <time>2020-07-28T13:32:30Z</time>
      </trkpt>
      <trkpt lat="44.56461" lon="-0.19235">
        <ele>6.39</ele>
        <time>2020-07-28T13:32:49Z</time>
      </trkpt>
      <trkpt lat="44.5646" lon="-0.1926">
        <ele>6.39</ele>
        <time>2020-07-28T13:33:06Z</time>
      </trkpt>
      <trkpt lat="44.56455" lon="-0.19288">
        <ele>6.39</ele>
        <time>2020-07-28T13:33:25Z</time>
      </trkpt>
      <trkpt lat="44.56455" lon="-0.19302">
        <ele>6.39</ele>
        <time>2020-07-28T13:33:34Z</time>
      </trkpt>
      <trkpt lat="44.56455" lon="-0.19336">
        <ele>6.87</ele>
        <time>2020-07-28T13:33:54Z</time>
      </trkpt>
      <trkpt lat="44.56455" lon="-0.19348">
        <ele>5.42</ele>
        <time>2020-07-28T13:34:01Z</time>
      </trkpt>
      <trkpt lat="44.56454" lon="-0.19375">
        <ele>6.87</ele>
        <time>2020-07-28T13:34:18Z</time>
      </trkpt>
      <trkpt lat="44.56453" lon="-0.19398">
        <ele>5.42</ele>
        <time>2020-07-28T13:34:35Z</time>
      </trkpt>
      <trkpt lat="44.56453" lon="-0.19407">
        <ele>5.42</ele>
        <time>2020-07-28T13:34:51Z</time>
      </trkpt>
      <trkpt lat="44.56452" lon="-0.19426">
        <ele>6.87</ele>
        <time>2020-07-28T13:35:07Z</time>
      </trkpt>
      <trkpt lat="44.56453" lon="-0.1945">
        <ele>6.87</ele>
        <time>2020-07-28T13:35:24Z</time>
      </trkpt>
      <trkpt lat="44.56455" lon="-0.19475">
        <ele>6.87</ele>
        <time>2020-07-28T13:35:42Z</time>
      </trkpt>
      <trkpt lat="44.56455" lon="-0.19502">
        <ele>6.87</ele>
        <time>2020-07-28T13:35:59Z</time>
      </trkpt>
      <trkpt lat="44.56454" lon="-0.19512">
        <ele>6.87</ele>
        <time>2020-07-28T13:36:07Z</time>
      </trkpt>
      <trkpt lat="44.56454" lon="-0.19535">
        <ele>5.91</ele>
        <time>2020-07-28T13:36:23Z</time>
      </trkpt>
      <trkpt lat="44.56454" lon="-0.1956">
        <ele>5.91</ele>
        <time>2020-07-28T13:36:41Z</time>
      </trkpt>
      <trkpt lat="44.56454" lon="-0.19586">
        <ele>5.91</ele>
        <time>2020-07-28T13:36:57Z</time>
      </trkpt>
      <trkpt lat="44.56453" lon="-0.19612">
        <ele>5.91</ele>
        <time>2020-07-28T13:37:15Z</time>
      </trkpt>
      <trkpt lat="44.56455" lon="-0.1964">
        <ele>6.87</ele>
        <time>2020-07-28T13:37:32Z</time>
      </trkpt>
      <trkpt lat="44.56456" lon="-0.19659">
        <ele>6.87</ele>
        <time>2020-07-28T13:37:44Z</time>
      </trkpt>
      <trkpt lat="44.56458" lon="-0.19688">
        <ele>6.87</ele>
        <time>2020-07-28T13:38:01Z</time>
      </trkpt>
      <trkpt lat="44.56457" lon="-0.19707">
        <ele>6.87</ele>
        <time>2020-07-28T13:38:13Z</time>
      </trkpt>
      <trkpt lat="44.56459" lon="-0.19729">
        <ele>6.87</ele>
        <time>2020-07-28T13:38:30Z</time>
      </trkpt>
      <trkpt lat="44.56459" lon="-0.1973">
        <ele>6.87</ele>
        <time>2020-07-28T13:38:31Z</time>
      </trkpt>
      <trkpt lat="44.5646" lon="-0.19763">
        <ele>6.87</ele>
        <time>2020-07-28T13:38:50Z</time>
      </trkpt>
      <trkpt lat="44.56461" lon="-0.19776">
        <ele>6.87</ele>
        <time>2020-07-28T13:38:59Z</time>
      </trkpt>
      <trkpt lat="44.5646" lon="-0.19786">
        <ele>6.39</ele>
        <time>2020-07-28T13:39:05Z</time>
      </trkpt>
      <trkpt lat="44.56465" lon="-0.1981">
        <ele>4.94</ele>
        <time>2020-07-28T13:39:21Z</time>
      </trkpt>
      <trkpt lat="44.56468" lon="-0.19833">
        <ele>4.94</ele>
        <time>2020-07-28T13:39:36Z</time>
      </trkpt>
      <trkpt lat="44.56469" lon="-0.19844">
        <ele>4.94</ele>
        <time>2020-07-28T13:39:44Z</time>
      </trkpt>
      <trkpt lat="44.56468" lon="-0.1987">
        <ele>4.94</ele>
        <time>2020-07-28T13:40:00Z</time>
      </trkpt>
      <trkpt lat="44.56471" lon="-0.19896">
        <ele>5.42</ele>
        <time>2020-07-28T13:40:16Z</time>
      </trkpt>
      <trkpt lat="44.56474" lon="-0.19908">
        <ele>5.42</ele>
        <time>2020-07-28T13:40:26Z</time>
      </trkpt>
      <trkpt lat="44.56478" lon="-0.19933">
        <ele>5.42</ele>
        <time>2020-07-28T13:40:42Z</time>
      </trkpt>
      <trkpt lat="44.56481" lon="-0.19958">
        <ele>4.46</ele>
        <time>2020-07-28T13:40:59Z</time>
      </trkpt>
      <trkpt lat="44.56482" lon="-0.19983">
        <ele>4.46</ele>
        <time>2020-07-28T13:41:15Z</time>
      </trkpt>
      <trkpt lat="44.56484" lon="-0.20004">
        <ele>4.46</ele>
        <time>2020-07-28T13:41:30Z</time>
      </trkpt>
      <trkpt lat="44.56484" lon="-0.2003">
        <ele>4.46</ele>
        <time>2020-07-28T13:41:47Z</time>
      </trkpt>
      <trkpt lat="44.56485" lon="-0.20057">
        <ele>4.94</ele>
        <time>2020-07-28T13:42:04Z</time>
      </trkpt>
      <trkpt lat="44.56487" lon="-0.20082">
        <ele>4.46</ele>
        <time>2020-07-28T13:42:20Z</time>
      </trkpt>
      <trkpt lat="44.56489" lon="-0.2011">
        <ele>4.46</ele>
        <time>2020-07-28T13:42:37Z</time>
      </trkpt>
      <trkpt lat="44.5649" lon="-0.2012">
        <ele>4.94</ele>
        <time>2020-07-28T13:42:45Z</time>
      </trkpt>
      <trkpt lat="44.56493" lon="-0.20132">
        <ele>4.94</ele>
        <time>2020-07-28T13:42:56Z</time>
      </trkpt>
      <trkpt lat="44.56494" lon="-0.20142">
        <ele>3.5</ele>
        <time>2020-07-28T13:43:02Z</time>
      </trkpt>
      <trkpt lat="44.56496" lon="-0.20155">
        <ele>3.5</ele>
        <time>2020-07-28T13:43:11Z</time>
      </trkpt>
      <trkpt lat="44.56496" lon="-0.20161">
        <ele>4.94</ele>
        <time>2020-07-28T13:43:14Z</time>
      </trkpt>
      <trkpt lat="44.56497" lon="-0.20195">
        <ele>3.5</ele>
        <time>2020-07-28T13:43:32Z</time>
      </trkpt>
      <trkpt lat="44.56501" lon="-0.2022">
        <ele>3.5</ele>
        <time>2020-07-28T13:43:50Z</time>
      </trkpt>
      <trkpt lat="44.56501" lon="-0.20248">
        <ele>3.5</ele>
        <time>2020-07-28T13:44:09Z</time>
      </trkpt>
      <trkpt lat="44.56499" lon="-0.20279">
        <ele>4.94</ele>
        <time>2020-07-28T13:44:27Z</time>
      </trkpt>
      <trkpt lat="44.56499" lon="-0.2028">
        <ele>4.94</ele>
        <time>2020-07-28T13:44:28Z</time>
      </trkpt>
      <trkpt lat="44.56501" lon="-0.20308">
        <ele>4.94</ele>
        <time>2020-07-28T13:44:46Z</time>
      </trkpt>
      <trkpt lat="44.56504" lon="-0.20333">
        <ele>4.94</ele>
        <time>2020-07-28T13:45:03Z</time>
      </trkpt>
      <trkpt lat="44.56506" lon="-0.20359">
        <ele>4.94</ele>
        <time>2020-07-28T13:45:19Z</time>
      </trkpt>
      <trkpt lat="44.56507" lon="-0.20379">
        <ele>4.94</ele>
        <time>2020-07-28T13:45:33Z</time>
      </trkpt>
      <trkpt lat="44.56506" lon="-0.20405">
        <ele>4.94</ele>
        <time>2020-07-28T13:45:52Z</time>
      </trkpt>
      <trkpt lat="44.56509" lon="-0.20415">
        <ele>4.94</ele>
        <time>2020-07-28T13:46:12Z</time>
      </trkpt>
      <trkpt lat="44.5651" lon="-0.20451">
        <ele>4.94</ele>
        <time>2020-07-28T13:46:31Z</time>
      </trkpt>
      <trkpt lat="44.56512" lon="-0.20464">
        <ele>3.98</ele>
        <time>2020-07-28T13:46:39Z</time>
      </trkpt>
      <trkpt lat="44.56522" lon="-0.20493">
        <ele>2.54</ele>
        <time>2020-07-28T13:46:59Z</time>
      </trkpt>
      <trkpt lat="44.56521" lon="-0.2051">
        <ele>3.5</ele>
        <time>2020-07-28T13:47:10Z</time>
      </trkpt>
      <trkpt lat="44.56518" lon="-0.20526">
        <ele>2.54</ele>
        <time>2020-07-28T13:47:30Z</time>
      </trkpt>
      <trkpt lat="44.56518" lon="-0.20544">
        <ele>2.54</ele>
        <time>2020-07-28T13:47:42Z</time>
      </trkpt>
      <trkpt lat="44.5652" lon="-0.20569">
        <ele>3.98</ele>
        <time>2020-07-28T13:48:01Z</time>
      </trkpt>
      <trkpt lat="44.56517" lon="-0.20606">
        <ele>3.5</ele>
        <time>2020-07-28T13:48:21Z</time>
      </trkpt>
      <trkpt lat="44.56515" lon="-0.20626">
        <ele>3.02</ele>
        <time>2020-07-28T13:48:34Z</time>
      </trkpt>
      <trkpt lat="44.56515" lon="-0.20656">
        <ele>3.02</ele>
        <time>2020-07-28T13:48:51Z</time>
      </trkpt>
      <trkpt lat="44.56514" lon="-0.20682">
        <ele>4.46</ele>
        <time>2020-07-28T13:49:08Z</time>
      </trkpt>
      <trkpt lat="44.56515" lon="-0.20689">
        <ele>3.98</ele>
        <time>2020-07-28T13:49:31Z</time>
      </trkpt>
      <trkpt lat="44.56517" lon="-0.20693">
        <ele>2.54</ele>
        <time>2020-07-28T13:49:37Z</time>
      </trkpt>
      <trkpt lat="44.56514" lon="-0.20713">
        <ele>2.54</ele>
        <time>2020-07-28T13:49:55Z</time>
      </trkpt>
      <trkpt lat="44.5651" lon="-0.20717">
        <ele>3.98</ele>
        <time>2020-07-28T13:50:01Z</time>
      </trkpt>
      <trkpt lat="44.56507" lon="-0.20716">
        <ele>4.46</ele>
        <time>2020-07-28T13:50:23Z</time>
      </trkpt>
      <trkpt lat="44.56509" lon="-0.20719">
        <ele>4.46</ele>
        <time>2020-07-28T13:50:53Z</time>
      </trkpt>
      <trkpt lat="44.5651" lon="-0.20722">
        <ele>4.46</ele>
        <time>2020-07-28T13:51:13Z</time>
      </trkpt>
      <trkpt lat="44.56508" lon="-0.20718">
        <ele>4.46</ele>
        <time>2020-07-28T13:51:29Z</time>
      </trkpt>
      <trkpt lat="44.56509" lon="-0.20714">
        <ele>4.94</ele>
        <time>2020-07-28T13:51:53Z</time>
      </trkpt>
      <trkpt lat="44.56509" lon="-0.20715">
        <ele>4.94</ele>
        <time>2020-07-28T13:52:11Z</time>
      </trkpt>
      <trkpt lat="44.56504" lon="-0.20713">
        <ele>5.42</ele>
        <time>2020-07-28T13:52:39Z</time>
      </trkpt>
      <trkpt lat="44.56513" lon="-0.20713">
        <ele>5.42</ele>
        <time>2020-07-28T13:53:04Z</time>
      </trkpt>
      <trkpt lat="44.56508" lon="-0.20716">
        <ele>5.42</ele>
        <time>2020-07-28T13:53:26Z</time>
      </trkpt>
      <trkpt lat="44.56507" lon="-0.20717">
        <ele>5.42</ele>
        <time>2020-07-28T13:53:51Z</time>
      </trkpt>
      <trkpt lat="44.56513" lon="-0.20719">
        <ele>5.42</ele>
        <time>2020-07-28T13:54:13Z</time>
      </trkpt>
      <trkpt lat="44.5651" lon="-0.20719">
        <ele>5.42</ele>
        <time>2020-07-28T13:54:41Z</time>
      </trkpt>
      <trkpt lat="44.56499" lon="-0.20714">
        <ele>5.42</ele>
        <time>2020-07-28T13:55:08Z</time>
      </trkpt>
      <trkpt lat="44.56477" lon="-0.20707">
        <ele>5.42</ele>
        <time>2020-07-28T13:55:29Z</time>
      </trkpt>
      <trkpt lat="44.56456" lon="-0.20696">
        <ele>3.98</ele>
        <time>2020-07-28T13:55:48Z</time>
      </trkpt>
      <trkpt lat="44.56435" lon="-0.20681">
        <ele>3.98</ele>
        <time>2020-07-28T13:56:07Z</time>
      </trkpt>
      <trkpt lat="44.56423" lon="-0.20674">
        <ele>3.98</ele>
        <time>2020-07-28T13:56:17Z</time>
      </trkpt>
      <trkpt lat="44.56398" lon="-0.20666">
        <ele>4.94</ele>
        <time>2020-07-28T13:56:38Z</time>
      </trkpt>
      <trkpt lat="44.56376" lon="-0.20654">
        <ele>4.94</ele>
        <time>2020-07-28T13:56:59Z</time>
      </trkpt>
      <trkpt lat="44.5635" lon="-0.20645">
        <ele>4.94</ele>
        <time>2020-07-28T13:57:17Z</time>
      </trkpt>
      <trkpt lat="44.56348" lon="-0.20644">
        <ele>3.5</ele>
        <time>2020-07-28T13:57:19Z</time>
      </trkpt>
      <trkpt lat="44.56345" lon="-0.20642">
        <ele>4.94</ele>
        <time>2020-07-28T13:57:21Z</time>
      </trkpt>
      <trkpt lat="44.56323" lon="-0.20633">
        <ele>4.94</ele>
        <time>2020-07-28T13:57:41Z</time>
      </trkpt>
      <trkpt lat="44.56309" lon="-0.2063">
        <ele>3.5</ele>
        <time>2020-07-28T13:57:50Z</time>
      </trkpt>
      <trkpt lat="44.56306" lon="-0.20629">
        <ele>4.46</ele>
        <time>2020-07-28T13:57:52Z</time>
      </trkpt>
      <trkpt lat="44.56291" lon="-0.20623">
        <ele>4.46</ele>
        <time>2020-07-28T13:58:03Z</time>
      </trkpt>
      <trkpt lat="44.56286" lon="-0.20617">
        <ele>3.5</ele>
        <time>2020-07-28T13:58:07Z</time>
      </trkpt>
      <trkpt lat="44.56276" lon="-0.20591">
        <ele>4.46</ele>
        <time>2020-07-28T13:58:26Z</time>
      </trkpt>
      <trkpt lat="44.56276" lon="-0.20588">
        <ele>3.5</ele>
        <time>2020-07-28T13:58:28Z</time>
      </trkpt>
      <trkpt lat="44.56275" lon="-0.20584">
        <ele>4.46</ele>
        <time>2020-07-28T13:58:31Z</time>
      </trkpt>
      <trkpt lat="44.56273" lon="-0.20542">
        <ele>4.46</ele>
        <time>2020-07-28T13:58:55Z</time>
      </trkpt>
      <trkpt lat="44.56269" lon="-0.20512">
        <ele>4.46</ele>
        <time>2020-07-28T13:59:13Z</time>
      </trkpt>
      <trkpt lat="44.56269" lon="-0.20472">
        <ele>3.5</ele>
        <time>2020-07-28T13:59:33Z</time>
      </trkpt>
      <trkpt lat="44.56267" lon="-0.20443">
        <ele>4.46</ele>
        <time>2020-07-28T13:59:48Z</time>
      </trkpt>
      <trkpt lat="44.56258" lon="-0.20412">
        <ele>4.46</ele>
        <time>2020-07-28T14:00:08Z</time>
      </trkpt>
      <trkpt lat="44.56251" lon="-0.20409">
        <ele>4.46</ele>
        <time>2020-07-28T14:00:15Z</time>
      </trkpt>
      <trkpt lat="44.56228" lon="-0.20406">
        <ele>4.94</ele>
        <time>2020-07-28T14:00:33Z</time>
      </trkpt>
      <trkpt lat="44.56208" lon="-0.20406">
        <ele>4.46</ele>
        <time>2020-07-28T14:00:50Z</time>
      </trkpt>
      <trkpt lat="44.56184" lon="-0.20411">
        <ele>5.42</ele>
        <time>2020-07-28T14:01:08Z</time>
      </trkpt>
      <trkpt lat="44.56158" lon="-0.2041">
        <ele>5.42</ele>
        <time>2020-07-28T14:01:29Z</time>
      </trkpt>
      <trkpt lat="44.56136" lon="-0.2041">
        <ele>6.39</ele>
        <time>2020-07-28T14:01:48Z</time>
      </trkpt>
      <trkpt lat="44.56128" lon="-0.20405">
        <ele>6.39</ele>
        <time>2020-07-28T14:01:54Z</time>
      </trkpt>
      <trkpt lat="44.56105" lon="-0.20384">
        <ele>6.39</ele>
        <time>2020-07-28T14:02:15Z</time>
      </trkpt>
      <trkpt lat="44.56094" lon="-0.20372">
        <ele>7.35</ele>
        <time>2020-07-28T14:02:33Z</time>
      </trkpt>
      <trkpt lat="44.56094" lon="-0.20368">
        <ele>7.35</ele>
        <time>2020-07-28T14:03:07Z</time>
      </trkpt>
      <trkpt lat="44.56092" lon="-0.20369">
        <ele>7.35</ele>
        <time>2020-07-28T14:03:34Z</time>
      </trkpt>
      <trkpt lat="44.56094" lon="-0.20367">
        <ele>7.35</ele>
        <time>2020-07-28T14:04:06Z</time>
      </trkpt>
      <trkpt lat="44.56085" lon="-0.20356">
        <ele>7.83</ele>
        <time>2020-07-28T14:04:19Z</time>
      </trkpt>
      <trkpt lat="44.56084" lon="-0.20343">
        <ele>7.83</ele>
        <time>2020-07-28T14:04:28Z</time>
      </trkpt>
      <trkpt lat="44.56083" lon="-0.2034">
        <ele>8.79</ele>
        <time>2020-07-28T14:04:30Z</time>
      </trkpt>
      <trkpt lat="44.56068" lon="-0.20318">
        <ele>9.27</ele>
        <time>2020-07-28T14:04:50Z</time>
      </trkpt>
      <trkpt lat="44.56066" lon="-0.20318">
        <ele>9.27</ele>
        <time>2020-07-28T14:04:52Z</time>
      </trkpt>
      <trkpt lat="44.5604" lon="-0.20326">
        <ele>10.71</ele>
        <time>2020-07-28T14:05:14Z</time>
      </trkpt>
      <trkpt lat="44.56017" lon="-0.20333">
        <ele>11.19</ele>
        <time>2020-07-28T14:05:33Z</time>
      </trkpt>
      <trkpt lat="44.56004" lon="-0.20331">
        <ele>11.19</ele>
        <time>2020-07-28T14:05:44Z</time>
      </trkpt>
      <trkpt lat="44.55983" lon="-0.20331">
        <ele>11.67</ele>
        <time>2020-07-28T14:06:01Z</time>
      </trkpt>
      <trkpt lat="44.55949" lon="-0.20339">
        <ele>12.63</ele>
        <time>2020-07-28T14:06:25Z</time>
      </trkpt>
      <trkpt lat="44.55923" lon="-0.20338">
        <ele>12.63</ele>
        <time>2020-07-28T14:06:46Z</time>
      </trkpt>
      <trkpt lat="44.55917" lon="-0.20336">
        <ele>11.19</ele>
        <time>2020-07-28T14:06:59Z</time>
      </trkpt>
      <trkpt lat="44.55916" lon="-0.20337">
        <ele>12.63</ele>
        <time>2020-07-28T14:07:02Z</time>
      </trkpt>
      <trkpt lat="44.55907" lon="-0.20339">
        <ele>13.12</ele>
        <time>2020-07-28T14:07:18Z</time>
      </trkpt>
      <trkpt lat="44.55884" lon="-0.20344">
        <ele>13.6</ele>
        <time>2020-07-28T14:07:37Z</time>
      </trkpt>
      <trkpt lat="44.55871" lon="-0.20341">
        <ele>13.6</ele>
        <time>2020-07-28T14:07:48Z</time>
      </trkpt>
      <trkpt lat="44.55852" lon="-0.20334">
        <ele>14.08</ele>
        <time>2020-07-28T14:08:04Z</time>
      </trkpt>
      <trkpt lat="44.55837" lon="-0.20302">
        <ele>15.04</ele>
        <time>2020-07-28T14:08:26Z</time>
      </trkpt>
      <trkpt lat="44.55829" lon="-0.20273">
        <ele>16</ele>
        <time>2020-07-28T14:08:44Z</time>
      </trkpt>
      <trkpt lat="44.5582" lon="-0.20249">
        <ele>16.48</ele>
        <time>2020-07-28T14:09:00Z</time>
      </trkpt>
      <trkpt lat="44.55811" lon="-0.20226">
        <ele>16.96</ele>
        <time>2020-07-28T14:09:19Z</time>
      </trkpt>
      <trkpt lat="44.55809" lon="-0.20224">
        <ele>16.96</ele>
        <time>2020-07-28T14:09:50Z</time>
      </trkpt>
      <trkpt lat="44.55807" lon="-0.20213">
        <ele>17.92</ele>
        <time>2020-07-28T14:10:18Z</time>
      </trkpt>
      <trkpt lat="44.558" lon="-0.20194">
        <ele>18.88</ele>
        <time>2020-07-28T14:10:37Z</time>
      </trkpt>
      <trkpt lat="44.55789" lon="-0.20175">
        <ele>20.32</ele>
        <time>2020-07-28T14:10:54Z</time>
      </trkpt>
      <trkpt lat="44.55778" lon="-0.20147">
        <ele>21.29</ele>
        <time>2020-07-28T14:11:13Z</time>
      </trkpt>
      <trkpt lat="44.55769" lon="-0.20133">
        <ele>21.29</ele>
        <time>2020-07-28T14:11:30Z</time>
      </trkpt>
      <trkpt lat="44.55753" lon="-0.20117">
        <ele>22.25</ele>
        <time>2020-07-28T14:11:48Z</time>
      </trkpt>
      <trkpt lat="44.55737" lon="-0.20093">
        <ele>23.69</ele>
        <time>2020-07-28T14:12:07Z</time>
      </trkpt>
      <trkpt lat="44.55716" lon="-0.2007">
        <ele>25.13</ele>
        <time>2020-07-28T14:12:29Z</time>
      </trkpt>
      <trkpt lat="44.55714" lon="-0.20069">
        <ele>25.13</ele>
        <time>2020-07-28T14:12:32Z</time>
      </trkpt>
      <trkpt lat="44.55707" lon="-0.20072">
        <ele>25.13</ele>
        <time>2020-07-28T14:12:44Z</time>
      </trkpt>
    </trkseg>
  </trk>
</gpx>